<gpx
version="1.0"
creator="Polar ProTrainer 5 - www.polar.fi"
xmlns:xsi="http://www.w3.org/2001/XMLSchema-instance"
xmlns="http://www.topografix.com/GPX/1/0"
xsi:schemaLocation="http://www.topografix.com/GPX/1/0 http://www.topografix.com/GPX/1/0/gpx.xsd">
<wpt lat="32.080825000" lon="34.902406667">
<name>Start</name>
</wpt>
<wpt lat="32.080855000" lon="34.902365000">
<name>Stop</name>
</wpt>
<trk>
<trkseg>
<trkpt lat="32.080825000" lon="34.902406667">
<time>2011-06-04T06:32:10Z</time>
</trkpt>
<trkpt lat="32.080858333" lon="34.902403333">
<time>2011-06-04T06:32:10Z</time>
</trkpt>
<trkpt lat="32.080900000" lon="34.902345000">
<time>2011-06-04T06:32:15Z</time>
</trkpt>
<trkpt lat="32.080863333" lon="34.902233333">
<time>2011-06-04T06:32:20Z</time>
</trkpt>
<trkpt lat="32.080840000" lon="34.902105000">
<time>2011-06-04T06:32:25Z</time>
</trkpt>
<trkpt lat="32.080798333" lon="34.901913333">
<time>2011-06-04T06:32:30Z</time>
</trkpt>
<trkpt lat="32.080841667" lon="34.901790000">
<time>2011-06-04T06:32:35Z</time>
</trkpt>
<trkpt lat="32.080915000" lon="34.901788333">
<time>2011-06-04T06:32:40Z</time>
</trkpt>
<trkpt lat="32.080891667" lon="34.901818333">
<time>2011-06-04T06:32:45Z</time>
</trkpt>
<trkpt lat="32.080910000" lon="34.901886667">
<time>2011-06-04T06:32:50Z</time>
</trkpt>
<trkpt lat="32.081048333" lon="34.901938333">
<time>2011-06-04T06:32:55Z</time>
</trkpt>
<trkpt lat="32.081153333" lon="34.902008333">
<time>2011-06-04T06:33:00Z</time>
</trkpt>
<trkpt lat="32.081266667" lon="34.902065000">
<time>2011-06-04T06:33:05Z</time>
</trkpt>
<trkpt lat="32.081320000" lon="34.902173333">
<time>2011-06-04T06:33:10Z</time>
</trkpt>
<trkpt lat="32.081413333" lon="34.902338333">
<time>2011-06-04T06:33:15Z</time>
</trkpt>
<trkpt lat="32.081566667" lon="34.902388333">
<time>2011-06-04T06:33:20Z</time>
</trkpt>
<trkpt lat="32.081720000" lon="34.902415000">
<time>2011-06-04T06:33:25Z</time>
</trkpt>
<trkpt lat="32.081860000" lon="34.902425000">
<time>2011-06-04T06:33:30Z</time>
</trkpt>
<trkpt lat="32.082008333" lon="34.902391667">
<time>2011-06-04T06:33:35Z</time>
</trkpt>
<trkpt lat="32.082098333" lon="34.902336667">
<time>2011-06-04T06:33:40Z</time>
</trkpt>
<trkpt lat="32.082213333" lon="34.902218333">
<time>2011-06-04T06:33:45Z</time>
</trkpt>
<trkpt lat="32.082295000" lon="34.902203333">
<time>2011-06-04T06:33:50Z</time>
</trkpt>
<trkpt lat="32.082355000" lon="34.902263333">
<time>2011-06-04T06:33:55Z</time>
</trkpt>
<trkpt lat="32.082396667" lon="34.902385000">
<time>2011-06-04T06:34:00Z</time>
</trkpt>
<trkpt lat="32.082398333" lon="34.902405000">
<time>2011-06-04T06:34:05Z</time>
</trkpt>
<trkpt lat="32.082393333" lon="34.902401667">
<time>2011-06-04T06:34:10Z</time>
</trkpt>
<trkpt lat="32.082406667" lon="34.902451667">
<time>2011-06-04T06:34:15Z</time>
</trkpt>
<trkpt lat="32.082445000" lon="34.902561667">
<time>2011-06-04T06:34:20Z</time>
</trkpt>
<trkpt lat="32.082453333" lon="34.902708333">
<time>2011-06-04T06:34:25Z</time>
</trkpt>
<trkpt lat="32.082510000" lon="34.902860000">
<time>2011-06-04T06:34:30Z</time>
</trkpt>
<trkpt lat="32.082516667" lon="34.903053333">
<time>2011-06-04T06:34:35Z</time>
</trkpt>
<trkpt lat="32.082476667" lon="34.903233333">
<time>2011-06-04T06:34:40Z</time>
</trkpt>
<trkpt lat="32.082381667" lon="34.903481667">
<time>2011-06-04T06:34:45Z</time>
</trkpt>
<trkpt lat="32.082280000" lon="34.903718333">
<time>2011-06-04T06:34:50Z</time>
</trkpt>
<trkpt lat="32.082315000" lon="34.903805000">
<time>2011-06-04T06:34:55Z</time>
</trkpt>
<trkpt lat="32.082425000" lon="34.903856667">
<time>2011-06-04T06:35:00Z</time>
</trkpt>
<trkpt lat="32.082455000" lon="34.903920000">
<time>2011-06-04T06:35:05Z</time>
</trkpt>
<trkpt lat="32.082370000" lon="34.904085000">
<time>2011-06-04T06:35:10Z</time>
</trkpt>
<trkpt lat="32.082323333" lon="34.904186667">
<time>2011-06-04T06:35:15Z</time>
</trkpt>
<trkpt lat="32.082326667" lon="34.904196667">
<time>2011-06-04T06:35:20Z</time>
</trkpt>
<trkpt lat="32.082328333" lon="34.904196667">
<time>2011-06-04T06:35:25Z</time>
</trkpt>
<trkpt lat="32.082331667" lon="34.904198333">
<time>2011-06-04T06:35:30Z</time>
</trkpt>
<trkpt lat="32.082333333" lon="34.904200000">
<time>2011-06-04T06:35:35Z</time>
</trkpt>
<trkpt lat="32.082336667" lon="34.904195000">
<time>2011-06-04T06:35:40Z</time>
</trkpt>
<trkpt lat="32.082316667" lon="34.904230000">
<time>2011-06-04T06:35:45Z</time>
</trkpt>
<trkpt lat="32.082276667" lon="34.904318333">
<time>2011-06-04T06:35:50Z</time>
</trkpt>
<trkpt lat="32.082193333" lon="34.904515000">
<time>2011-06-04T06:35:55Z</time>
</trkpt>
<trkpt lat="32.082113333" lon="34.904703333">
<time>2011-06-04T06:36:00Z</time>
</trkpt>
<trkpt lat="32.082030000" lon="34.904905000">
<time>2011-06-04T06:36:05Z</time>
</trkpt>
<trkpt lat="32.081943333" lon="34.905115000">
<time>2011-06-04T06:36:10Z</time>
</trkpt>
<trkpt lat="32.081860000" lon="34.905311667">
<time>2011-06-04T06:36:15Z</time>
</trkpt>
<trkpt lat="32.081795000" lon="34.905505000">
<time>2011-06-04T06:36:20Z</time>
</trkpt>
<trkpt lat="32.081718333" lon="34.905693333">
<time>2011-06-04T06:36:25Z</time>
</trkpt>
<trkpt lat="32.081635000" lon="34.905891667">
<time>2011-06-04T06:36:30Z</time>
</trkpt>
<trkpt lat="32.081600000" lon="34.906001667">
<time>2011-06-04T06:36:35Z</time>
</trkpt>
<trkpt lat="32.081773333" lon="34.906076667">
<time>2011-06-04T06:36:40Z</time>
</trkpt>
<trkpt lat="32.081906667" lon="34.906148333">
<time>2011-06-04T06:36:45Z</time>
</trkpt>
<trkpt lat="32.082085000" lon="34.906218333">
<time>2011-06-04T06:36:50Z</time>
</trkpt>
<trkpt lat="32.082281667" lon="34.906296667">
<time>2011-06-04T06:36:55Z</time>
</trkpt>
<trkpt lat="32.082436667" lon="34.906358333">
<time>2011-06-04T06:37:00Z</time>
</trkpt>
<trkpt lat="32.082686667" lon="34.906451667">
<time>2011-06-04T06:37:05Z</time>
</trkpt>
<trkpt lat="32.082875000" lon="34.906551667">
<time>2011-06-04T06:37:10Z</time>
</trkpt>
<trkpt lat="32.083076667" lon="34.906650000">
<time>2011-06-04T06:37:15Z</time>
</trkpt>
<trkpt lat="32.083241667" lon="34.906723333">
<time>2011-06-04T06:37:20Z</time>
</trkpt>
<trkpt lat="32.083500000" lon="34.906798333">
<time>2011-06-04T06:37:25Z</time>
</trkpt>
<trkpt lat="32.083720000" lon="34.906866667">
<time>2011-06-04T06:37:30Z</time>
</trkpt>
<trkpt lat="32.083936667" lon="34.906940000">
<time>2011-06-04T06:37:35Z</time>
</trkpt>
<trkpt lat="32.084168333" lon="34.907010000">
<time>2011-06-04T06:37:40Z</time>
</trkpt>
<trkpt lat="32.084406667" lon="34.907095000">
<time>2011-06-04T06:37:45Z</time>
</trkpt>
<trkpt lat="32.084648333" lon="34.907188333">
<time>2011-06-04T06:37:50Z</time>
</trkpt>
<trkpt lat="32.084891667" lon="34.907271667">
<time>2011-06-04T06:37:55Z</time>
</trkpt>
<trkpt lat="32.085130000" lon="34.907350000">
<time>2011-06-04T06:38:00Z</time>
</trkpt>
<trkpt lat="32.085320000" lon="34.907410000">
<time>2011-06-04T06:38:05Z</time>
</trkpt>
<trkpt lat="32.085560000" lon="34.907493333">
<time>2011-06-04T06:38:10Z</time>
</trkpt>
<trkpt lat="32.085838333" lon="34.907598333">
<time>2011-06-04T06:38:15Z</time>
</trkpt>
<trkpt lat="32.086070000" lon="34.907635000">
<time>2011-06-04T06:38:20Z</time>
</trkpt>
<trkpt lat="32.086290000" lon="34.907626667">
<time>2011-06-04T06:38:25Z</time>
</trkpt>
<trkpt lat="32.086478333" lon="34.907605000">
<time>2011-06-04T06:38:30Z</time>
</trkpt>
<trkpt lat="32.086783333" lon="34.907550000">
<time>2011-06-04T06:38:35Z</time>
</trkpt>
<trkpt lat="32.087000000" lon="34.907465000">
<time>2011-06-04T06:38:40Z</time>
</trkpt>
<trkpt lat="32.087210000" lon="34.907388333">
<time>2011-06-04T06:38:45Z</time>
</trkpt>
<trkpt lat="32.087428333" lon="34.907355000">
<time>2011-06-04T06:38:50Z</time>
</trkpt>
<trkpt lat="32.087646667" lon="34.907283333">
<time>2011-06-04T06:38:55Z</time>
</trkpt>
<trkpt lat="32.087876667" lon="34.907288333">
<time>2011-06-04T06:39:00Z</time>
</trkpt>
<trkpt lat="32.088141667" lon="34.907370000">
<time>2011-06-04T06:39:05Z</time>
</trkpt>
<trkpt lat="32.088381667" lon="34.907470000">
<time>2011-06-04T06:39:10Z</time>
</trkpt>
<trkpt lat="32.088575000" lon="34.907561667">
<time>2011-06-04T06:39:15Z</time>
</trkpt>
<trkpt lat="32.088843333" lon="34.907688333">
<time>2011-06-04T06:39:20Z</time>
</trkpt>
<trkpt lat="32.089091667" lon="34.907771667">
<time>2011-06-04T06:39:25Z</time>
</trkpt>
<trkpt lat="32.089323333" lon="34.907795000">
<time>2011-06-04T06:39:30Z</time>
</trkpt>
<trkpt lat="32.089551667" lon="34.907780000">
<time>2011-06-04T06:39:35Z</time>
</trkpt>
<trkpt lat="32.089731667" lon="34.907776667">
<time>2011-06-04T06:39:40Z</time>
</trkpt>
<trkpt lat="32.089993333" lon="34.907775000">
<time>2011-06-04T06:39:45Z</time>
</trkpt>
<trkpt lat="32.090201667" lon="34.907763333">
<time>2011-06-04T06:39:50Z</time>
</trkpt>
<trkpt lat="32.090415000" lon="34.907761667">
<time>2011-06-04T06:39:55Z</time>
</trkpt>
<trkpt lat="32.090578333" lon="34.907756667">
<time>2011-06-04T06:40:00Z</time>
</trkpt>
<trkpt lat="32.090886667" lon="34.907760000">
<time>2011-06-04T06:40:05Z</time>
</trkpt>
<trkpt lat="32.091101667" lon="34.907700000">
<time>2011-06-04T06:40:10Z</time>
</trkpt>
<trkpt lat="32.091340000" lon="34.907645000">
<time>2011-06-04T06:40:15Z</time>
</trkpt>
<trkpt lat="32.091573333" lon="34.907618333">
<time>2011-06-04T06:40:20Z</time>
</trkpt>
<trkpt lat="32.091816667" lon="34.907641667">
<time>2011-06-04T06:40:25Z</time>
</trkpt>
<trkpt lat="32.092056667" lon="34.907705000">
<time>2011-06-04T06:40:30Z</time>
</trkpt>
<trkpt lat="32.092325000" lon="34.907815000">
<time>2011-06-04T06:40:35Z</time>
</trkpt>
<trkpt lat="32.092590000" lon="34.907915000">
<time>2011-06-04T06:40:40Z</time>
</trkpt>
<trkpt lat="32.092776667" lon="34.907950000">
<time>2011-06-04T06:40:45Z</time>
</trkpt>
<trkpt lat="32.093061667" lon="34.908008333">
<time>2011-06-04T06:40:50Z</time>
</trkpt>
<trkpt lat="32.093306667" lon="34.908050000">
<time>2011-06-04T06:40:55Z</time>
</trkpt>
<trkpt lat="32.093551667" lon="34.908080000">
<time>2011-06-04T06:41:00Z</time>
</trkpt>
<trkpt lat="32.093790000" lon="34.908113333">
<time>2011-06-04T06:41:05Z</time>
</trkpt>
<trkpt lat="32.093988333" lon="34.908138333">
<time>2011-06-04T06:41:10Z</time>
</trkpt>
<trkpt lat="32.094276667" lon="34.908161667">
<time>2011-06-04T06:41:15Z</time>
</trkpt>
<trkpt lat="32.094508333" lon="34.908151667">
<time>2011-06-04T06:41:20Z</time>
</trkpt>
<trkpt lat="32.094721667" lon="34.908073333">
<time>2011-06-04T06:41:25Z</time>
</trkpt>
<trkpt lat="32.094881667" lon="34.907961667">
<time>2011-06-04T06:41:30Z</time>
</trkpt>
<trkpt lat="32.095080000" lon="34.907803333">
<time>2011-06-04T06:41:35Z</time>
</trkpt>
<trkpt lat="32.095313333" lon="34.907613333">
<time>2011-06-04T06:41:40Z</time>
</trkpt>
<trkpt lat="32.095521667" lon="34.907478333">
<time>2011-06-04T06:41:45Z</time>
</trkpt>
<trkpt lat="32.095710000" lon="34.907326667">
<time>2011-06-04T06:41:50Z</time>
</trkpt>
<trkpt lat="32.095863333" lon="34.907208333">
<time>2011-06-04T06:41:55Z</time>
</trkpt>
<trkpt lat="32.096086667" lon="34.907041667">
<time>2011-06-04T06:42:00Z</time>
</trkpt>
<trkpt lat="32.096266667" lon="34.906921667">
<time>2011-06-04T06:42:05Z</time>
</trkpt>
<trkpt lat="32.096425000" lon="34.906856667">
<time>2011-06-04T06:42:10Z</time>
</trkpt>
<trkpt lat="32.096518333" lon="34.906990000">
<time>2011-06-04T06:42:15Z</time>
</trkpt>
<trkpt lat="32.096516667" lon="34.907220000">
<time>2011-06-04T06:42:20Z</time>
</trkpt>
<trkpt lat="32.096516667" lon="34.907450000">
<time>2011-06-04T06:42:25Z</time>
</trkpt>
<trkpt lat="32.096496667" lon="34.907683333">
<time>2011-06-04T06:42:30Z</time>
</trkpt>
<trkpt lat="32.096485000" lon="34.907918333">
<time>2011-06-04T06:42:35Z</time>
</trkpt>
<trkpt lat="32.096498333" lon="34.908108333">
<time>2011-06-04T06:42:40Z</time>
</trkpt>
<trkpt lat="32.096505000" lon="34.908333333">
<time>2011-06-04T06:42:45Z</time>
</trkpt>
<trkpt lat="32.096496667" lon="34.908616667">
<time>2011-06-04T06:42:50Z</time>
</trkpt>
<trkpt lat="32.096500000" lon="34.908855000">
<time>2011-06-04T06:42:55Z</time>
</trkpt>
<trkpt lat="32.096498333" lon="34.909096667">
<time>2011-06-04T06:43:00Z</time>
</trkpt>
<trkpt lat="32.096495000" lon="34.909341667">
<time>2011-06-04T06:43:05Z</time>
</trkpt>
<trkpt lat="32.096510000" lon="34.909588333">
<time>2011-06-04T06:43:10Z</time>
</trkpt>
<trkpt lat="32.096541667" lon="34.909831667">
<time>2011-06-04T06:43:15Z</time>
</trkpt>
<trkpt lat="32.096556667" lon="34.910085000">
<time>2011-06-04T06:43:20Z</time>
</trkpt>
<trkpt lat="32.096570000" lon="34.910291667">
<time>2011-06-04T06:43:25Z</time>
</trkpt>
<trkpt lat="32.096598333" lon="34.910548333">
<time>2011-06-04T06:43:30Z</time>
</trkpt>
<trkpt lat="32.096621667" lon="34.910680000">
<time>2011-06-04T06:43:35Z</time>
</trkpt>
<trkpt lat="32.096676667" lon="34.910800000">
<time>2011-06-04T06:43:40Z</time>
</trkpt>
<trkpt lat="32.096816667" lon="34.910831667">
<time>2011-06-04T06:43:45Z</time>
</trkpt>
<trkpt lat="32.096896667" lon="34.910813333">
<time>2011-06-04T06:43:50Z</time>
</trkpt>
<trkpt lat="32.097091667" lon="34.910750000">
<time>2011-06-04T06:43:55Z</time>
</trkpt>
<trkpt lat="32.097206667" lon="34.910790000">
<time>2011-06-04T06:44:00Z</time>
</trkpt>
<trkpt lat="32.097263333" lon="34.910901667">
<time>2011-06-04T06:44:05Z</time>
</trkpt>
<trkpt lat="32.097278333" lon="34.911030000">
<time>2011-06-04T06:44:10Z</time>
</trkpt>
<trkpt lat="32.097310000" lon="34.911180000">
<time>2011-06-04T06:44:15Z</time>
</trkpt>
<trkpt lat="32.097411667" lon="34.911338333">
<time>2011-06-04T06:44:20Z</time>
</trkpt>
<trkpt lat="32.097476667" lon="34.911520000">
<time>2011-06-04T06:44:25Z</time>
</trkpt>
<trkpt lat="32.097536667" lon="34.911715000">
<time>2011-06-04T06:44:30Z</time>
</trkpt>
<trkpt lat="32.097590000" lon="34.911861667">
<time>2011-06-04T06:44:35Z</time>
</trkpt>
<trkpt lat="32.097675000" lon="34.912070000">
<time>2011-06-04T06:44:40Z</time>
</trkpt>
<trkpt lat="32.097748333" lon="34.912250000">
<time>2011-06-04T06:44:45Z</time>
</trkpt>
<trkpt lat="32.097843333" lon="34.912400000">
<time>2011-06-04T06:44:50Z</time>
</trkpt>
<trkpt lat="32.097985000" lon="34.912430000">
<time>2011-06-04T06:44:55Z</time>
</trkpt>
<trkpt lat="32.098131667" lon="34.912365000">
<time>2011-06-04T06:45:00Z</time>
</trkpt>
<trkpt lat="32.098293333" lon="34.912310000">
<time>2011-06-04T06:45:05Z</time>
</trkpt>
<trkpt lat="32.098460000" lon="34.912345000">
<time>2011-06-04T06:45:10Z</time>
</trkpt>
<trkpt lat="32.098610000" lon="34.912481667">
<time>2011-06-04T06:45:15Z</time>
</trkpt>
<trkpt lat="32.098710000" lon="34.912611667">
<time>2011-06-04T06:45:20Z</time>
</trkpt>
<trkpt lat="32.098828333" lon="34.912805000">
<time>2011-06-04T06:45:25Z</time>
</trkpt>
<trkpt lat="32.098948333" lon="34.913060000">
<time>2011-06-04T06:45:30Z</time>
</trkpt>
<trkpt lat="32.099053333" lon="34.913283333">
<time>2011-06-04T06:45:35Z</time>
</trkpt>
<trkpt lat="32.099158333" lon="34.913510000">
<time>2011-06-04T06:45:40Z</time>
</trkpt>
<trkpt lat="32.099280000" lon="34.913726667">
<time>2011-06-04T06:45:45Z</time>
</trkpt>
<trkpt lat="32.099410000" lon="34.913960000">
<time>2011-06-04T06:45:50Z</time>
</trkpt>
<trkpt lat="32.099528333" lon="34.914195000">
<time>2011-06-04T06:45:55Z</time>
</trkpt>
<trkpt lat="32.099571667" lon="34.914453333">
<time>2011-06-04T06:46:00Z</time>
</trkpt>
<trkpt lat="32.099590000" lon="34.914661667">
<time>2011-06-04T06:46:05Z</time>
</trkpt>
<trkpt lat="32.099705000" lon="34.914938333">
<time>2011-06-04T06:46:10Z</time>
</trkpt>
<trkpt lat="32.099645000" lon="34.915140000">
<time>2011-06-04T06:46:15Z</time>
</trkpt>
<trkpt lat="32.099473333" lon="34.915271667">
<time>2011-06-04T06:46:20Z</time>
</trkpt>
<trkpt lat="32.099525000" lon="34.915456667">
<time>2011-06-04T06:46:25Z</time>
</trkpt>
<trkpt lat="32.099626667" lon="34.915651667">
<time>2011-06-04T06:46:30Z</time>
</trkpt>
<trkpt lat="32.099738333" lon="34.915881667">
<time>2011-06-04T06:46:35Z</time>
</trkpt>
<trkpt lat="32.099843333" lon="34.916111667">
<time>2011-06-04T06:46:40Z</time>
</trkpt>
<trkpt lat="32.099955000" lon="34.916341667">
<time>2011-06-04T06:46:45Z</time>
</trkpt>
<trkpt lat="32.100040000" lon="34.916523333">
<time>2011-06-04T06:46:50Z</time>
</trkpt>
<trkpt lat="32.100140000" lon="34.916731667">
<time>2011-06-04T06:46:55Z</time>
</trkpt>
<trkpt lat="32.100250000" lon="34.916960000">
<time>2011-06-04T06:47:00Z</time>
</trkpt>
<trkpt lat="32.100348333" lon="34.917171667">
<time>2011-06-04T06:47:05Z</time>
</trkpt>
<trkpt lat="32.100453333" lon="34.917385000">
<time>2011-06-04T06:47:10Z</time>
</trkpt>
<trkpt lat="32.100536667" lon="34.917555000">
<time>2011-06-04T06:47:15Z</time>
</trkpt>
<trkpt lat="32.100665000" lon="34.917823333">
<time>2011-06-04T06:47:20Z</time>
</trkpt>
<trkpt lat="32.100778333" lon="34.917968333">
<time>2011-06-04T06:47:25Z</time>
</trkpt>
<trkpt lat="32.100923333" lon="34.917885000">
<time>2011-06-04T06:47:30Z</time>
</trkpt>
<trkpt lat="32.100966667" lon="34.917948333">
<time>2011-06-04T06:47:35Z</time>
</trkpt>
<trkpt lat="32.101000000" lon="34.918171667">
<time>2011-06-04T06:47:40Z</time>
</trkpt>
<trkpt lat="32.101083333" lon="34.918381667">
<time>2011-06-04T06:47:45Z</time>
</trkpt>
<trkpt lat="32.101190000" lon="34.918586667">
<time>2011-06-04T06:47:50Z</time>
</trkpt>
<trkpt lat="32.101326667" lon="34.918783333">
<time>2011-06-04T06:47:55Z</time>
</trkpt>
<trkpt lat="32.101453333" lon="34.918946667">
<time>2011-06-04T06:48:00Z</time>
</trkpt>
<trkpt lat="32.101596667" lon="34.919240000">
<time>2011-06-04T06:48:05Z</time>
</trkpt>
<trkpt lat="32.101581667" lon="34.919528333">
<time>2011-06-04T06:48:10Z</time>
</trkpt>
<trkpt lat="32.101545000" lon="34.919816667">
<time>2011-06-04T06:48:15Z</time>
</trkpt>
<trkpt lat="32.101568333" lon="34.920086667">
<time>2011-06-04T06:48:20Z</time>
</trkpt>
<trkpt lat="32.101650000" lon="34.920336667">
<time>2011-06-04T06:48:25Z</time>
</trkpt>
<trkpt lat="32.101751667" lon="34.920580000">
<time>2011-06-04T06:48:30Z</time>
</trkpt>
<trkpt lat="32.101870000" lon="34.920826667">
<time>2011-06-04T06:48:35Z</time>
</trkpt>
<trkpt lat="32.101993333" lon="34.921041667">
<time>2011-06-04T06:48:40Z</time>
</trkpt>
<trkpt lat="32.102073333" lon="34.921223333">
<time>2011-06-04T06:48:45Z</time>
</trkpt>
<trkpt lat="32.102208333" lon="34.921498333">
<time>2011-06-04T06:48:50Z</time>
</trkpt>
<trkpt lat="32.102335000" lon="34.921720000">
<time>2011-06-04T06:48:55Z</time>
</trkpt>
<trkpt lat="32.102481667" lon="34.921918333">
<time>2011-06-04T06:49:00Z</time>
</trkpt>
<trkpt lat="32.102606667" lon="34.922125000">
<time>2011-06-04T06:49:05Z</time>
</trkpt>
<trkpt lat="32.102713333" lon="34.922338333">
<time>2011-06-04T06:49:10Z</time>
</trkpt>
<trkpt lat="32.102806667" lon="34.922558333">
<time>2011-06-04T06:49:15Z</time>
</trkpt>
<trkpt lat="32.102893333" lon="34.922780000">
<time>2011-06-04T06:49:20Z</time>
</trkpt>
<trkpt lat="32.102978333" lon="34.923013333">
<time>2011-06-04T06:49:25Z</time>
</trkpt>
<trkpt lat="32.103058333" lon="34.923206667">
<time>2011-06-04T06:49:30Z</time>
</trkpt>
<trkpt lat="32.103215000" lon="34.923493333">
<time>2011-06-04T06:49:35Z</time>
</trkpt>
<trkpt lat="32.103396667" lon="34.923681667">
<time>2011-06-04T06:49:40Z</time>
</trkpt>
<trkpt lat="32.103590000" lon="34.923818333">
<time>2011-06-04T06:49:45Z</time>
</trkpt>
<trkpt lat="32.103786667" lon="34.923823333">
<time>2011-06-04T06:49:50Z</time>
</trkpt>
<trkpt lat="32.103951667" lon="34.923715000">
<time>2011-06-04T06:49:55Z</time>
</trkpt>
<trkpt lat="32.104201667" lon="34.923516667">
<time>2011-06-04T06:50:00Z</time>
</trkpt>
<trkpt lat="32.104403333" lon="34.923350000">
<time>2011-06-04T06:50:05Z</time>
</trkpt>
<trkpt lat="32.104610000" lon="34.923181667">
<time>2011-06-04T06:50:10Z</time>
</trkpt>
<trkpt lat="32.104765000" lon="34.923045000">
<time>2011-06-04T06:50:15Z</time>
</trkpt>
<trkpt lat="32.105021667" lon="34.922845000">
<time>2011-06-04T06:50:20Z</time>
</trkpt>
<trkpt lat="32.105233333" lon="34.922671667">
<time>2011-06-04T06:50:25Z</time>
</trkpt>
<trkpt lat="32.105461667" lon="34.922570000">
<time>2011-06-04T06:50:30Z</time>
</trkpt>
<trkpt lat="32.105706667" lon="34.922520000">
<time>2011-06-04T06:50:35Z</time>
</trkpt>
<trkpt lat="32.105971667" lon="34.922465000">
<time>2011-06-04T06:50:40Z</time>
</trkpt>
<trkpt lat="32.106235000" lon="34.922381667">
<time>2011-06-04T06:50:45Z</time>
</trkpt>
<trkpt lat="32.106501667" lon="34.922268333">
<time>2011-06-04T06:50:50Z</time>
</trkpt>
<trkpt lat="32.106770000" lon="34.922141667">
<time>2011-06-04T06:50:55Z</time>
</trkpt>
<trkpt lat="32.106973333" lon="34.922015000">
<time>2011-06-04T06:51:00Z</time>
</trkpt>
<trkpt lat="32.107275000" lon="34.921810000">
<time>2011-06-04T06:51:05Z</time>
</trkpt>
<trkpt lat="32.107518333" lon="34.921630000">
<time>2011-06-04T06:51:10Z</time>
</trkpt>
<trkpt lat="32.107720000" lon="34.921418333">
<time>2011-06-04T06:51:15Z</time>
</trkpt>
<trkpt lat="32.107883333" lon="34.921226667">
<time>2011-06-04T06:51:20Z</time>
</trkpt>
<trkpt lat="32.108005000" lon="34.921130000">
<time>2011-06-04T06:51:25Z</time>
</trkpt>
<trkpt lat="32.108226667" lon="34.921133333">
<time>2011-06-04T06:51:30Z</time>
</trkpt>
<trkpt lat="32.108436667" lon="34.921180000">
<time>2011-06-04T06:51:35Z</time>
</trkpt>
<trkpt lat="32.108651667" lon="34.921241667">
<time>2011-06-04T06:51:40Z</time>
</trkpt>
<trkpt lat="32.108766667" lon="34.921296667">
<time>2011-06-04T06:51:45Z</time>
</trkpt>
<trkpt lat="32.108881667" lon="34.921336667">
<time>2011-06-04T06:51:50Z</time>
</trkpt>
<trkpt lat="32.109030000" lon="34.921413333">
<time>2011-06-04T06:51:55Z</time>
</trkpt>
<trkpt lat="32.109031667" lon="34.921495000">
<time>2011-06-04T06:52:00Z</time>
</trkpt>
<trkpt lat="32.109013333" lon="34.921550000">
<time>2011-06-04T06:52:05Z</time>
</trkpt>
<trkpt lat="32.109010000" lon="34.921553333">
<time>2011-06-04T06:52:10Z</time>
</trkpt>
<trkpt lat="32.109008333" lon="34.921561667">
<time>2011-06-04T06:52:15Z</time>
</trkpt>
<trkpt lat="32.109008333" lon="34.921565000">
<time>2011-06-04T06:52:20Z</time>
</trkpt>
<trkpt lat="32.109008333" lon="34.921556667">
<time>2011-06-04T06:52:25Z</time>
</trkpt>
<trkpt lat="32.109006667" lon="34.921550000">
<time>2011-06-04T06:52:30Z</time>
</trkpt>
<trkpt lat="32.109011667" lon="34.921621667">
<time>2011-06-04T06:52:35Z</time>
</trkpt>
<trkpt lat="32.109126667" lon="34.921721667">
<time>2011-06-04T06:52:40Z</time>
</trkpt>
<trkpt lat="32.109236667" lon="34.921786667">
<time>2011-06-04T06:52:45Z</time>
</trkpt>
<trkpt lat="32.109376667" lon="34.921866667">
<time>2011-06-04T06:52:50Z</time>
</trkpt>
<trkpt lat="32.109463333" lon="34.921918333">
<time>2011-06-04T06:52:55Z</time>
</trkpt>
<trkpt lat="32.109575000" lon="34.921973333">
<time>2011-06-04T06:53:00Z</time>
</trkpt>
<trkpt lat="32.109648333" lon="34.921985000">
<time>2011-06-04T06:53:05Z</time>
</trkpt>
<trkpt lat="32.109666667" lon="34.921988333">
<time>2011-06-04T06:53:10Z</time>
</trkpt>
<trkpt lat="32.109675000" lon="34.922000000">
<time>2011-06-04T06:53:15Z</time>
</trkpt>
<trkpt lat="32.109676667" lon="34.922003333">
<time>2011-06-04T06:53:20Z</time>
</trkpt>
<trkpt lat="32.109671667" lon="34.922001667">
<time>2011-06-04T06:53:25Z</time>
</trkpt>
<trkpt lat="32.109665000" lon="34.922001667">
<time>2011-06-04T06:53:30Z</time>
</trkpt>
<trkpt lat="32.109661667" lon="34.922001667">
<time>2011-06-04T06:53:35Z</time>
</trkpt>
<trkpt lat="32.109660000" lon="34.922000000">
<time>2011-06-04T06:53:40Z</time>
</trkpt>
<trkpt lat="32.109656667" lon="34.921998333">
<time>2011-06-04T06:54:05Z</time>
</trkpt>
<trkpt lat="32.109653333" lon="34.922005000">
<time>2011-06-04T06:54:10Z</time>
</trkpt>
<trkpt lat="32.109651667" lon="34.921996667">
<time>2011-06-04T06:54:15Z</time>
</trkpt>
<trkpt lat="32.109651667" lon="34.921995000">
<time>2011-06-04T06:54:20Z</time>
</trkpt>
<trkpt lat="32.109651667" lon="34.921985000">
<time>2011-06-04T06:54:35Z</time>
</trkpt>
<trkpt lat="32.109606667" lon="34.921978333">
<time>2011-06-04T06:54:40Z</time>
</trkpt>
<trkpt lat="32.109516667" lon="34.921938333">
<time>2011-06-04T06:54:45Z</time>
</trkpt>
<trkpt lat="32.109426667" lon="34.921885000">
<time>2011-06-04T06:54:50Z</time>
</trkpt>
<trkpt lat="32.109293333" lon="34.921793333">
<time>2011-06-04T06:54:55Z</time>
</trkpt>
<trkpt lat="32.109176667" lon="34.921736667">
<time>2011-06-04T06:55:00Z</time>
</trkpt>
<trkpt lat="32.109065000" lon="34.921671667">
<time>2011-06-04T06:55:05Z</time>
</trkpt>
<trkpt lat="32.108965000" lon="34.921738333">
<time>2011-06-04T06:55:10Z</time>
</trkpt>
<trkpt lat="32.108936667" lon="34.921891667">
<time>2011-06-04T06:55:15Z</time>
</trkpt>
<trkpt lat="32.108963333" lon="34.922166667">
<time>2011-06-04T06:55:20Z</time>
</trkpt>
<trkpt lat="32.108995000" lon="34.922420000">
<time>2011-06-04T06:55:25Z</time>
</trkpt>
<trkpt lat="32.109020000" lon="34.922643333">
<time>2011-06-04T06:55:30Z</time>
</trkpt>
<trkpt lat="32.109033333" lon="34.922821667">
<time>2011-06-04T06:55:35Z</time>
</trkpt>
<trkpt lat="32.109068333" lon="34.923118333">
<time>2011-06-04T06:55:40Z</time>
</trkpt>
<trkpt lat="32.109100000" lon="34.923358333">
<time>2011-06-04T06:55:45Z</time>
</trkpt>
<trkpt lat="32.109143333" lon="34.923585000">
<time>2011-06-04T06:55:50Z</time>
</trkpt>
<trkpt lat="32.109226667" lon="34.923731667">
<time>2011-06-04T06:55:55Z</time>
</trkpt>
<trkpt lat="32.109276667" lon="34.923806667">
<time>2011-06-04T06:56:00Z</time>
</trkpt>
<trkpt lat="32.109310000" lon="34.924101667">
<time>2011-06-04T06:56:05Z</time>
</trkpt>
<trkpt lat="32.109310000" lon="34.924170000">
<time>2011-06-04T06:56:10Z</time>
</trkpt>
<trkpt lat="32.109308333" lon="34.924208333">
<time>2011-06-04T06:56:15Z</time>
</trkpt>
<trkpt lat="32.109318333" lon="34.924230000">
<time>2011-06-04T06:56:20Z</time>
</trkpt>
<trkpt lat="32.109325000" lon="34.924230000">
<time>2011-06-04T06:56:25Z</time>
</trkpt>
<trkpt lat="32.109333333" lon="34.924243333">
<time>2011-06-04T06:56:30Z</time>
</trkpt>
<trkpt lat="32.109335000" lon="34.924241667">
<time>2011-06-04T06:56:35Z</time>
</trkpt>
<trkpt lat="32.109333333" lon="34.924241667">
<time>2011-06-04T06:56:40Z</time>
</trkpt>
<trkpt lat="32.109345000" lon="34.924280000">
<time>2011-06-04T06:56:50Z</time>
</trkpt>
<trkpt lat="32.109315000" lon="34.924356667">
<time>2011-06-04T06:56:55Z</time>
</trkpt>
<trkpt lat="32.109298333" lon="34.924496667">
<time>2011-06-04T06:57:00Z</time>
</trkpt>
<trkpt lat="32.109295000" lon="34.924613333">
<time>2011-06-04T06:57:05Z</time>
</trkpt>
<trkpt lat="32.109295000" lon="34.924810000">
<time>2011-06-04T06:57:10Z</time>
</trkpt>
<trkpt lat="32.109293333" lon="34.924988333">
<time>2011-06-04T06:57:15Z</time>
</trkpt>
<trkpt lat="32.109296667" lon="34.925170000">
<time>2011-06-04T06:57:20Z</time>
</trkpt>
<trkpt lat="32.109306667" lon="34.925363333">
<time>2011-06-04T06:57:25Z</time>
</trkpt>
<trkpt lat="32.109331667" lon="34.925523333">
<time>2011-06-04T06:57:30Z</time>
</trkpt>
<trkpt lat="32.109390000" lon="34.925770000">
<time>2011-06-04T06:57:35Z</time>
</trkpt>
<trkpt lat="32.109435000" lon="34.925978333">
<time>2011-06-04T06:57:40Z</time>
</trkpt>
<trkpt lat="32.109476667" lon="34.926180000">
<time>2011-06-04T06:57:45Z</time>
</trkpt>
<trkpt lat="32.109505000" lon="34.926361667">
<time>2011-06-04T06:57:50Z</time>
</trkpt>
<trkpt lat="32.109530000" lon="34.926518333">
<time>2011-06-04T06:57:55Z</time>
</trkpt>
<trkpt lat="32.109566667" lon="34.926751667">
<time>2011-06-04T06:58:00Z</time>
</trkpt>
<trkpt lat="32.109610000" lon="34.926965000">
<time>2011-06-04T06:58:05Z</time>
</trkpt>
<trkpt lat="32.109643333" lon="34.927178333">
<time>2011-06-04T06:58:10Z</time>
</trkpt>
<trkpt lat="32.109675000" lon="34.927353333">
<time>2011-06-04T06:58:15Z</time>
</trkpt>
<trkpt lat="32.109701667" lon="34.927611667">
<time>2011-06-04T06:58:20Z</time>
</trkpt>
<trkpt lat="32.109676667" lon="34.927811667">
<time>2011-06-04T06:58:25Z</time>
</trkpt>
<trkpt lat="32.109621667" lon="34.927983333">
<time>2011-06-04T06:58:30Z</time>
</trkpt>
<trkpt lat="32.109591667" lon="34.928078333">
<time>2011-06-04T06:58:35Z</time>
</trkpt>
<trkpt lat="32.109630000" lon="34.928216667">
<time>2011-06-04T06:58:40Z</time>
</trkpt>
<trkpt lat="32.109578333" lon="34.928390000">
<time>2011-06-04T06:58:45Z</time>
</trkpt>
<trkpt lat="32.109538333" lon="34.928583333">
<time>2011-06-04T06:58:50Z</time>
</trkpt>
<trkpt lat="32.109500000" lon="34.928793333">
<time>2011-06-04T06:58:55Z</time>
</trkpt>
<trkpt lat="32.109456667" lon="34.928953333">
<time>2011-06-04T06:59:00Z</time>
</trkpt>
<trkpt lat="32.109405000" lon="34.929165000">
<time>2011-06-04T06:59:05Z</time>
</trkpt>
<trkpt lat="32.109358333" lon="34.929428333">
<time>2011-06-04T06:59:10Z</time>
</trkpt>
<trkpt lat="32.109311667" lon="34.929650000">
<time>2011-06-04T06:59:15Z</time>
</trkpt>
<trkpt lat="32.109276667" lon="34.929881667">
<time>2011-06-04T06:59:20Z</time>
</trkpt>
<trkpt lat="32.109225000" lon="34.930116667">
<time>2011-06-04T06:59:25Z</time>
</trkpt>
<trkpt lat="32.109175000" lon="34.930361667">
<time>2011-06-04T06:59:30Z</time>
</trkpt>
<trkpt lat="32.109116667" lon="34.930613333">
<time>2011-06-04T06:59:35Z</time>
</trkpt>
<trkpt lat="32.109071667" lon="34.930863333">
<time>2011-06-04T06:59:40Z</time>
</trkpt>
<trkpt lat="32.109021667" lon="34.931058333">
<time>2011-06-04T06:59:45Z</time>
</trkpt>
<trkpt lat="32.108965000" lon="34.931348333">
<time>2011-06-04T06:59:50Z</time>
</trkpt>
<trkpt lat="32.108926667" lon="34.931575000">
<time>2011-06-04T06:59:55Z</time>
</trkpt>
<trkpt lat="32.108876667" lon="34.931803333">
<time>2011-06-04T07:00:00Z</time>
</trkpt>
<trkpt lat="32.108835000" lon="34.932035000">
<time>2011-06-04T07:00:05Z</time>
</trkpt>
<trkpt lat="32.108796667" lon="34.932226667">
<time>2011-06-04T07:00:10Z</time>
</trkpt>
<trkpt lat="32.108740000" lon="34.932515000">
<time>2011-06-04T07:00:15Z</time>
</trkpt>
<trkpt lat="32.108690000" lon="34.932765000">
<time>2011-06-04T07:00:20Z</time>
</trkpt>
<trkpt lat="32.108631667" lon="34.933001667">
<time>2011-06-04T07:00:25Z</time>
</trkpt>
<trkpt lat="32.108591667" lon="34.933196667">
<time>2011-06-04T07:00:30Z</time>
</trkpt>
<trkpt lat="32.108533333" lon="34.933478333">
<time>2011-06-04T07:00:35Z</time>
</trkpt>
<trkpt lat="32.108440000" lon="34.933705000">
<time>2011-06-04T07:00:40Z</time>
</trkpt>
<trkpt lat="32.108328333" lon="34.933920000">
<time>2011-06-04T07:00:45Z</time>
</trkpt>
<trkpt lat="32.108188333" lon="34.934123333">
<time>2011-06-04T07:00:50Z</time>
</trkpt>
<trkpt lat="32.108055000" lon="34.934268333">
<time>2011-06-04T07:00:55Z</time>
</trkpt>
<trkpt lat="32.107820000" lon="34.934431667">
<time>2011-06-04T07:01:00Z</time>
</trkpt>
<trkpt lat="32.107598333" lon="34.934493333">
<time>2011-06-04T07:01:05Z</time>
</trkpt>
<trkpt lat="32.107355000" lon="34.934501667">
<time>2011-06-04T07:01:10Z</time>
</trkpt>
<trkpt lat="32.107138333" lon="34.934508333">
<time>2011-06-04T07:01:15Z</time>
</trkpt>
<trkpt lat="32.106936667" lon="34.934496667">
<time>2011-06-04T07:01:20Z</time>
</trkpt>
<trkpt lat="32.106726667" lon="34.934495000">
<time>2011-06-04T07:01:25Z</time>
</trkpt>
<trkpt lat="32.106523333" lon="34.934508333">
<time>2011-06-04T07:01:30Z</time>
</trkpt>
<trkpt lat="32.106338333" lon="34.934525000">
<time>2011-06-04T07:01:35Z</time>
</trkpt>
<trkpt lat="32.106195000" lon="34.934543333">
<time>2011-06-04T07:01:40Z</time>
</trkpt>
<trkpt lat="32.105943333" lon="34.934565000">
<time>2011-06-04T07:01:45Z</time>
</trkpt>
<trkpt lat="32.105726667" lon="34.934578333">
<time>2011-06-04T07:01:50Z</time>
</trkpt>
<trkpt lat="32.105520000" lon="34.934561667">
<time>2011-06-04T07:01:55Z</time>
</trkpt>
<trkpt lat="32.105361667" lon="34.934536667">
<time>2011-06-04T07:02:00Z</time>
</trkpt>
<trkpt lat="32.105155000" lon="34.934498333">
<time>2011-06-04T07:02:05Z</time>
</trkpt>
<trkpt lat="32.104893333" lon="34.934468333">
<time>2011-06-04T07:02:10Z</time>
</trkpt>
<trkpt lat="32.104676667" lon="34.934453333">
<time>2011-06-04T07:02:15Z</time>
</trkpt>
<trkpt lat="32.104481667" lon="34.934443333">
<time>2011-06-04T07:02:20Z</time>
</trkpt>
<trkpt lat="32.104328333" lon="34.934435000">
<time>2011-06-04T07:02:25Z</time>
</trkpt>
<trkpt lat="32.104088333" lon="34.934411667">
<time>2011-06-04T07:02:30Z</time>
</trkpt>
<trkpt lat="32.103890000" lon="34.934365000">
<time>2011-06-04T07:02:35Z</time>
</trkpt>
<trkpt lat="32.103701667" lon="34.934276667">
<time>2011-06-04T07:02:40Z</time>
</trkpt>
<trkpt lat="32.103518333" lon="34.934135000">
<time>2011-06-04T07:02:45Z</time>
</trkpt>
<trkpt lat="32.103345000" lon="34.933956667">
<time>2011-06-04T07:02:50Z</time>
</trkpt>
<trkpt lat="32.103175000" lon="34.933773333">
<time>2011-06-04T07:02:55Z</time>
</trkpt>
<trkpt lat="32.102990000" lon="34.933605000">
<time>2011-06-04T07:03:00Z</time>
</trkpt>
<trkpt lat="32.102815000" lon="34.933440000">
<time>2011-06-04T07:03:05Z</time>
</trkpt>
<trkpt lat="32.102673333" lon="34.933301667">
<time>2011-06-04T07:03:10Z</time>
</trkpt>
<trkpt lat="32.102486667" lon="34.933125000">
<time>2011-06-04T07:03:15Z</time>
</trkpt>
<trkpt lat="32.102271667" lon="34.932901667">
<time>2011-06-04T07:03:20Z</time>
</trkpt>
<trkpt lat="32.102091667" lon="34.932730000">
<time>2011-06-04T07:03:25Z</time>
</trkpt>
<trkpt lat="32.101910000" lon="34.932536667">
<time>2011-06-04T07:03:30Z</time>
</trkpt>
<trkpt lat="32.101778333" lon="34.932326667">
<time>2011-06-04T07:03:35Z</time>
</trkpt>
<trkpt lat="32.101646667" lon="34.932218333">
<time>2011-06-04T07:03:40Z</time>
</trkpt>
<trkpt lat="32.101473333" lon="34.932265000">
<time>2011-06-04T07:03:45Z</time>
</trkpt>
<trkpt lat="32.101316667" lon="34.932320000">
<time>2011-06-04T07:03:50Z</time>
</trkpt>
<trkpt lat="32.101190000" lon="34.932340000">
<time>2011-06-04T07:03:55Z</time>
</trkpt>
<trkpt lat="32.101021667" lon="34.932435000">
<time>2011-06-04T07:04:00Z</time>
</trkpt>
<trkpt lat="32.100891667" lon="34.932516667">
<time>2011-06-04T07:04:05Z</time>
</trkpt>
<trkpt lat="32.100773333" lon="34.932566667">
<time>2011-06-04T07:04:10Z</time>
</trkpt>
<trkpt lat="32.100683333" lon="34.932558333">
<time>2011-06-04T07:04:15Z</time>
</trkpt>
<trkpt lat="32.100620000" lon="34.932558333">
<time>2011-06-04T07:04:20Z</time>
</trkpt>
<trkpt lat="32.100513333" lon="34.932695000">
<time>2011-06-04T07:04:25Z</time>
</trkpt>
<trkpt lat="32.100426667" lon="34.932820000">
<time>2011-06-04T07:04:30Z</time>
</trkpt>
<trkpt lat="32.100328333" lon="34.932948333">
<time>2011-06-04T07:04:35Z</time>
</trkpt>
<trkpt lat="32.100216667" lon="34.933071667">
<time>2011-06-04T07:04:40Z</time>
</trkpt>
<trkpt lat="32.100083333" lon="34.933151667">
<time>2011-06-04T07:04:45Z</time>
</trkpt>
<trkpt lat="32.099933333" lon="34.933166667">
<time>2011-06-04T07:04:50Z</time>
</trkpt>
<trkpt lat="32.099778333" lon="34.933140000">
<time>2011-06-04T07:04:55Z</time>
</trkpt>
<trkpt lat="32.099630000" lon="34.933100000">
<time>2011-06-04T07:05:00Z</time>
</trkpt>
<trkpt lat="32.099515000" lon="34.933068333">
<time>2011-06-04T07:05:05Z</time>
</trkpt>
<trkpt lat="32.099383333" lon="34.933128333">
<time>2011-06-04T07:05:10Z</time>
</trkpt>
<trkpt lat="32.099278333" lon="34.933231667">
<time>2011-06-04T07:05:15Z</time>
</trkpt>
<trkpt lat="32.099131667" lon="34.933268333">
<time>2011-06-04T07:05:20Z</time>
</trkpt>
<trkpt lat="32.098988333" lon="34.933341667">
<time>2011-06-04T07:05:25Z</time>
</trkpt>
<trkpt lat="32.098865000" lon="34.933458333">
<time>2011-06-04T07:05:30Z</time>
</trkpt>
<trkpt lat="32.098763333" lon="34.933603333">
<time>2011-06-04T07:05:35Z</time>
</trkpt>
<trkpt lat="32.098676667" lon="34.933755000">
<time>2011-06-04T07:05:40Z</time>
</trkpt>
<trkpt lat="32.098606667" lon="34.933913333">
<time>2011-06-04T07:05:45Z</time>
</trkpt>
<trkpt lat="32.098556667" lon="34.934051667">
<time>2011-06-04T07:05:50Z</time>
</trkpt>
<trkpt lat="32.098450000" lon="34.934233333">
<time>2011-06-04T07:05:55Z</time>
</trkpt>
<trkpt lat="32.098313333" lon="34.934271667">
<time>2011-06-04T07:06:00Z</time>
</trkpt>
<trkpt lat="32.098156667" lon="34.934260000">
<time>2011-06-04T07:06:05Z</time>
</trkpt>
<trkpt lat="32.097991667" lon="34.934251667">
<time>2011-06-04T07:06:10Z</time>
</trkpt>
<trkpt lat="32.097813333" lon="34.934240000">
<time>2011-06-04T07:06:15Z</time>
</trkpt>
<trkpt lat="32.097635000" lon="34.934231667">
<time>2011-06-04T07:06:20Z</time>
</trkpt>
<trkpt lat="32.097453333" lon="34.934201667">
<time>2011-06-04T07:06:25Z</time>
</trkpt>
<trkpt lat="32.097265000" lon="34.934188333">
<time>2011-06-04T07:06:30Z</time>
</trkpt>
<trkpt lat="32.097148333" lon="34.934141667">
<time>2011-06-04T07:06:35Z</time>
</trkpt>
<trkpt lat="32.096981667" lon="34.934050000">
<time>2011-06-04T07:06:40Z</time>
</trkpt>
<trkpt lat="32.096853333" lon="34.933995000">
<time>2011-06-04T07:06:45Z</time>
</trkpt>
<trkpt lat="32.096685000" lon="34.933998333">
<time>2011-06-04T07:06:50Z</time>
</trkpt>
<trkpt lat="32.096546667" lon="34.933895000">
<time>2011-06-04T07:06:55Z</time>
</trkpt>
<trkpt lat="32.096418333" lon="34.933810000">
<time>2011-06-04T07:07:00Z</time>
</trkpt>
<trkpt lat="32.096201667" lon="34.933811667">
<time>2011-06-04T07:07:05Z</time>
</trkpt>
<trkpt lat="32.096018333" lon="34.933820000">
<time>2011-06-04T07:07:10Z</time>
</trkpt>
<trkpt lat="32.095833333" lon="34.933825000">
<time>2011-06-04T07:07:15Z</time>
</trkpt>
<trkpt lat="32.095648333" lon="34.933826667">
<time>2011-06-04T07:07:20Z</time>
</trkpt>
<trkpt lat="32.095466667" lon="34.933821667">
<time>2011-06-04T07:07:25Z</time>
</trkpt>
<trkpt lat="32.095288333" lon="34.933811667">
<time>2011-06-04T07:07:30Z</time>
</trkpt>
<trkpt lat="32.095110000" lon="34.933796667">
<time>2011-06-04T07:07:35Z</time>
</trkpt>
<trkpt lat="32.094936667" lon="34.933776667">
<time>2011-06-04T07:07:40Z</time>
</trkpt>
<trkpt lat="32.094798333" lon="34.933763333">
<time>2011-06-04T07:07:45Z</time>
</trkpt>
<trkpt lat="32.094585000" lon="34.933731667">
<time>2011-06-04T07:07:50Z</time>
</trkpt>
<trkpt lat="32.094401667" lon="34.933708333">
<time>2011-06-04T07:07:55Z</time>
</trkpt>
<trkpt lat="32.094218333" lon="34.933688333">
<time>2011-06-04T07:08:00Z</time>
</trkpt>
<trkpt lat="32.094035000" lon="34.933673333">
<time>2011-06-04T07:08:05Z</time>
</trkpt>
<trkpt lat="32.093850000" lon="34.933648333">
<time>2011-06-04T07:08:10Z</time>
</trkpt>
<trkpt lat="32.093660000" lon="34.933630000">
<time>2011-06-04T07:08:15Z</time>
</trkpt>
<trkpt lat="32.093466667" lon="34.933613333">
<time>2011-06-04T07:08:20Z</time>
</trkpt>
<trkpt lat="32.093275000" lon="34.933601667">
<time>2011-06-04T07:08:25Z</time>
</trkpt>
<trkpt lat="32.093123333" lon="34.933591667">
<time>2011-06-04T07:08:30Z</time>
</trkpt>
<trkpt lat="32.092895000" lon="34.933570000">
<time>2011-06-04T07:08:35Z</time>
</trkpt>
<trkpt lat="32.092703333" lon="34.933546667">
<time>2011-06-04T07:08:40Z</time>
</trkpt>
<trkpt lat="32.092518333" lon="34.933513333">
<time>2011-06-04T07:08:45Z</time>
</trkpt>
<trkpt lat="32.092335000" lon="34.933516667">
<time>2011-06-04T07:08:50Z</time>
</trkpt>
<trkpt lat="32.092195000" lon="34.933495000">
<time>2011-06-04T07:08:55Z</time>
</trkpt>
<trkpt lat="32.091980000" lon="34.933436667">
<time>2011-06-04T07:09:00Z</time>
</trkpt>
<trkpt lat="32.091780000" lon="34.933366667">
<time>2011-06-04T07:09:05Z</time>
</trkpt>
<trkpt lat="32.091568333" lon="34.933303333">
<time>2011-06-04T07:09:10Z</time>
</trkpt>
<trkpt lat="32.091356667" lon="34.933250000">
<time>2011-06-04T07:09:15Z</time>
</trkpt>
<trkpt lat="32.091156667" lon="34.933265000">
<time>2011-06-04T07:09:20Z</time>
</trkpt>
<trkpt lat="32.090973333" lon="34.933290000">
<time>2011-06-04T07:09:25Z</time>
</trkpt>
<trkpt lat="32.090790000" lon="34.933243333">
<time>2011-06-04T07:09:30Z</time>
</trkpt>
<trkpt lat="32.090595000" lon="34.933211667">
<time>2011-06-04T07:09:35Z</time>
</trkpt>
<trkpt lat="32.090438333" lon="34.933201667">
<time>2011-06-04T07:09:40Z</time>
</trkpt>
<trkpt lat="32.090205000" lon="34.933196667">
<time>2011-06-04T07:09:45Z</time>
</trkpt>
<trkpt lat="32.090013333" lon="34.933185000">
<time>2011-06-04T07:09:50Z</time>
</trkpt>
<trkpt lat="32.089821667" lon="34.933165000">
<time>2011-06-04T07:09:55Z</time>
</trkpt>
<trkpt lat="32.089668333" lon="34.933146667">
<time>2011-06-04T07:10:00Z</time>
</trkpt>
<trkpt lat="32.089476667" lon="34.933125000">
<time>2011-06-04T07:10:05Z</time>
</trkpt>
<trkpt lat="32.089235000" lon="34.933096667">
<time>2011-06-04T07:10:10Z</time>
</trkpt>
<trkpt lat="32.089040000" lon="34.933073333">
<time>2011-06-04T07:10:15Z</time>
</trkpt>
<trkpt lat="32.088848333" lon="34.933048333">
<time>2011-06-04T07:10:20Z</time>
</trkpt>
<trkpt lat="32.088698333" lon="34.933030000">
<time>2011-06-04T07:10:25Z</time>
</trkpt>
<trkpt lat="32.088483333" lon="34.932988333">
<time>2011-06-04T07:10:30Z</time>
</trkpt>
<trkpt lat="32.088298333" lon="34.932975000">
<time>2011-06-04T07:10:35Z</time>
</trkpt>
<trkpt lat="32.088108333" lon="34.932965000">
<time>2011-06-04T07:10:40Z</time>
</trkpt>
<trkpt lat="32.087926667" lon="34.932951667">
<time>2011-06-04T07:10:45Z</time>
</trkpt>
<trkpt lat="32.087776667" lon="34.932941667">
<time>2011-06-04T07:10:50Z</time>
</trkpt>
<trkpt lat="32.087553333" lon="34.932916667">
<time>2011-06-04T07:10:55Z</time>
</trkpt>
<trkpt lat="32.087403333" lon="34.932896667">
<time>2011-06-04T07:11:00Z</time>
</trkpt>
<trkpt lat="32.087178333" lon="34.932861667">
<time>2011-06-04T07:11:05Z</time>
</trkpt>
<trkpt lat="32.086995000" lon="34.932840000">
<time>2011-06-04T07:11:10Z</time>
</trkpt>
<trkpt lat="32.086813333" lon="34.932811667">
<time>2011-06-04T07:11:15Z</time>
</trkpt>
<trkpt lat="32.086671667" lon="34.932783333">
<time>2011-06-04T07:11:20Z</time>
</trkpt>
<trkpt lat="32.086460000" lon="34.932735000">
<time>2011-06-04T07:11:25Z</time>
</trkpt>
<trkpt lat="32.086295000" lon="34.932730000">
<time>2011-06-04T07:11:30Z</time>
</trkpt>
<trkpt lat="32.086166667" lon="34.932780000">
<time>2011-06-04T07:11:35Z</time>
</trkpt>
<trkpt lat="32.085960000" lon="34.932781667">
<time>2011-06-04T07:11:40Z</time>
</trkpt>
<trkpt lat="32.085788333" lon="34.932733333">
<time>2011-06-04T07:11:45Z</time>
</trkpt>
<trkpt lat="32.085611667" lon="34.932670000">
<time>2011-06-04T07:11:50Z</time>
</trkpt>
<trkpt lat="32.085460000" lon="34.932641667">
<time>2011-06-04T07:11:55Z</time>
</trkpt>
<trkpt lat="32.085231667" lon="34.932611667">
<time>2011-06-04T07:12:00Z</time>
</trkpt>
<trkpt lat="32.085043333" lon="34.932588333">
<time>2011-06-04T07:12:05Z</time>
</trkpt>
<trkpt lat="32.084846667" lon="34.932568333">
<time>2011-06-04T07:12:10Z</time>
</trkpt>
<trkpt lat="32.084650000" lon="34.932528333">
<time>2011-06-04T07:12:15Z</time>
</trkpt>
<trkpt lat="32.084485000" lon="34.932491667">
<time>2011-06-04T07:12:20Z</time>
</trkpt>
<trkpt lat="32.084216667" lon="34.932440000">
<time>2011-06-04T07:12:25Z</time>
</trkpt>
<trkpt lat="32.084005000" lon="34.932386667">
<time>2011-06-04T07:12:30Z</time>
</trkpt>
<trkpt lat="32.083798333" lon="34.932360000">
<time>2011-06-04T07:12:35Z</time>
</trkpt>
<trkpt lat="32.083630000" lon="34.932368333">
<time>2011-06-04T07:12:40Z</time>
</trkpt>
<trkpt lat="32.083420000" lon="34.932368333">
<time>2011-06-04T07:12:45Z</time>
</trkpt>
<trkpt lat="32.083175000" lon="34.932360000">
<time>2011-06-04T07:12:50Z</time>
</trkpt>
<trkpt lat="32.082965000" lon="34.932338333">
<time>2011-06-04T07:12:55Z</time>
</trkpt>
<trkpt lat="32.082758333" lon="34.932318333">
<time>2011-06-04T07:13:00Z</time>
</trkpt>
<trkpt lat="32.082563333" lon="34.932305000">
<time>2011-06-04T07:13:05Z</time>
</trkpt>
<trkpt lat="32.082355000" lon="34.932265000">
<time>2011-06-04T07:13:10Z</time>
</trkpt>
<trkpt lat="32.082128333" lon="34.932220000">
<time>2011-06-04T07:13:15Z</time>
</trkpt>
<trkpt lat="32.081901667" lon="34.932175000">
<time>2011-06-04T07:13:20Z</time>
</trkpt>
<trkpt lat="32.081723333" lon="34.932153333">
<time>2011-06-04T07:13:25Z</time>
</trkpt>
<trkpt lat="32.081515000" lon="34.932125000">
<time>2011-06-04T07:13:30Z</time>
</trkpt>
<trkpt lat="32.081253333" lon="34.932083333">
<time>2011-06-04T07:13:35Z</time>
</trkpt>
<trkpt lat="32.081023333" lon="34.932056667">
<time>2011-06-04T07:13:40Z</time>
</trkpt>
<trkpt lat="32.080788333" lon="34.932021667">
<time>2011-06-04T07:13:45Z</time>
</trkpt>
<trkpt lat="32.080596667" lon="34.931993333">
<time>2011-06-04T07:13:50Z</time>
</trkpt>
<trkpt lat="32.080316667" lon="34.931953333">
<time>2011-06-04T07:13:55Z</time>
</trkpt>
<trkpt lat="32.080100000" lon="34.931925000">
<time>2011-06-04T07:14:00Z</time>
</trkpt>
<trkpt lat="32.079893333" lon="34.931905000">
<time>2011-06-04T07:14:05Z</time>
</trkpt>
<trkpt lat="32.079708333" lon="34.931885000">
<time>2011-06-04T07:14:10Z</time>
</trkpt>
<trkpt lat="32.079503333" lon="34.931870000">
<time>2011-06-04T07:14:15Z</time>
</trkpt>
<trkpt lat="32.079235000" lon="34.931825000">
<time>2011-06-04T07:14:20Z</time>
</trkpt>
<trkpt lat="32.078978333" lon="34.931771667">
<time>2011-06-04T07:14:25Z</time>
</trkpt>
<trkpt lat="32.078805000" lon="34.931706667">
<time>2011-06-04T07:14:30Z</time>
</trkpt>
<trkpt lat="32.078690000" lon="34.931646667">
<time>2011-06-04T07:14:35Z</time>
</trkpt>
<trkpt lat="32.078485000" lon="34.931561667">
<time>2011-06-04T07:14:40Z</time>
</trkpt>
<trkpt lat="32.078296667" lon="34.931485000">
<time>2011-06-04T07:14:45Z</time>
</trkpt>
<trkpt lat="32.078086667" lon="34.931423333">
<time>2011-06-04T07:14:50Z</time>
</trkpt>
<trkpt lat="32.077875000" lon="34.931365000">
<time>2011-06-04T07:14:55Z</time>
</trkpt>
<trkpt lat="32.077663333" lon="34.931300000">
<time>2011-06-04T07:15:00Z</time>
</trkpt>
<trkpt lat="32.077448333" lon="34.931253333">
<time>2011-06-04T07:15:05Z</time>
</trkpt>
<trkpt lat="32.077225000" lon="34.931213333">
<time>2011-06-04T07:15:10Z</time>
</trkpt>
<trkpt lat="32.076996667" lon="34.931185000">
<time>2011-06-04T07:15:15Z</time>
</trkpt>
<trkpt lat="32.076811667" lon="34.931168333">
<time>2011-06-04T07:15:20Z</time>
</trkpt>
<trkpt lat="32.076523333" lon="34.931160000">
<time>2011-06-04T07:15:25Z</time>
</trkpt>
<trkpt lat="32.076298333" lon="34.931175000">
<time>2011-06-04T07:15:30Z</time>
</trkpt>
<trkpt lat="32.076070000" lon="34.931191667">
<time>2011-06-04T07:15:35Z</time>
</trkpt>
<trkpt lat="32.075840000" lon="34.931215000">
<time>2011-06-04T07:15:40Z</time>
</trkpt>
<trkpt lat="32.075605000" lon="34.931253333">
<time>2011-06-04T07:15:45Z</time>
</trkpt>
<trkpt lat="32.075363333" lon="34.931310000">
<time>2011-06-04T07:15:50Z</time>
</trkpt>
<trkpt lat="32.075126667" lon="34.931366667">
<time>2011-06-04T07:15:55Z</time>
</trkpt>
<trkpt lat="32.074901667" lon="34.931430000">
<time>2011-06-04T07:16:00Z</time>
</trkpt>
<trkpt lat="32.074725000" lon="34.931468333">
<time>2011-06-04T07:16:05Z</time>
</trkpt>
<trkpt lat="32.074468333" lon="34.931535000">
<time>2011-06-04T07:16:10Z</time>
</trkpt>
<trkpt lat="32.074251667" lon="34.931590000">
<time>2011-06-04T07:16:15Z</time>
</trkpt>
<trkpt lat="32.074035000" lon="34.931643333">
<time>2011-06-04T07:16:20Z</time>
</trkpt>
<trkpt lat="32.073821667" lon="34.931698333">
<time>2011-06-04T07:16:25Z</time>
</trkpt>
<trkpt lat="32.073650000" lon="34.931748333">
<time>2011-06-04T07:16:30Z</time>
</trkpt>
<trkpt lat="32.073441667" lon="34.931791667">
<time>2011-06-04T07:16:35Z</time>
</trkpt>
<trkpt lat="32.073186667" lon="34.931833333">
<time>2011-06-04T07:16:40Z</time>
</trkpt>
<trkpt lat="32.072968333" lon="34.931890000">
<time>2011-06-04T07:16:45Z</time>
</trkpt>
<trkpt lat="32.072745000" lon="34.931953333">
<time>2011-06-04T07:16:50Z</time>
</trkpt>
<trkpt lat="32.072566667" lon="34.931998333">
<time>2011-06-04T07:16:55Z</time>
</trkpt>
<trkpt lat="32.072308333" lon="34.932043333">
<time>2011-06-04T07:17:00Z</time>
</trkpt>
<trkpt lat="32.072095000" lon="34.932086667">
<time>2011-06-04T07:17:05Z</time>
</trkpt>
<trkpt lat="32.071873333" lon="34.932138333">
<time>2011-06-04T07:17:10Z</time>
</trkpt>
<trkpt lat="32.071715000" lon="34.932173333">
<time>2011-06-04T07:17:15Z</time>
</trkpt>
<trkpt lat="32.071470000" lon="34.932256667">
<time>2011-06-04T07:17:20Z</time>
</trkpt>
<trkpt lat="32.071251667" lon="34.932331667">
<time>2011-06-04T07:17:25Z</time>
</trkpt>
<trkpt lat="32.071046667" lon="34.932396667">
<time>2011-06-04T07:17:30Z</time>
</trkpt>
<trkpt lat="32.070848333" lon="34.932436667">
<time>2011-06-04T07:17:35Z</time>
</trkpt>
<trkpt lat="32.070656667" lon="34.932475000">
<time>2011-06-04T07:17:40Z</time>
</trkpt>
<trkpt lat="32.070456667" lon="34.932508333">
<time>2011-06-04T07:17:45Z</time>
</trkpt>
<trkpt lat="32.070241667" lon="34.932500000">
<time>2011-06-04T07:17:50Z</time>
</trkpt>
<trkpt lat="32.070033333" lon="34.932433333">
<time>2011-06-04T07:17:55Z</time>
</trkpt>
<trkpt lat="32.069866667" lon="34.932441667">
<time>2011-06-04T07:18:00Z</time>
</trkpt>
<trkpt lat="32.069663333" lon="34.932498333">
<time>2011-06-04T07:18:05Z</time>
</trkpt>
<trkpt lat="32.069396667" lon="34.932573333">
<time>2011-06-04T07:18:10Z</time>
</trkpt>
<trkpt lat="32.069168333" lon="34.932633333">
<time>2011-06-04T07:18:15Z</time>
</trkpt>
<trkpt lat="32.068950000" lon="34.932678333">
<time>2011-06-04T07:18:20Z</time>
</trkpt>
<trkpt lat="32.068733333" lon="34.932726667">
<time>2011-06-04T07:18:25Z</time>
</trkpt>
<trkpt lat="32.068518333" lon="34.932780000">
<time>2011-06-04T07:18:30Z</time>
</trkpt>
<trkpt lat="32.068305000" lon="34.932830000">
<time>2011-06-04T07:18:35Z</time>
</trkpt>
<trkpt lat="32.068100000" lon="34.932851667">
<time>2011-06-04T07:18:40Z</time>
</trkpt>
<trkpt lat="32.067940000" lon="34.932830000">
<time>2011-06-04T07:18:45Z</time>
</trkpt>
<trkpt lat="32.067660000" lon="34.932875000">
<time>2011-06-04T07:18:50Z</time>
</trkpt>
<trkpt lat="32.067428333" lon="34.932911667">
<time>2011-06-04T07:18:55Z</time>
</trkpt>
<trkpt lat="32.067200000" lon="34.932928333">
<time>2011-06-04T07:19:00Z</time>
</trkpt>
<trkpt lat="32.066981667" lon="34.932966667">
<time>2011-06-04T07:19:05Z</time>
</trkpt>
<trkpt lat="32.066803333" lon="34.932998333">
<time>2011-06-04T07:19:10Z</time>
</trkpt>
<trkpt lat="32.066540000" lon="34.933046667">
<time>2011-06-04T07:19:15Z</time>
</trkpt>
<trkpt lat="32.066318333" lon="34.933078333">
<time>2011-06-04T07:19:20Z</time>
</trkpt>
<trkpt lat="32.066095000" lon="34.933045000">
<time>2011-06-04T07:19:25Z</time>
</trkpt>
<trkpt lat="32.065916667" lon="34.933028333">
<time>2011-06-04T07:19:30Z</time>
</trkpt>
<trkpt lat="32.065700000" lon="34.933070000">
<time>2011-06-04T07:19:35Z</time>
</trkpt>
<trkpt lat="32.065441667" lon="34.933115000">
<time>2011-06-04T07:19:40Z</time>
</trkpt>
<trkpt lat="32.065223333" lon="34.933153333">
<time>2011-06-04T07:19:45Z</time>
</trkpt>
<trkpt lat="32.065000000" lon="34.933178333">
<time>2011-06-04T07:19:50Z</time>
</trkpt>
<trkpt lat="32.064816667" lon="34.933186667">
<time>2011-06-04T07:19:55Z</time>
</trkpt>
<trkpt lat="32.064555000" lon="34.933223333">
<time>2011-06-04T07:20:00Z</time>
</trkpt>
<trkpt lat="32.064350000" lon="34.933251667">
<time>2011-06-04T07:20:05Z</time>
</trkpt>
<trkpt lat="32.064131667" lon="34.933286667">
<time>2011-06-04T07:20:10Z</time>
</trkpt>
<trkpt lat="32.063915000" lon="34.933315000">
<time>2011-06-04T07:20:15Z</time>
</trkpt>
<trkpt lat="32.063701667" lon="34.933338333">
<time>2011-06-04T07:20:20Z</time>
</trkpt>
<trkpt lat="32.063485000" lon="34.933350000">
<time>2011-06-04T07:20:25Z</time>
</trkpt>
<trkpt lat="32.063275000" lon="34.933370000">
<time>2011-06-04T07:20:30Z</time>
</trkpt>
<trkpt lat="32.063078333" lon="34.933430000">
<time>2011-06-04T07:20:35Z</time>
</trkpt>
<trkpt lat="32.062915000" lon="34.933510000">
<time>2011-06-04T07:20:40Z</time>
</trkpt>
<trkpt lat="32.062673333" lon="34.933528333">
<time>2011-06-04T07:20:45Z</time>
</trkpt>
<trkpt lat="32.062505000" lon="34.933536667">
<time>2011-06-04T07:20:50Z</time>
</trkpt>
<trkpt lat="32.062256667" lon="34.933555000">
<time>2011-06-04T07:20:55Z</time>
</trkpt>
<trkpt lat="32.062036667" lon="34.933565000">
<time>2011-06-04T07:21:00Z</time>
</trkpt>
<trkpt lat="32.061865000" lon="34.933581667">
<time>2011-06-04T07:21:05Z</time>
</trkpt>
<trkpt lat="32.061653333" lon="34.933616667">
<time>2011-06-04T07:21:10Z</time>
</trkpt>
<trkpt lat="32.061401667" lon="34.933656667">
<time>2011-06-04T07:21:15Z</time>
</trkpt>
<trkpt lat="32.061200000" lon="34.933683333">
<time>2011-06-04T07:21:20Z</time>
</trkpt>
<trkpt lat="32.061041667" lon="34.933710000">
<time>2011-06-04T07:21:25Z</time>
</trkpt>
<trkpt lat="32.060808333" lon="34.933746667">
<time>2011-06-04T07:21:30Z</time>
</trkpt>
<trkpt lat="32.060651667" lon="34.933763333">
<time>2011-06-04T07:21:35Z</time>
</trkpt>
<trkpt lat="32.060418333" lon="34.933785000">
<time>2011-06-04T07:21:40Z</time>
</trkpt>
<trkpt lat="32.060225000" lon="34.933808333">
<time>2011-06-04T07:21:45Z</time>
</trkpt>
<trkpt lat="32.060068333" lon="34.933825000">
<time>2011-06-04T07:21:50Z</time>
</trkpt>
<trkpt lat="32.059830000" lon="34.933850000">
<time>2011-06-04T07:21:55Z</time>
</trkpt>
<trkpt lat="32.059645000" lon="34.933915000">
<time>2011-06-04T07:22:00Z</time>
</trkpt>
<trkpt lat="32.059450000" lon="34.933968333">
<time>2011-06-04T07:22:05Z</time>
</trkpt>
<trkpt lat="32.059296667" lon="34.933995000">
<time>2011-06-04T07:22:10Z</time>
</trkpt>
<trkpt lat="32.059105000" lon="34.934010000">
<time>2011-06-04T07:22:15Z</time>
</trkpt>
<trkpt lat="32.058888333" lon="34.934011667">
<time>2011-06-04T07:22:20Z</time>
</trkpt>
<trkpt lat="32.058733333" lon="34.934020000">
<time>2011-06-04T07:22:25Z</time>
</trkpt>
<trkpt lat="32.058613333" lon="34.934041667">
<time>2011-06-04T07:22:30Z</time>
</trkpt>
<trkpt lat="32.058540000" lon="34.934086667">
<time>2011-06-04T07:22:35Z</time>
</trkpt>
<trkpt lat="32.058455000" lon="34.934113333">
<time>2011-06-04T07:22:40Z</time>
</trkpt>
<trkpt lat="32.058408333" lon="34.934103333">
<time>2011-06-04T07:22:45Z</time>
</trkpt>
<trkpt lat="32.058341667" lon="34.934093333">
<time>2011-06-04T07:22:50Z</time>
</trkpt>
<trkpt lat="32.058223333" lon="34.934095000">
<time>2011-06-04T07:22:55Z</time>
</trkpt>
<trkpt lat="32.058063333" lon="34.934118333">
<time>2011-06-04T07:23:00Z</time>
</trkpt>
<trkpt lat="32.057878333" lon="34.934156667">
<time>2011-06-04T07:23:05Z</time>
</trkpt>
<trkpt lat="32.057725000" lon="34.934188333">
<time>2011-06-04T07:23:10Z</time>
</trkpt>
<trkpt lat="32.057571667" lon="34.934221667">
<time>2011-06-04T07:23:15Z</time>
</trkpt>
<trkpt lat="32.057455000" lon="34.934245000">
<time>2011-06-04T07:23:20Z</time>
</trkpt>
<trkpt lat="32.057276667" lon="34.934276667">
<time>2011-06-04T07:23:25Z</time>
</trkpt>
<trkpt lat="32.057128333" lon="34.934301667">
<time>2011-06-04T07:23:30Z</time>
</trkpt>
<trkpt lat="32.056976667" lon="34.934325000">
<time>2011-06-04T07:23:35Z</time>
</trkpt>
<trkpt lat="32.056823333" lon="34.934346667">
<time>2011-06-04T07:23:40Z</time>
</trkpt>
<trkpt lat="32.056691667" lon="34.934365000">
<time>2011-06-04T07:23:45Z</time>
</trkpt>
<trkpt lat="32.056498333" lon="34.934390000">
<time>2011-06-04T07:23:50Z</time>
</trkpt>
<trkpt lat="32.056331667" lon="34.934403333">
<time>2011-06-04T07:23:55Z</time>
</trkpt>
<trkpt lat="32.056156667" lon="34.934418333">
<time>2011-06-04T07:24:00Z</time>
</trkpt>
<trkpt lat="32.056018333" lon="34.934430000">
<time>2011-06-04T07:24:05Z</time>
</trkpt>
<trkpt lat="32.055813333" lon="34.934450000">
<time>2011-06-04T07:24:10Z</time>
</trkpt>
<trkpt lat="32.055636667" lon="34.934465000">
<time>2011-06-04T07:24:15Z</time>
</trkpt>
<trkpt lat="32.055461667" lon="34.934480000">
<time>2011-06-04T07:24:20Z</time>
</trkpt>
<trkpt lat="32.055288333" lon="34.934496667">
<time>2011-06-04T07:24:25Z</time>
</trkpt>
<trkpt lat="32.055111667" lon="34.934513333">
<time>2011-06-04T07:24:30Z</time>
</trkpt>
<trkpt lat="32.054936667" lon="34.934531667">
<time>2011-06-04T07:24:35Z</time>
</trkpt>
<trkpt lat="32.054758333" lon="34.934558333">
<time>2011-06-04T07:24:40Z</time>
</trkpt>
<trkpt lat="32.054573333" lon="34.934580000">
<time>2011-06-04T07:24:45Z</time>
</trkpt>
<trkpt lat="32.054426667" lon="34.934600000">
<time>2011-06-04T07:24:50Z</time>
</trkpt>
<trkpt lat="32.054208333" lon="34.934631667">
<time>2011-06-04T07:24:55Z</time>
</trkpt>
<trkpt lat="32.054020000" lon="34.934661667">
<time>2011-06-04T07:25:00Z</time>
</trkpt>
<trkpt lat="32.053831667" lon="34.934686667">
<time>2011-06-04T07:25:05Z</time>
</trkpt>
<trkpt lat="32.053640000" lon="34.934715000">
<time>2011-06-04T07:25:10Z</time>
</trkpt>
<trkpt lat="32.053433333" lon="34.934745000">
<time>2011-06-04T07:25:15Z</time>
</trkpt>
<trkpt lat="32.053230000" lon="34.934781667">
<time>2011-06-04T07:25:20Z</time>
</trkpt>
<trkpt lat="32.053016667" lon="34.934818333">
<time>2011-06-04T07:25:25Z</time>
</trkpt>
<trkpt lat="32.052796667" lon="34.934861667">
<time>2011-06-04T07:25:30Z</time>
</trkpt>
<trkpt lat="32.052618333" lon="34.934893333">
<time>2011-06-04T07:25:35Z</time>
</trkpt>
<trkpt lat="32.052385000" lon="34.934931667">
<time>2011-06-04T07:25:40Z</time>
</trkpt>
<trkpt lat="32.052108333" lon="34.934976667">
<time>2011-06-04T07:25:45Z</time>
</trkpt>
<trkpt lat="32.051868333" lon="34.935008333">
<time>2011-06-04T07:25:50Z</time>
</trkpt>
<trkpt lat="32.051625000" lon="34.935036667">
<time>2011-06-04T07:25:55Z</time>
</trkpt>
<trkpt lat="32.051430000" lon="34.935058333">
<time>2011-06-04T07:26:00Z</time>
</trkpt>
<trkpt lat="32.051161667" lon="34.935085000">
<time>2011-06-04T07:26:05Z</time>
</trkpt>
<trkpt lat="32.050935000" lon="34.935113333">
<time>2011-06-04T07:26:10Z</time>
</trkpt>
<trkpt lat="32.050716667" lon="34.935145000">
<time>2011-06-04T07:26:15Z</time>
</trkpt>
<trkpt lat="32.050550000" lon="34.935178333">
<time>2011-06-04T07:26:20Z</time>
</trkpt>
<trkpt lat="32.050300000" lon="34.935215000">
<time>2011-06-04T07:26:25Z</time>
</trkpt>
<trkpt lat="32.050090000" lon="34.935251667">
<time>2011-06-04T07:26:30Z</time>
</trkpt>
<trkpt lat="32.049880000" lon="34.935278333">
<time>2011-06-04T07:26:35Z</time>
</trkpt>
<trkpt lat="32.049668333" lon="34.935305000">
<time>2011-06-04T07:26:40Z</time>
</trkpt>
<trkpt lat="32.049501667" lon="34.935316667">
<time>2011-06-04T07:26:45Z</time>
</trkpt>
<trkpt lat="32.049260000" lon="34.935345000">
<time>2011-06-04T07:26:50Z</time>
</trkpt>
<trkpt lat="32.049070000" lon="34.935370000">
<time>2011-06-04T07:26:55Z</time>
</trkpt>
<trkpt lat="32.048880000" lon="34.935388333">
<time>2011-06-04T07:27:00Z</time>
</trkpt>
<trkpt lat="32.048686667" lon="34.935405000">
<time>2011-06-04T07:27:05Z</time>
</trkpt>
<trkpt lat="32.048501667" lon="34.935411667">
<time>2011-06-04T07:27:10Z</time>
</trkpt>
<trkpt lat="32.048346667" lon="34.935450000">
<time>2011-06-04T07:27:15Z</time>
</trkpt>
<trkpt lat="32.048186667" lon="34.935486667">
<time>2011-06-04T07:27:20Z</time>
</trkpt>
<trkpt lat="32.048003333" lon="34.935521667">
<time>2011-06-04T07:27:25Z</time>
</trkpt>
<trkpt lat="32.047853333" lon="34.935543333">
<time>2011-06-04T07:27:30Z</time>
</trkpt>
<trkpt lat="32.047625000" lon="34.935571667">
<time>2011-06-04T07:27:35Z</time>
</trkpt>
<trkpt lat="32.047428333" lon="34.935595000">
<time>2011-06-04T07:27:40Z</time>
</trkpt>
<trkpt lat="32.047235000" lon="34.935615000">
<time>2011-06-04T07:27:45Z</time>
</trkpt>
<trkpt lat="32.047045000" lon="34.935638333">
<time>2011-06-04T07:27:50Z</time>
</trkpt>
<trkpt lat="32.046851667" lon="34.935665000">
<time>2011-06-04T07:27:55Z</time>
</trkpt>
<trkpt lat="32.046665000" lon="34.935681667">
<time>2011-06-04T07:28:00Z</time>
</trkpt>
<trkpt lat="32.046503333" lon="34.935688333">
<time>2011-06-04T07:28:05Z</time>
</trkpt>
<trkpt lat="32.046401667" lon="34.935696667">
<time>2011-06-04T07:28:10Z</time>
</trkpt>
<trkpt lat="32.046358333" lon="34.935698333">
<time>2011-06-04T07:28:15Z</time>
</trkpt>
<trkpt lat="32.046276667" lon="34.935735000">
<time>2011-06-04T07:28:20Z</time>
</trkpt>
<trkpt lat="32.046118333" lon="34.935800000">
<time>2011-06-04T07:28:25Z</time>
</trkpt>
<trkpt lat="32.045985000" lon="34.935808333">
<time>2011-06-04T07:28:30Z</time>
</trkpt>
<trkpt lat="32.045850000" lon="34.935815000">
<time>2011-06-04T07:28:35Z</time>
</trkpt>
<trkpt lat="32.045756667" lon="34.935813333">
<time>2011-06-04T07:28:40Z</time>
</trkpt>
<trkpt lat="32.045631667" lon="34.935821667">
<time>2011-06-04T07:28:45Z</time>
</trkpt>
<trkpt lat="32.045501667" lon="34.935868333">
<time>2011-06-04T07:28:50Z</time>
</trkpt>
<trkpt lat="32.045383333" lon="34.935885000">
<time>2011-06-04T07:28:55Z</time>
</trkpt>
<trkpt lat="32.045286667" lon="34.935878333">
<time>2011-06-04T07:29:00Z</time>
</trkpt>
<trkpt lat="32.045168333" lon="34.935895000">
<time>2011-06-04T07:29:05Z</time>
</trkpt>
<trkpt lat="32.045030000" lon="34.935921667">
<time>2011-06-04T07:29:10Z</time>
</trkpt>
<trkpt lat="32.044906667" lon="34.935935000">
<time>2011-06-04T07:29:15Z</time>
</trkpt>
<trkpt lat="32.044781667" lon="34.935946667">
<time>2011-06-04T07:29:20Z</time>
</trkpt>
<trkpt lat="32.044673333" lon="34.935951667">
<time>2011-06-04T07:29:25Z</time>
</trkpt>
<trkpt lat="32.044516667" lon="34.935966667">
<time>2011-06-04T07:29:30Z</time>
</trkpt>
<trkpt lat="32.044391667" lon="34.935970000">
<time>2011-06-04T07:29:35Z</time>
</trkpt>
<trkpt lat="32.044285000" lon="34.935995000">
<time>2011-06-04T07:29:40Z</time>
</trkpt>
<trkpt lat="32.044171667" lon="34.936051667">
<time>2011-06-04T07:29:45Z</time>
</trkpt>
<trkpt lat="32.043996667" lon="34.936065000">
<time>2011-06-04T07:29:50Z</time>
</trkpt>
<trkpt lat="32.043850000" lon="34.935978333">
<time>2011-06-04T07:29:55Z</time>
</trkpt>
<trkpt lat="32.043728333" lon="34.935963333">
<time>2011-06-04T07:30:00Z</time>
</trkpt>
<trkpt lat="32.043538333" lon="34.935986667">
<time>2011-06-04T07:30:05Z</time>
</trkpt>
<trkpt lat="32.043383333" lon="34.935980000">
<time>2011-06-04T07:30:10Z</time>
</trkpt>
<trkpt lat="32.043163333" lon="34.935960000">
<time>2011-06-04T07:30:15Z</time>
</trkpt>
<trkpt lat="32.042980000" lon="34.935948333">
<time>2011-06-04T07:30:20Z</time>
</trkpt>
<trkpt lat="32.042826667" lon="34.935908333">
<time>2011-06-04T07:30:25Z</time>
</trkpt>
<trkpt lat="32.042675000" lon="34.935875000">
<time>2011-06-04T07:30:30Z</time>
</trkpt>
<trkpt lat="32.042551667" lon="34.935891667">
<time>2011-06-04T07:30:35Z</time>
</trkpt>
<trkpt lat="32.042338333" lon="34.935875000">
<time>2011-06-04T07:30:40Z</time>
</trkpt>
<trkpt lat="32.042155000" lon="34.935846667">
<time>2011-06-04T07:30:45Z</time>
</trkpt>
<trkpt lat="32.041986667" lon="34.935783333">
<time>2011-06-04T07:30:50Z</time>
</trkpt>
<trkpt lat="32.041866667" lon="34.935693333">
<time>2011-06-04T07:30:55Z</time>
</trkpt>
<trkpt lat="32.041660000" lon="34.935671667">
<time>2011-06-04T07:31:00Z</time>
</trkpt>
<trkpt lat="32.041510000" lon="34.935743333">
<time>2011-06-04T07:31:05Z</time>
</trkpt>
<trkpt lat="32.041373333" lon="34.935721667">
<time>2011-06-04T07:31:10Z</time>
</trkpt>
<trkpt lat="32.041190000" lon="34.935688333">
<time>2011-06-04T07:31:15Z</time>
</trkpt>
<trkpt lat="32.041020000" lon="34.935645000">
<time>2011-06-04T07:31:20Z</time>
</trkpt>
<trkpt lat="32.040813333" lon="34.935591667">
<time>2011-06-04T07:31:25Z</time>
</trkpt>
<trkpt lat="32.040636667" lon="34.935556667">
<time>2011-06-04T07:31:30Z</time>
</trkpt>
<trkpt lat="32.040460000" lon="34.935530000">
<time>2011-06-04T07:31:35Z</time>
</trkpt>
<trkpt lat="32.040323333" lon="34.935511667">
<time>2011-06-04T07:31:40Z</time>
</trkpt>
<trkpt lat="32.040098333" lon="34.935485000">
<time>2011-06-04T07:31:45Z</time>
</trkpt>
<trkpt lat="32.039896667" lon="34.935463333">
<time>2011-06-04T07:31:50Z</time>
</trkpt>
<trkpt lat="32.039696667" lon="34.935441667">
<time>2011-06-04T07:31:55Z</time>
</trkpt>
<trkpt lat="32.039508333" lon="34.935418333">
<time>2011-06-04T07:32:00Z</time>
</trkpt>
<trkpt lat="32.039351667" lon="34.935400000">
<time>2011-06-04T07:32:05Z</time>
</trkpt>
<trkpt lat="32.039093333" lon="34.935371667">
<time>2011-06-04T07:32:10Z</time>
</trkpt>
<trkpt lat="32.038885000" lon="34.935331667">
<time>2011-06-04T07:32:15Z</time>
</trkpt>
<trkpt lat="32.038666667" lon="34.935276667">
<time>2011-06-04T07:32:20Z</time>
</trkpt>
<trkpt lat="32.038476667" lon="34.935218333">
<time>2011-06-04T07:32:25Z</time>
</trkpt>
<trkpt lat="32.038243333" lon="34.935145000">
<time>2011-06-04T07:32:30Z</time>
</trkpt>
<trkpt lat="32.037983333" lon="34.935038333">
<time>2011-06-04T07:32:35Z</time>
</trkpt>
<trkpt lat="32.037760000" lon="34.934916667">
<time>2011-06-04T07:32:40Z</time>
</trkpt>
<trkpt lat="32.037526667" lon="34.934790000">
<time>2011-06-04T07:32:45Z</time>
</trkpt>
<trkpt lat="32.037365000" lon="34.934680000">
<time>2011-06-04T07:32:50Z</time>
</trkpt>
<trkpt lat="32.037123333" lon="34.934568333">
<time>2011-06-04T07:32:55Z</time>
</trkpt>
<trkpt lat="32.036935000" lon="34.934475000">
<time>2011-06-04T07:33:00Z</time>
</trkpt>
<trkpt lat="32.036756667" lon="34.934368333">
<time>2011-06-04T07:33:05Z</time>
</trkpt>
<trkpt lat="32.036591667" lon="34.934256667">
<time>2011-06-04T07:33:10Z</time>
</trkpt>
<trkpt lat="32.036466667" lon="34.934153333">
<time>2011-06-04T07:33:15Z</time>
</trkpt>
<trkpt lat="32.036293333" lon="34.933985000">
<time>2011-06-04T07:33:20Z</time>
</trkpt>
<trkpt lat="32.036118333" lon="34.933886667">
<time>2011-06-04T07:33:25Z</time>
</trkpt>
<trkpt lat="32.035966667" lon="34.933765000">
<time>2011-06-04T07:33:30Z</time>
</trkpt>
<trkpt lat="32.035851667" lon="34.933668333">
<time>2011-06-04T07:33:35Z</time>
</trkpt>
<trkpt lat="32.035683333" lon="34.933540000">
<time>2011-06-04T07:33:40Z</time>
</trkpt>
<trkpt lat="32.035525000" lon="34.933406667">
<time>2011-06-04T07:33:45Z</time>
</trkpt>
<trkpt lat="32.035375000" lon="34.933243333">
<time>2011-06-04T07:33:50Z</time>
</trkpt>
<trkpt lat="32.035228333" lon="34.933083333">
<time>2011-06-04T07:33:55Z</time>
</trkpt>
<trkpt lat="32.035100000" lon="34.932940000">
<time>2011-06-04T07:34:00Z</time>
</trkpt>
<trkpt lat="32.035005000" lon="34.932798333">
<time>2011-06-04T07:34:05Z</time>
</trkpt>
<trkpt lat="32.034836667" lon="34.932623333">
<time>2011-06-04T07:34:10Z</time>
</trkpt>
<trkpt lat="32.034698333" lon="34.932498333">
<time>2011-06-04T07:34:15Z</time>
</trkpt>
<trkpt lat="32.034583333" lon="34.932393333">
<time>2011-06-04T07:34:20Z</time>
</trkpt>
<trkpt lat="32.034438333" lon="34.932263333">
<time>2011-06-04T07:34:25Z</time>
</trkpt>
<trkpt lat="32.034273333" lon="34.932105000">
<time>2011-06-04T07:34:30Z</time>
</trkpt>
<trkpt lat="32.034140000" lon="34.931971667">
<time>2011-06-04T07:34:35Z</time>
</trkpt>
<trkpt lat="32.034006667" lon="34.931828333">
<time>2011-06-04T07:34:40Z</time>
</trkpt>
<trkpt lat="32.033876667" lon="34.931685000">
<time>2011-06-04T07:34:45Z</time>
</trkpt>
<trkpt lat="32.033750000" lon="34.931531667">
<time>2011-06-04T07:34:50Z</time>
</trkpt>
<trkpt lat="32.033626667" lon="34.931371667">
<time>2011-06-04T07:34:55Z</time>
</trkpt>
<trkpt lat="32.033493333" lon="34.931215000">
<time>2011-06-04T07:35:00Z</time>
</trkpt>
<trkpt lat="32.033383333" lon="34.931093333">
<time>2011-06-04T07:35:05Z</time>
</trkpt>
<trkpt lat="32.033211667" lon="34.930908333">
<time>2011-06-04T07:35:10Z</time>
</trkpt>
<trkpt lat="32.033070000" lon="34.930755000">
<time>2011-06-04T07:35:15Z</time>
</trkpt>
<trkpt lat="32.032923333" lon="34.930608333">
<time>2011-06-04T07:35:20Z</time>
</trkpt>
<trkpt lat="32.032781667" lon="34.930463333">
<time>2011-06-04T07:35:25Z</time>
</trkpt>
<trkpt lat="32.032646667" lon="34.930355000">
<time>2011-06-04T07:35:30Z</time>
</trkpt>
<trkpt lat="32.032436667" lon="34.930225000">
<time>2011-06-04T07:35:35Z</time>
</trkpt>
<trkpt lat="32.032253333" lon="34.930133333">
<time>2011-06-04T07:35:40Z</time>
</trkpt>
<trkpt lat="32.032056667" lon="34.930061667">
<time>2011-06-04T07:35:45Z</time>
</trkpt>
<trkpt lat="32.031901667" lon="34.929996667">
<time>2011-06-04T07:35:50Z</time>
</trkpt>
<trkpt lat="32.031691667" lon="34.929928333">
<time>2011-06-04T07:35:55Z</time>
</trkpt>
<trkpt lat="32.031438333" lon="34.929846667">
<time>2011-06-04T07:36:00Z</time>
</trkpt>
<trkpt lat="32.031238333" lon="34.929776667">
<time>2011-06-04T07:36:05Z</time>
</trkpt>
<trkpt lat="32.031023333" lon="34.929706667">
<time>2011-06-04T07:36:10Z</time>
</trkpt>
<trkpt lat="32.030850000" lon="34.929666667">
<time>2011-06-04T07:36:15Z</time>
</trkpt>
<trkpt lat="32.030595000" lon="34.929586667">
<time>2011-06-04T07:36:20Z</time>
</trkpt>
<trkpt lat="32.030400000" lon="34.929491667">
<time>2011-06-04T07:36:25Z</time>
</trkpt>
<trkpt lat="32.030266667" lon="34.929470000">
<time>2011-06-04T07:36:30Z</time>
</trkpt>
<trkpt lat="32.030238333" lon="34.929546667">
<time>2011-06-04T07:36:35Z</time>
</trkpt>
<trkpt lat="32.030220000" lon="34.929646667">
<time>2011-06-04T07:36:40Z</time>
</trkpt>
<trkpt lat="32.030263333" lon="34.929786667">
<time>2011-06-04T07:36:45Z</time>
</trkpt>
<trkpt lat="32.030425000" lon="34.929855000">
<time>2011-06-04T07:36:50Z</time>
</trkpt>
<trkpt lat="32.030606667" lon="34.929880000">
<time>2011-06-04T07:36:55Z</time>
</trkpt>
<trkpt lat="32.030748333" lon="34.929913333">
<time>2011-06-04T07:37:00Z</time>
</trkpt>
<trkpt lat="32.030960000" lon="34.929998333">
<time>2011-06-04T07:37:05Z</time>
</trkpt>
<trkpt lat="32.031136667" lon="34.930086667">
<time>2011-06-04T07:37:10Z</time>
</trkpt>
<trkpt lat="32.031318333" lon="34.930166667">
<time>2011-06-04T07:37:15Z</time>
</trkpt>
<trkpt lat="32.031501667" lon="34.930258333">
<time>2011-06-04T07:37:20Z</time>
</trkpt>
<trkpt lat="32.031693333" lon="34.930346667">
<time>2011-06-04T07:37:25Z</time>
</trkpt>
<trkpt lat="32.031873333" lon="34.930445000">
<time>2011-06-04T07:37:30Z</time>
</trkpt>
<trkpt lat="32.032055000" lon="34.930521667">
<time>2011-06-04T07:37:35Z</time>
</trkpt>
<trkpt lat="32.032220000" lon="34.930621667">
<time>2011-06-04T07:37:40Z</time>
</trkpt>
<trkpt lat="32.032321667" lon="34.930768333">
<time>2011-06-04T07:37:45Z</time>
</trkpt>
<trkpt lat="32.032298333" lon="34.931006667">
<time>2011-06-04T07:37:50Z</time>
</trkpt>
<trkpt lat="32.032243333" lon="34.931125000">
<time>2011-06-04T07:37:55Z</time>
</trkpt>
<trkpt lat="32.032243333" lon="34.931151667">
<time>2011-06-04T07:38:00Z</time>
</trkpt>
<trkpt lat="32.032243333" lon="34.931176667">
<time>2011-06-04T07:38:05Z</time>
</trkpt>
<trkpt lat="32.032213333" lon="34.931175000">
<time>2011-06-04T07:38:10Z</time>
</trkpt>
<trkpt lat="32.032208333" lon="34.931176667">
<time>2011-06-04T07:38:15Z</time>
</trkpt>
<trkpt lat="32.032205000" lon="34.931178333">
<time>2011-06-04T07:38:20Z</time>
</trkpt>
<trkpt lat="32.032161667" lon="34.931221667">
<time>2011-06-04T07:38:25Z</time>
</trkpt>
<trkpt lat="32.032086667" lon="34.931330000">
<time>2011-06-04T07:38:30Z</time>
</trkpt>
<trkpt lat="32.031973333" lon="34.931490000">
<time>2011-06-04T07:38:35Z</time>
</trkpt>
<trkpt lat="32.031840000" lon="34.931711667">
<time>2011-06-04T07:38:40Z</time>
</trkpt>
<trkpt lat="32.031730000" lon="34.931896667">
<time>2011-06-04T07:38:45Z</time>
</trkpt>
<trkpt lat="32.031631667" lon="34.932071667">
<time>2011-06-04T07:38:50Z</time>
</trkpt>
<trkpt lat="32.031546667" lon="34.932218333">
<time>2011-06-04T07:38:55Z</time>
</trkpt>
<trkpt lat="32.031435000" lon="34.932465000">
<time>2011-06-04T07:39:00Z</time>
</trkpt>
<trkpt lat="32.031313333" lon="34.932655000">
<time>2011-06-04T07:39:05Z</time>
</trkpt>
<trkpt lat="32.031348333" lon="34.932855000">
<time>2011-06-04T07:39:10Z</time>
</trkpt>
<trkpt lat="32.031486667" lon="34.932941667">
<time>2011-06-04T07:39:15Z</time>
</trkpt>
<trkpt lat="32.031616667" lon="34.933148333">
<time>2011-06-04T07:39:20Z</time>
</trkpt>
<trkpt lat="32.031726667" lon="34.933320000">
<time>2011-06-04T07:39:25Z</time>
</trkpt>
<trkpt lat="32.031836667" lon="34.933510000">
<time>2011-06-04T07:39:30Z</time>
</trkpt>
<trkpt lat="32.031956667" lon="34.933688333">
<time>2011-06-04T07:39:35Z</time>
</trkpt>
<trkpt lat="32.032066667" lon="34.933825000">
<time>2011-06-04T07:39:40Z</time>
</trkpt>
<trkpt lat="32.032226667" lon="34.934021667">
<time>2011-06-04T07:39:45Z</time>
</trkpt>
<trkpt lat="32.032355000" lon="34.934183333">
<time>2011-06-04T07:39:50Z</time>
</trkpt>
<trkpt lat="32.032475000" lon="34.934355000">
<time>2011-06-04T07:39:55Z</time>
</trkpt>
<trkpt lat="32.032596667" lon="34.934518333">
<time>2011-06-04T07:40:00Z</time>
</trkpt>
<trkpt lat="32.032690000" lon="34.934645000">
<time>2011-06-04T07:40:05Z</time>
</trkpt>
<trkpt lat="32.032821667" lon="34.934858333">
<time>2011-06-04T07:40:10Z</time>
</trkpt>
<trkpt lat="32.032928333" lon="34.935048333">
<time>2011-06-04T07:40:15Z</time>
</trkpt>
<trkpt lat="32.033025000" lon="34.935226667">
<time>2011-06-04T07:40:20Z</time>
</trkpt>
<trkpt lat="32.033096667" lon="34.935341667">
<time>2011-06-04T07:40:25Z</time>
</trkpt>
<trkpt lat="32.033198333" lon="34.935571667">
<time>2011-06-04T07:40:30Z</time>
</trkpt>
<trkpt lat="32.033286667" lon="34.935778333">
<time>2011-06-04T07:40:35Z</time>
</trkpt>
<trkpt lat="32.033375000" lon="34.935986667">
<time>2011-06-04T07:40:40Z</time>
</trkpt>
<trkpt lat="32.033463333" lon="34.936196667">
<time>2011-06-04T07:40:45Z</time>
</trkpt>
<trkpt lat="32.033528333" lon="34.936363333">
<time>2011-06-04T07:40:50Z</time>
</trkpt>
<trkpt lat="32.033611667" lon="34.936641667">
<time>2011-06-04T07:40:55Z</time>
</trkpt>
<trkpt lat="32.033671667" lon="34.936881667">
<time>2011-06-04T07:41:00Z</time>
</trkpt>
<trkpt lat="32.033725000" lon="34.937115000">
<time>2011-06-04T07:41:05Z</time>
</trkpt>
<trkpt lat="32.033750000" lon="34.937308333">
<time>2011-06-04T07:41:10Z</time>
</trkpt>
<trkpt lat="32.033791667" lon="34.937586667">
<time>2011-06-04T07:41:15Z</time>
</trkpt>
<trkpt lat="32.033830000" lon="34.937820000">
<time>2011-06-04T07:41:20Z</time>
</trkpt>
<trkpt lat="32.033830000" lon="34.938065000">
<time>2011-06-04T07:41:25Z</time>
</trkpt>
<trkpt lat="32.033818333" lon="34.938308333">
<time>2011-06-04T07:41:30Z</time>
</trkpt>
<trkpt lat="32.033788333" lon="34.938506667">
<time>2011-06-04T07:41:35Z</time>
</trkpt>
<trkpt lat="32.033748333" lon="34.938820000">
<time>2011-06-04T07:41:40Z</time>
</trkpt>
<trkpt lat="32.033721667" lon="34.939091667">
<time>2011-06-04T07:41:45Z</time>
</trkpt>
<trkpt lat="32.033715000" lon="34.939375000">
<time>2011-06-04T07:41:50Z</time>
</trkpt>
<trkpt lat="32.033738333" lon="34.939598333">
<time>2011-06-04T07:41:55Z</time>
</trkpt>
<trkpt lat="32.033783333" lon="34.939930000">
<time>2011-06-04T07:42:00Z</time>
</trkpt>
<trkpt lat="32.033831667" lon="34.940186667">
<time>2011-06-04T07:42:05Z</time>
</trkpt>
<trkpt lat="32.033876667" lon="34.940418333">
<time>2011-06-04T07:42:10Z</time>
</trkpt>
<trkpt lat="32.033905000" lon="34.940658333">
<time>2011-06-04T07:42:15Z</time>
</trkpt>
<trkpt lat="32.033915000" lon="34.940893333">
<time>2011-06-04T07:42:20Z</time>
</trkpt>
<trkpt lat="32.033920000" lon="34.941113333">
<time>2011-06-04T07:42:25Z</time>
</trkpt>
<trkpt lat="32.033918333" lon="34.941325000">
<time>2011-06-04T07:42:30Z</time>
</trkpt>
<trkpt lat="32.033913333" lon="34.941535000">
<time>2011-06-04T07:42:35Z</time>
</trkpt>
<trkpt lat="32.033895000" lon="34.941750000">
<time>2011-06-04T07:42:40Z</time>
</trkpt>
<trkpt lat="32.033871667" lon="34.941915000">
<time>2011-06-04T07:42:45Z</time>
</trkpt>
<trkpt lat="32.033836667" lon="34.942155000">
<time>2011-06-04T07:42:50Z</time>
</trkpt>
<trkpt lat="32.033821667" lon="34.942331667">
<time>2011-06-04T07:42:55Z</time>
</trkpt>
<trkpt lat="32.033785000" lon="34.942551667">
<time>2011-06-04T07:43:00Z</time>
</trkpt>
<trkpt lat="32.033765000" lon="34.942773333">
<time>2011-06-04T07:43:05Z</time>
</trkpt>
<trkpt lat="32.033753333" lon="34.943108333">
<time>2011-06-04T07:43:10Z</time>
</trkpt>
<trkpt lat="32.033781667" lon="34.943393333">
<time>2011-06-04T07:43:15Z</time>
</trkpt>
<trkpt lat="32.033855000" lon="34.943675000">
<time>2011-06-04T07:43:20Z</time>
</trkpt>
<trkpt lat="32.033930000" lon="34.943941667">
<time>2011-06-04T07:43:25Z</time>
</trkpt>
<trkpt lat="32.034011667" lon="34.944191667">
<time>2011-06-04T07:43:30Z</time>
</trkpt>
<trkpt lat="32.034086667" lon="34.944415000">
<time>2011-06-04T07:43:35Z</time>
</trkpt>
<trkpt lat="32.034146667" lon="34.944621667">
<time>2011-06-04T07:43:40Z</time>
</trkpt>
<trkpt lat="32.034203333" lon="34.944836667">
<time>2011-06-04T07:43:45Z</time>
</trkpt>
<trkpt lat="32.034243333" lon="34.945008333">
<time>2011-06-04T07:43:50Z</time>
</trkpt>
<trkpt lat="32.034295000" lon="34.945223333">
<time>2011-06-04T07:43:55Z</time>
</trkpt>
<trkpt lat="32.034356667" lon="34.945491667">
<time>2011-06-04T07:44:00Z</time>
</trkpt>
<trkpt lat="32.034411667" lon="34.945718333">
<time>2011-06-04T07:44:05Z</time>
</trkpt>
<trkpt lat="32.034470000" lon="34.945928333">
<time>2011-06-04T07:44:10Z</time>
</trkpt>
<trkpt lat="32.034521667" lon="34.946071667">
<time>2011-06-04T07:44:15Z</time>
</trkpt>
<trkpt lat="32.034600000" lon="34.946293333">
<time>2011-06-04T07:44:20Z</time>
</trkpt>
<trkpt lat="32.034648333" lon="34.946470000">
<time>2011-06-04T07:44:25Z</time>
</trkpt>
<trkpt lat="32.034655000" lon="34.946610000">
<time>2011-06-04T07:44:30Z</time>
</trkpt>
<trkpt lat="32.034620000" lon="34.946685000">
<time>2011-06-04T07:44:35Z</time>
</trkpt>
<trkpt lat="32.034506667" lon="34.946751667">
<time>2011-06-04T07:44:40Z</time>
</trkpt>
<trkpt lat="32.034403333" lon="34.946805000">
<time>2011-06-04T07:44:45Z</time>
</trkpt>
<trkpt lat="32.034306667" lon="34.946875000">
<time>2011-06-04T07:44:50Z</time>
</trkpt>
<trkpt lat="32.034220000" lon="34.946963333">
<time>2011-06-04T07:44:55Z</time>
</trkpt>
<trkpt lat="32.034160000" lon="34.947035000">
<time>2011-06-04T07:45:00Z</time>
</trkpt>
<trkpt lat="32.034105000" lon="34.947165000">
<time>2011-06-04T07:45:05Z</time>
</trkpt>
<trkpt lat="32.034128333" lon="34.947293333">
<time>2011-06-04T07:45:10Z</time>
</trkpt>
<trkpt lat="32.034123333" lon="34.947420000">
<time>2011-06-04T07:45:15Z</time>
</trkpt>
<trkpt lat="32.034091667" lon="34.947520000">
<time>2011-06-04T07:45:20Z</time>
</trkpt>
<trkpt lat="32.034040000" lon="34.947615000">
<time>2011-06-04T07:45:25Z</time>
</trkpt>
<trkpt lat="32.033996667" lon="34.947720000">
<time>2011-06-04T07:45:30Z</time>
</trkpt>
<trkpt lat="32.033940000" lon="34.947821667">
<time>2011-06-04T07:45:35Z</time>
</trkpt>
<trkpt lat="32.033908333" lon="34.947936667">
<time>2011-06-04T07:45:40Z</time>
</trkpt>
<trkpt lat="32.033915000" lon="34.948036667">
<time>2011-06-04T07:45:45Z</time>
</trkpt>
<trkpt lat="32.033913333" lon="34.948203333">
<time>2011-06-04T07:45:50Z</time>
</trkpt>
<trkpt lat="32.033888333" lon="34.948343333">
<time>2011-06-04T07:45:55Z</time>
</trkpt>
<trkpt lat="32.033820000" lon="34.948451667">
<time>2011-06-04T07:46:00Z</time>
</trkpt>
<trkpt lat="32.033740000" lon="34.948548333">
<time>2011-06-04T07:46:05Z</time>
</trkpt>
<trkpt lat="32.033695000" lon="34.948635000">
<time>2011-06-04T07:46:10Z</time>
</trkpt>
<trkpt lat="32.033623333" lon="34.948765000">
<time>2011-06-04T07:46:15Z</time>
</trkpt>
<trkpt lat="32.033635000" lon="34.948916667">
<time>2011-06-04T07:46:20Z</time>
</trkpt>
<trkpt lat="32.033683333" lon="34.949071667">
<time>2011-06-04T07:46:25Z</time>
</trkpt>
<trkpt lat="32.033726667" lon="34.949188333">
<time>2011-06-04T07:46:30Z</time>
</trkpt>
<trkpt lat="32.033720000" lon="34.949381667">
<time>2011-06-04T07:46:35Z</time>
</trkpt>
<trkpt lat="32.033703333" lon="34.949541667">
<time>2011-06-04T07:46:40Z</time>
</trkpt>
<trkpt lat="32.033650000" lon="34.949696667">
<time>2011-06-04T07:46:45Z</time>
</trkpt>
<trkpt lat="32.033605000" lon="34.949871667">
<time>2011-06-04T07:46:50Z</time>
</trkpt>
<trkpt lat="32.033565000" lon="34.950036667">
<time>2011-06-04T07:46:55Z</time>
</trkpt>
<trkpt lat="32.033456667" lon="34.950155000">
<time>2011-06-04T07:47:00Z</time>
</trkpt>
<trkpt lat="32.033328333" lon="34.950230000">
<time>2011-06-04T07:47:05Z</time>
</trkpt>
<trkpt lat="32.033201667" lon="34.950315000">
<time>2011-06-04T07:47:10Z</time>
</trkpt>
<trkpt lat="32.033081667" lon="34.950366667">
<time>2011-06-04T07:47:15Z</time>
</trkpt>
<trkpt lat="32.032876667" lon="34.950418333">
<time>2011-06-04T07:47:20Z</time>
</trkpt>
<trkpt lat="32.032701667" lon="34.950486667">
<time>2011-06-04T07:47:25Z</time>
</trkpt>
<trkpt lat="32.032533333" lon="34.950593333">
<time>2011-06-04T07:47:30Z</time>
</trkpt>
<trkpt lat="32.032395000" lon="34.950685000">
<time>2011-06-04T07:47:35Z</time>
</trkpt>
<trkpt lat="32.032293333" lon="34.950735000">
<time>2011-06-04T07:47:40Z</time>
</trkpt>
<trkpt lat="32.032128333" lon="34.950798333">
<time>2011-06-04T07:47:45Z</time>
</trkpt>
<trkpt lat="32.031988333" lon="34.950836667">
<time>2011-06-04T07:47:50Z</time>
</trkpt>
<trkpt lat="32.031875000" lon="34.950886667">
<time>2011-06-04T07:47:55Z</time>
</trkpt>
<trkpt lat="32.031805000" lon="34.950958333">
<time>2011-06-04T07:48:00Z</time>
</trkpt>
<trkpt lat="32.031741667" lon="34.951080000">
<time>2011-06-04T07:48:05Z</time>
</trkpt>
<trkpt lat="32.031720000" lon="34.951180000">
<time>2011-06-04T07:48:10Z</time>
</trkpt>
<trkpt lat="32.031701667" lon="34.951275000">
<time>2011-06-04T07:48:15Z</time>
</trkpt>
<trkpt lat="32.031685000" lon="34.951368333">
<time>2011-06-04T07:48:20Z</time>
</trkpt>
<trkpt lat="32.031670000" lon="34.951441667">
<time>2011-06-04T07:48:25Z</time>
</trkpt>
<trkpt lat="32.031630000" lon="34.951555000">
<time>2011-06-04T07:48:30Z</time>
</trkpt>
<trkpt lat="32.031630000" lon="34.951661667">
<time>2011-06-04T07:48:35Z</time>
</trkpt>
<trkpt lat="32.031645000" lon="34.951771667">
<time>2011-06-04T07:48:40Z</time>
</trkpt>
<trkpt lat="32.031641667" lon="34.951861667">
<time>2011-06-04T07:48:45Z</time>
</trkpt>
<trkpt lat="32.031615000" lon="34.952018333">
<time>2011-06-04T07:48:50Z</time>
</trkpt>
<trkpt lat="32.031566667" lon="34.952138333">
<time>2011-06-04T07:48:55Z</time>
</trkpt>
<trkpt lat="32.031488333" lon="34.952225000">
<time>2011-06-04T07:49:00Z</time>
</trkpt>
<trkpt lat="32.031401667" lon="34.952298333">
<time>2011-06-04T07:49:05Z</time>
</trkpt>
<trkpt lat="32.031328333" lon="34.952345000">
<time>2011-06-04T07:49:10Z</time>
</trkpt>
<trkpt lat="32.031210000" lon="34.952406667">
<time>2011-06-04T07:49:15Z</time>
</trkpt>
<trkpt lat="32.031081667" lon="34.952466667">
<time>2011-06-04T07:49:20Z</time>
</trkpt>
<trkpt lat="32.030955000" lon="34.952531667">
<time>2011-06-04T07:49:25Z</time>
</trkpt>
<trkpt lat="32.030816667" lon="34.952598333">
<time>2011-06-04T07:49:30Z</time>
</trkpt>
<trkpt lat="32.030705000" lon="34.952675000">
<time>2011-06-04T07:49:35Z</time>
</trkpt>
<trkpt lat="32.030538333" lon="34.952831667">
<time>2011-06-04T07:49:40Z</time>
</trkpt>
<trkpt lat="32.030411667" lon="34.952943333">
<time>2011-06-04T07:49:45Z</time>
</trkpt>
<trkpt lat="32.030278333" lon="34.953061667">
<time>2011-06-04T07:49:50Z</time>
</trkpt>
<trkpt lat="32.030175000" lon="34.953155000">
<time>2011-06-04T07:49:55Z</time>
</trkpt>
<trkpt lat="32.030013333" lon="34.953290000">
<time>2011-06-04T07:50:00Z</time>
</trkpt>
<trkpt lat="32.029896667" lon="34.953388333">
<time>2011-06-04T07:50:05Z</time>
</trkpt>
<trkpt lat="32.029778333" lon="34.953491667">
<time>2011-06-04T07:50:10Z</time>
</trkpt>
<trkpt lat="32.029626667" lon="34.953615000">
<time>2011-06-04T07:50:15Z</time>
</trkpt>
<trkpt lat="32.029521667" lon="34.953731667">
<time>2011-06-04T07:50:20Z</time>
</trkpt>
<trkpt lat="32.029378333" lon="34.953900000">
<time>2011-06-04T07:50:25Z</time>
</trkpt>
<trkpt lat="32.029225000" lon="34.953991667">
<time>2011-06-04T07:50:30Z</time>
</trkpt>
<trkpt lat="32.029046667" lon="34.954060000">
<time>2011-06-04T07:50:35Z</time>
</trkpt>
<trkpt lat="32.028890000" lon="34.954071667">
<time>2011-06-04T07:50:40Z</time>
</trkpt>
<trkpt lat="32.028691667" lon="34.954051667">
<time>2011-06-04T07:50:45Z</time>
</trkpt>
<trkpt lat="32.028551667" lon="34.953996667">
<time>2011-06-04T07:50:50Z</time>
</trkpt>
<trkpt lat="32.028468333" lon="34.954000000">
<time>2011-06-04T07:50:55Z</time>
</trkpt>
<trkpt lat="32.028453333" lon="34.954098333">
<time>2011-06-04T07:51:00Z</time>
</trkpt>
<trkpt lat="32.028420000" lon="34.954195000">
<time>2011-06-04T07:51:05Z</time>
</trkpt>
<trkpt lat="32.028333333" lon="34.954311667">
<time>2011-06-04T07:51:10Z</time>
</trkpt>
<trkpt lat="32.028196667" lon="34.954320000">
<time>2011-06-04T07:51:15Z</time>
</trkpt>
<trkpt lat="32.028061667" lon="34.954313333">
<time>2011-06-04T07:51:20Z</time>
</trkpt>
<trkpt lat="32.028016667" lon="34.954310000">
<time>2011-06-04T07:51:25Z</time>
</trkpt>
<trkpt lat="32.028018333" lon="34.954308333">
<time>2011-06-04T07:51:35Z</time>
</trkpt>
<trkpt lat="32.028016667" lon="34.954311667">
<time>2011-06-04T07:51:40Z</time>
</trkpt>
<trkpt lat="32.028021667" lon="34.954305000">
<time>2011-06-04T07:51:50Z</time>
</trkpt>
<trkpt lat="32.028020000" lon="34.954293333">
<time>2011-06-04T07:51:55Z</time>
</trkpt>
<trkpt lat="32.028021667" lon="34.954295000">
<time>2011-06-04T07:52:00Z</time>
</trkpt>
<trkpt lat="32.028023333" lon="34.954296667">
<time>2011-06-04T07:52:05Z</time>
</trkpt>
<trkpt lat="32.028023333" lon="34.954298333">
<time>2011-06-04T07:52:10Z</time>
</trkpt>
<trkpt lat="32.028025000" lon="34.954298333">
<time>2011-06-04T07:52:15Z</time>
</trkpt>
<trkpt lat="32.028026667" lon="34.954300000">
<time>2011-06-04T07:52:20Z</time>
</trkpt>
<trkpt lat="32.028025000" lon="34.954296667">
<time>2011-06-04T07:52:25Z</time>
</trkpt>
<trkpt lat="32.028023333" lon="34.954291667">
<time>2011-06-04T07:52:30Z</time>
</trkpt>
<trkpt lat="32.028028333" lon="34.954300000">
<time>2011-06-04T07:52:45Z</time>
</trkpt>
<trkpt lat="32.028028333" lon="34.954305000">
<time>2011-06-04T07:52:50Z</time>
</trkpt>
<trkpt lat="32.028030000" lon="34.954308333">
<time>2011-06-04T07:52:55Z</time>
</trkpt>
<trkpt lat="32.028028333" lon="34.954310000">
<time>2011-06-04T07:53:00Z</time>
</trkpt>
<trkpt lat="32.028028333" lon="34.954311667">
<time>2011-06-04T07:53:05Z</time>
</trkpt>
<trkpt lat="32.028028333" lon="34.954313333">
<time>2011-06-04T07:53:10Z</time>
</trkpt>
<trkpt lat="32.028026667" lon="34.954316667">
<time>2011-06-04T07:53:15Z</time>
</trkpt>
<trkpt lat="32.028026667" lon="34.954320000">
<time>2011-06-04T07:53:20Z</time>
</trkpt>
<trkpt lat="32.028026667" lon="34.954321667">
<time>2011-06-04T07:53:25Z</time>
</trkpt>
<trkpt lat="32.028026667" lon="34.954323333">
<time>2011-06-04T07:53:30Z</time>
</trkpt>
<trkpt lat="32.028025000" lon="34.954323333">
<time>2011-06-04T07:53:35Z</time>
</trkpt>
<trkpt lat="32.028025000" lon="34.954320000">
<time>2011-06-04T07:53:40Z</time>
</trkpt>
<trkpt lat="32.028021667" lon="34.954313333">
<time>2011-06-04T07:53:45Z</time>
</trkpt>
<trkpt lat="32.028021667" lon="34.954306667">
<time>2011-06-04T07:53:50Z</time>
</trkpt>
<trkpt lat="32.028021667" lon="34.954308333">
<time>2011-06-04T07:54:00Z</time>
</trkpt>
<trkpt lat="32.028023333" lon="34.954313333">
<time>2011-06-04T07:54:05Z</time>
</trkpt>
<trkpt lat="32.028021667" lon="34.954311667">
<time>2011-06-04T07:54:10Z</time>
</trkpt>
<trkpt lat="32.028020000" lon="34.954305000">
<time>2011-06-04T07:54:15Z</time>
</trkpt>
<trkpt lat="32.028018333" lon="34.954306667">
<time>2011-06-04T07:54:20Z</time>
</trkpt>
<trkpt lat="32.028016667" lon="34.954303333">
<time>2011-06-04T07:54:25Z</time>
</trkpt>
<trkpt lat="32.027986667" lon="34.954311667">
<time>2011-06-04T07:54:30Z</time>
</trkpt>
<trkpt lat="32.027918333" lon="34.954393333">
<time>2011-06-04T07:54:35Z</time>
</trkpt>
<trkpt lat="32.027903333" lon="34.954543333">
<time>2011-06-04T07:54:40Z</time>
</trkpt>
<trkpt lat="32.027908333" lon="34.954713333">
<time>2011-06-04T07:54:45Z</time>
</trkpt>
<trkpt lat="32.027900000" lon="34.954840000">
<time>2011-06-04T07:54:50Z</time>
</trkpt>
<trkpt lat="32.027853333" lon="34.955015000">
<time>2011-06-04T07:54:55Z</time>
</trkpt>
<trkpt lat="32.027828333" lon="34.955148333">
<time>2011-06-04T07:55:00Z</time>
</trkpt>
<trkpt lat="32.027828333" lon="34.955295000">
<time>2011-06-04T07:55:05Z</time>
</trkpt>
<trkpt lat="32.027861667" lon="34.955433333">
<time>2011-06-04T07:55:10Z</time>
</trkpt>
<trkpt lat="32.027956667" lon="34.955501667">
<time>2011-06-04T07:55:15Z</time>
</trkpt>
<trkpt lat="32.028101667" lon="34.955581667">
<time>2011-06-04T07:55:20Z</time>
</trkpt>
<trkpt lat="32.028235000" lon="34.955656667">
<time>2011-06-04T07:55:25Z</time>
</trkpt>
<trkpt lat="32.028360000" lon="34.955733333">
<time>2011-06-04T07:55:30Z</time>
</trkpt>
<trkpt lat="32.028456667" lon="34.955776667">
<time>2011-06-04T07:55:35Z</time>
</trkpt>
<trkpt lat="32.028605000" lon="34.955781667">
<time>2011-06-04T07:55:40Z</time>
</trkpt>
<trkpt lat="32.028790000" lon="34.955820000">
<time>2011-06-04T07:55:45Z</time>
</trkpt>
<trkpt lat="32.028945000" lon="34.955868333">
<time>2011-06-04T07:55:50Z</time>
</trkpt>
<trkpt lat="32.029075000" lon="34.955925000">
<time>2011-06-04T07:55:55Z</time>
</trkpt>
<trkpt lat="32.029183333" lon="34.955960000">
<time>2011-06-04T07:56:00Z</time>
</trkpt>
<trkpt lat="32.029360000" lon="34.955995000">
<time>2011-06-04T07:56:05Z</time>
</trkpt>
<trkpt lat="32.029496667" lon="34.956030000">
<time>2011-06-04T07:56:10Z</time>
</trkpt>
<trkpt lat="32.029643333" lon="34.956061667">
<time>2011-06-04T07:56:15Z</time>
</trkpt>
<trkpt lat="32.029786667" lon="34.956091667">
<time>2011-06-04T07:56:20Z</time>
</trkpt>
<trkpt lat="32.029896667" lon="34.956128333">
<time>2011-06-04T07:56:25Z</time>
</trkpt>
<trkpt lat="32.030066667" lon="34.956178333">
<time>2011-06-04T07:56:30Z</time>
</trkpt>
<trkpt lat="32.030148333" lon="34.956221667">
<time>2011-06-04T07:56:35Z</time>
</trkpt>
<trkpt lat="32.030178333" lon="34.956298333">
<time>2011-06-04T07:56:40Z</time>
</trkpt>
<trkpt lat="32.030161667" lon="34.956400000">
<time>2011-06-04T07:56:45Z</time>
</trkpt>
<trkpt lat="32.030140000" lon="34.956530000">
<time>2011-06-04T07:56:50Z</time>
</trkpt>
<trkpt lat="32.030136667" lon="34.956631667">
<time>2011-06-04T07:56:55Z</time>
</trkpt>
<trkpt lat="32.030115000" lon="34.956743333">
<time>2011-06-04T07:57:00Z</time>
</trkpt>
<trkpt lat="32.030146667" lon="34.956913333">
<time>2011-06-04T07:57:05Z</time>
</trkpt>
<trkpt lat="32.030170000" lon="34.957070000">
<time>2011-06-04T07:57:10Z</time>
</trkpt>
<trkpt lat="32.030168333" lon="34.957268333">
<time>2011-06-04T07:57:15Z</time>
</trkpt>
<trkpt lat="32.030161667" lon="34.957450000">
<time>2011-06-04T07:57:20Z</time>
</trkpt>
<trkpt lat="32.030146667" lon="34.957591667">
<time>2011-06-04T07:57:25Z</time>
</trkpt>
<trkpt lat="32.030075000" lon="34.957661667">
<time>2011-06-04T07:57:30Z</time>
</trkpt>
<trkpt lat="32.029905000" lon="34.957645000">
<time>2011-06-04T07:57:35Z</time>
</trkpt>
<trkpt lat="32.029720000" lon="34.957593333">
<time>2011-06-04T07:57:40Z</time>
</trkpt>
<trkpt lat="32.029548333" lon="34.957628333">
<time>2011-06-04T07:57:45Z</time>
</trkpt>
<trkpt lat="32.029476667" lon="34.957765000">
<time>2011-06-04T07:57:50Z</time>
</trkpt>
<trkpt lat="32.029480000" lon="34.957933333">
<time>2011-06-04T07:57:55Z</time>
</trkpt>
<trkpt lat="32.029540000" lon="34.958086667">
<time>2011-06-04T07:58:00Z</time>
</trkpt>
<trkpt lat="32.029496667" lon="34.958250000">
<time>2011-06-04T07:58:05Z</time>
</trkpt>
<trkpt lat="32.029403333" lon="34.958400000">
<time>2011-06-04T07:58:10Z</time>
</trkpt>
<trkpt lat="32.029306667" lon="34.958511667">
<time>2011-06-04T07:58:15Z</time>
</trkpt>
<trkpt lat="32.029218333" lon="34.958680000">
<time>2011-06-04T07:58:20Z</time>
</trkpt>
<trkpt lat="32.029236667" lon="34.958870000">
<time>2011-06-04T07:58:25Z</time>
</trkpt>
<trkpt lat="32.029173333" lon="34.958975000">
<time>2011-06-04T07:58:30Z</time>
</trkpt>
<trkpt lat="32.029118333" lon="34.959073333">
<time>2011-06-04T07:58:35Z</time>
</trkpt>
<trkpt lat="32.029318333" lon="34.959595000">
<time>2011-06-04T07:58:40Z</time>
</trkpt>
<trkpt lat="32.029460000" lon="34.959760000">
<time>2011-06-04T07:58:45Z</time>
</trkpt>
<trkpt lat="32.029433333" lon="34.959876667">
<time>2011-06-04T07:58:50Z</time>
</trkpt>
<trkpt lat="32.029410000" lon="34.960026667">
<time>2011-06-04T07:58:55Z</time>
</trkpt>
<trkpt lat="32.029410000" lon="34.960118333">
<time>2011-06-04T07:59:00Z</time>
</trkpt>
<trkpt lat="32.029438333" lon="34.960231667">
<time>2011-06-04T07:59:05Z</time>
</trkpt>
<trkpt lat="32.029488333" lon="34.960335000">
<time>2011-06-04T07:59:10Z</time>
</trkpt>
<trkpt lat="32.029526667" lon="34.960450000">
<time>2011-06-04T07:59:15Z</time>
</trkpt>
<trkpt lat="32.029538333" lon="34.960558333">
<time>2011-06-04T07:59:20Z</time>
</trkpt>
<trkpt lat="32.029555000" lon="34.960645000">
<time>2011-06-04T07:59:25Z</time>
</trkpt>
<trkpt lat="32.029563333" lon="34.960788333">
<time>2011-06-04T07:59:30Z</time>
</trkpt>
<trkpt lat="32.029566667" lon="34.960910000">
<time>2011-06-04T07:59:35Z</time>
</trkpt>
<trkpt lat="32.029571667" lon="34.961043333">
<time>2011-06-04T07:59:40Z</time>
</trkpt>
<trkpt lat="32.029565000" lon="34.961198333">
<time>2011-06-04T07:59:45Z</time>
</trkpt>
<trkpt lat="32.029551667" lon="34.961311667">
<time>2011-06-04T07:59:50Z</time>
</trkpt>
<trkpt lat="32.029546667" lon="34.961501667">
<time>2011-06-04T07:59:55Z</time>
</trkpt>
<trkpt lat="32.029531667" lon="34.961655000">
<time>2011-06-04T08:00:00Z</time>
</trkpt>
<trkpt lat="32.029513333" lon="34.961803333">
<time>2011-06-04T08:00:05Z</time>
</trkpt>
<trkpt lat="32.029505000" lon="34.961936667">
<time>2011-06-04T08:00:10Z</time>
</trkpt>
<trkpt lat="32.029508333" lon="34.962145000">
<time>2011-06-04T08:00:15Z</time>
</trkpt>
<trkpt lat="32.029505000" lon="34.962331667">
<time>2011-06-04T08:00:20Z</time>
</trkpt>
<trkpt lat="32.029501667" lon="34.962475000">
<time>2011-06-04T08:00:25Z</time>
</trkpt>
<trkpt lat="32.029463333" lon="34.962633333">
<time>2011-06-04T08:00:30Z</time>
</trkpt>
<trkpt lat="32.029426667" lon="34.962805000">
<time>2011-06-04T08:00:35Z</time>
</trkpt>
<trkpt lat="32.029421667" lon="34.963011667">
<time>2011-06-04T08:00:40Z</time>
</trkpt>
<trkpt lat="32.029433333" lon="34.963163333">
<time>2011-06-04T08:00:45Z</time>
</trkpt>
<trkpt lat="32.029378333" lon="34.963290000">
<time>2011-06-04T08:00:50Z</time>
</trkpt>
<trkpt lat="32.029286667" lon="34.963415000">
<time>2011-06-04T08:00:55Z</time>
</trkpt>
<trkpt lat="32.029245000" lon="34.963543333">
<time>2011-06-04T08:01:00Z</time>
</trkpt>
<trkpt lat="32.029213333" lon="34.963733333">
<time>2011-06-04T08:01:05Z</time>
</trkpt>
<trkpt lat="32.029195000" lon="34.963863333">
<time>2011-06-04T08:01:10Z</time>
</trkpt>
<trkpt lat="32.029173333" lon="34.964008333">
<time>2011-06-04T08:01:15Z</time>
</trkpt>
<trkpt lat="32.029176667" lon="34.964111667">
<time>2011-06-04T08:01:20Z</time>
</trkpt>
<trkpt lat="32.029198333" lon="34.964261667">
<time>2011-06-04T08:01:25Z</time>
</trkpt>
<trkpt lat="32.029215000" lon="34.964391667">
<time>2011-06-04T08:01:30Z</time>
</trkpt>
<trkpt lat="32.029230000" lon="34.964518333">
<time>2011-06-04T08:01:35Z</time>
</trkpt>
<trkpt lat="32.029230000" lon="34.964625000">
<time>2011-06-04T08:01:40Z</time>
</trkpt>
<trkpt lat="32.029218333" lon="34.964766667">
<time>2011-06-04T08:01:45Z</time>
</trkpt>
<trkpt lat="32.029221667" lon="34.964926667">
<time>2011-06-04T08:01:50Z</time>
</trkpt>
<trkpt lat="32.029186667" lon="34.965061667">
<time>2011-06-04T08:01:55Z</time>
</trkpt>
<trkpt lat="32.029153333" lon="34.965196667">
<time>2011-06-04T08:02:00Z</time>
</trkpt>
<trkpt lat="32.029110000" lon="34.965316667">
<time>2011-06-04T08:02:05Z</time>
</trkpt>
<trkpt lat="32.029026667" lon="34.965500000">
<time>2011-06-04T08:02:10Z</time>
</trkpt>
<trkpt lat="32.028961667" lon="34.965635000">
<time>2011-06-04T08:02:15Z</time>
</trkpt>
<trkpt lat="32.028898333" lon="34.965773333">
<time>2011-06-04T08:02:20Z</time>
</trkpt>
<trkpt lat="32.028873333" lon="34.965941667">
<time>2011-06-04T08:02:25Z</time>
</trkpt>
<trkpt lat="32.028853333" lon="34.966025000">
<time>2011-06-04T08:02:30Z</time>
</trkpt>
<trkpt lat="32.028831667" lon="34.966118333">
<time>2011-06-04T08:02:35Z</time>
</trkpt>
<trkpt lat="32.028825000" lon="34.966145000">
<time>2011-06-04T08:02:40Z</time>
</trkpt>
<trkpt lat="32.028826667" lon="34.966150000">
<time>2011-06-04T08:02:45Z</time>
</trkpt>
<trkpt lat="32.028825000" lon="34.966146667">
<time>2011-06-04T08:02:50Z</time>
</trkpt>
<trkpt lat="32.028815000" lon="34.966133333">
<time>2011-06-04T08:02:55Z</time>
</trkpt>
<trkpt lat="32.028813333" lon="34.966138333">
<time>2011-06-04T08:03:00Z</time>
</trkpt>
<trkpt lat="32.028816667" lon="34.966148333">
<time>2011-06-04T08:03:05Z</time>
</trkpt>
<trkpt lat="32.028813333" lon="34.966153333">
<time>2011-06-04T08:03:15Z</time>
</trkpt>
<trkpt lat="32.028823333" lon="34.966150000">
<time>2011-06-04T08:03:20Z</time>
</trkpt>
<trkpt lat="32.028826667" lon="34.966151667">
<time>2011-06-04T08:03:25Z</time>
</trkpt>
<trkpt lat="32.028811667" lon="34.966211667">
<time>2011-06-04T08:03:30Z</time>
</trkpt>
<trkpt lat="32.028783333" lon="34.966291667">
<time>2011-06-04T08:03:35Z</time>
</trkpt>
<trkpt lat="32.028750000" lon="34.966450000">
<time>2011-06-04T08:03:40Z</time>
</trkpt>
<trkpt lat="32.028725000" lon="34.966580000">
<time>2011-06-04T08:03:45Z</time>
</trkpt>
<trkpt lat="32.028708333" lon="34.966728333">
<time>2011-06-04T08:03:50Z</time>
</trkpt>
<trkpt lat="32.028698333" lon="34.966868333">
<time>2011-06-04T08:03:55Z</time>
</trkpt>
<trkpt lat="32.028675000" lon="34.966990000">
<time>2011-06-04T08:04:00Z</time>
</trkpt>
<trkpt lat="32.028646667" lon="34.967158333">
<time>2011-06-04T08:04:05Z</time>
</trkpt>
<trkpt lat="32.028630000" lon="34.967300000">
<time>2011-06-04T08:04:10Z</time>
</trkpt>
<trkpt lat="32.028626667" lon="34.967440000">
<time>2011-06-04T08:04:15Z</time>
</trkpt>
<trkpt lat="32.028623333" lon="34.967541667">
<time>2011-06-04T08:04:20Z</time>
</trkpt>
<trkpt lat="32.028606667" lon="34.967703333">
<time>2011-06-04T08:04:25Z</time>
</trkpt>
<trkpt lat="32.028583333" lon="34.967826667">
<time>2011-06-04T08:04:30Z</time>
</trkpt>
<trkpt lat="32.028561667" lon="34.967925000">
<time>2011-06-04T08:04:35Z</time>
</trkpt>
<trkpt lat="32.028566667" lon="34.968035000">
<time>2011-06-04T08:04:40Z</time>
</trkpt>
<trkpt lat="32.028568333" lon="34.968133333">
<time>2011-06-04T08:04:45Z</time>
</trkpt>
<trkpt lat="32.028540000" lon="34.968256667">
<time>2011-06-04T08:04:50Z</time>
</trkpt>
<trkpt lat="32.028488333" lon="34.968350000">
<time>2011-06-04T08:04:55Z</time>
</trkpt>
<trkpt lat="32.028515000" lon="34.968466667">
<time>2011-06-04T08:05:00Z</time>
</trkpt>
<trkpt lat="32.028601667" lon="34.968535000">
<time>2011-06-04T08:05:05Z</time>
</trkpt>
<trkpt lat="32.028625000" lon="34.968561667">
<time>2011-06-04T08:05:10Z</time>
</trkpt>
<trkpt lat="32.028621667" lon="34.968563333">
<time>2011-06-04T08:05:15Z</time>
</trkpt>
<trkpt lat="32.028620000" lon="34.968568333">
<time>2011-06-04T08:05:20Z</time>
</trkpt>
<trkpt lat="32.028630000" lon="34.968563333">
<time>2011-06-04T08:05:25Z</time>
</trkpt>
<trkpt lat="32.028633333" lon="34.968565000">
<time>2011-06-04T08:05:30Z</time>
</trkpt>
<trkpt lat="32.028640000" lon="34.968561667">
<time>2011-06-04T08:05:35Z</time>
</trkpt>
<trkpt lat="32.028643333" lon="34.968561667">
<time>2011-06-04T08:05:40Z</time>
</trkpt>
<trkpt lat="32.028646667" lon="34.968561667">
<time>2011-06-04T08:05:45Z</time>
</trkpt>
<trkpt lat="32.028646667" lon="34.968565000">
<time>2011-06-04T08:05:50Z</time>
</trkpt>
<trkpt lat="32.028643333" lon="34.968571667">
<time>2011-06-04T08:05:55Z</time>
</trkpt>
<trkpt lat="32.028635000" lon="34.968600000">
<time>2011-06-04T08:06:00Z</time>
</trkpt>
<trkpt lat="32.028638333" lon="34.968605000">
<time>2011-06-04T08:06:05Z</time>
</trkpt>
<trkpt lat="32.028636667" lon="34.968610000">
<time>2011-06-04T08:06:10Z</time>
</trkpt>
<trkpt lat="32.028628333" lon="34.968620000">
<time>2011-06-04T08:06:15Z</time>
</trkpt>
<trkpt lat="32.028621667" lon="34.968630000">
<time>2011-06-04T08:06:25Z</time>
</trkpt>
<trkpt lat="32.028613333" lon="34.968651667">
<time>2011-06-04T08:06:30Z</time>
</trkpt>
<trkpt lat="32.028605000" lon="34.968670000">
<time>2011-06-04T08:06:35Z</time>
</trkpt>
<trkpt lat="32.028590000" lon="34.968706667">
<time>2011-06-04T08:06:40Z</time>
</trkpt>
<trkpt lat="32.028575000" lon="34.968756667">
<time>2011-06-04T08:06:45Z</time>
</trkpt>
<trkpt lat="32.028541667" lon="34.968848333">
<time>2011-06-04T08:06:50Z</time>
</trkpt>
<trkpt lat="32.028518333" lon="34.968943333">
<time>2011-06-04T08:06:55Z</time>
</trkpt>
<trkpt lat="32.028500000" lon="34.969016667">
<time>2011-06-04T08:07:00Z</time>
</trkpt>
<trkpt lat="32.028478333" lon="34.969120000">
<time>2011-06-04T08:07:05Z</time>
</trkpt>
<trkpt lat="32.028456667" lon="34.969200000">
<time>2011-06-04T08:07:10Z</time>
</trkpt>
<trkpt lat="32.028441667" lon="34.969276667">
<time>2011-06-04T08:07:15Z</time>
</trkpt>
<trkpt lat="32.028423333" lon="34.969363333">
<time>2011-06-04T08:07:20Z</time>
</trkpt>
<trkpt lat="32.028405000" lon="34.969431667">
<time>2011-06-04T08:07:25Z</time>
</trkpt>
<trkpt lat="32.028365000" lon="34.969526667">
<time>2011-06-04T08:07:30Z</time>
</trkpt>
<trkpt lat="32.028326667" lon="34.969600000">
<time>2011-06-04T08:07:35Z</time>
</trkpt>
<trkpt lat="32.028276667" lon="34.969648333">
<time>2011-06-04T08:07:40Z</time>
</trkpt>
<trkpt lat="32.028231667" lon="34.969688333">
<time>2011-06-04T08:07:45Z</time>
</trkpt>
<trkpt lat="32.028168333" lon="34.969718333">
<time>2011-06-04T08:07:50Z</time>
</trkpt>
<trkpt lat="32.028086667" lon="34.969726667">
<time>2011-06-04T08:07:55Z</time>
</trkpt>
<trkpt lat="32.028021667" lon="34.969726667">
<time>2011-06-04T08:08:00Z</time>
</trkpt>
<trkpt lat="32.027956667" lon="34.969703333">
<time>2011-06-04T08:08:05Z</time>
</trkpt>
<trkpt lat="32.027908333" lon="34.969673333">
<time>2011-06-04T08:08:10Z</time>
</trkpt>
<trkpt lat="32.027843333" lon="34.969613333">
<time>2011-06-04T08:08:15Z</time>
</trkpt>
<trkpt lat="32.027808333" lon="34.969560000">
<time>2011-06-04T08:08:20Z</time>
</trkpt>
<trkpt lat="32.027786667" lon="34.969481667">
<time>2011-06-04T08:08:25Z</time>
</trkpt>
<trkpt lat="32.027763333" lon="34.969405000">
<time>2011-06-04T08:08:30Z</time>
</trkpt>
<trkpt lat="32.027750000" lon="34.969340000">
<time>2011-06-04T08:08:35Z</time>
</trkpt>
<trkpt lat="32.027730000" lon="34.969246667">
<time>2011-06-04T08:08:40Z</time>
</trkpt>
<trkpt lat="32.027710000" lon="34.969171667">
<time>2011-06-04T08:08:45Z</time>
</trkpt>
<trkpt lat="32.027693333" lon="34.969090000">
<time>2011-06-04T08:08:50Z</time>
</trkpt>
<trkpt lat="32.027680000" lon="34.969025000">
<time>2011-06-04T08:08:55Z</time>
</trkpt>
<trkpt lat="32.027658333" lon="34.968921667">
<time>2011-06-04T08:09:00Z</time>
</trkpt>
<trkpt lat="32.027641667" lon="34.968833333">
<time>2011-06-04T08:09:05Z</time>
</trkpt>
<trkpt lat="32.027620000" lon="34.968740000">
<time>2011-06-04T08:09:10Z</time>
</trkpt>
<trkpt lat="32.027595000" lon="34.968638333">
<time>2011-06-04T08:09:15Z</time>
</trkpt>
<trkpt lat="32.027573333" lon="34.968526667">
<time>2011-06-04T08:09:20Z</time>
</trkpt>
<trkpt lat="32.027551667" lon="34.968410000">
<time>2011-06-04T08:09:25Z</time>
</trkpt>
<trkpt lat="32.027536667" lon="34.968288333">
<time>2011-06-04T08:09:30Z</time>
</trkpt>
<trkpt lat="32.027530000" lon="34.968161667">
<time>2011-06-04T08:09:35Z</time>
</trkpt>
<trkpt lat="32.027531667" lon="34.968060000">
<time>2011-06-04T08:09:40Z</time>
</trkpt>
<trkpt lat="32.027543333" lon="34.967926667">
<time>2011-06-04T08:09:45Z</time>
</trkpt>
<trkpt lat="32.027561667" lon="34.967781667">
<time>2011-06-04T08:09:50Z</time>
</trkpt>
<trkpt lat="32.027586667" lon="34.967660000">
<time>2011-06-04T08:09:55Z</time>
</trkpt>
<trkpt lat="32.027616667" lon="34.967543333">
<time>2011-06-04T08:10:00Z</time>
</trkpt>
<trkpt lat="32.027646667" lon="34.967453333">
<time>2011-06-04T08:10:05Z</time>
</trkpt>
<trkpt lat="32.027683333" lon="34.967335000">
<time>2011-06-04T08:10:10Z</time>
</trkpt>
<trkpt lat="32.027686667" lon="34.967241667">
<time>2011-06-04T08:10:15Z</time>
</trkpt>
<trkpt lat="32.027691667" lon="34.967141667">
<time>2011-06-04T08:10:20Z</time>
</trkpt>
<trkpt lat="32.027681667" lon="34.967063333">
<time>2011-06-04T08:10:25Z</time>
</trkpt>
<trkpt lat="32.027631667" lon="34.966960000">
<time>2011-06-04T08:10:30Z</time>
</trkpt>
<trkpt lat="32.027566667" lon="34.966890000">
<time>2011-06-04T08:10:35Z</time>
</trkpt>
<trkpt lat="32.027486667" lon="34.966843333">
<time>2011-06-04T08:10:40Z</time>
</trkpt>
<trkpt lat="32.027403333" lon="34.966823333">
<time>2011-06-04T08:10:45Z</time>
</trkpt>
<trkpt lat="32.027341667" lon="34.966828333">
<time>2011-06-04T08:10:50Z</time>
</trkpt>
<trkpt lat="32.027318333" lon="34.966831667">
<time>2011-06-04T08:10:55Z</time>
</trkpt>
<trkpt lat="32.027313333" lon="34.966835000">
<time>2011-06-04T08:11:00Z</time>
</trkpt>
<trkpt lat="32.027311667" lon="34.966831667">
<time>2011-06-04T08:11:05Z</time>
</trkpt>
<trkpt lat="32.027311667" lon="34.966833333">
<time>2011-06-04T08:11:10Z</time>
</trkpt>
<trkpt lat="32.027308333" lon="34.966835000">
<time>2011-06-04T08:11:15Z</time>
</trkpt>
<trkpt lat="32.027306667" lon="34.966833333">
<time>2011-06-04T08:11:20Z</time>
</trkpt>
<trkpt lat="32.027308333" lon="34.966836667">
<time>2011-06-04T08:11:25Z</time>
</trkpt>
<trkpt lat="32.027306667" lon="34.966851667">
<time>2011-06-04T08:11:30Z</time>
</trkpt>
<trkpt lat="32.027301667" lon="34.966850000">
<time>2011-06-04T08:11:35Z</time>
</trkpt>
<trkpt lat="32.027281667" lon="34.966860000">
<time>2011-06-04T08:11:40Z</time>
</trkpt>
<trkpt lat="32.027291667" lon="34.966860000">
<time>2011-06-04T08:11:45Z</time>
</trkpt>
<trkpt lat="32.027310000" lon="34.966876667">
<time>2011-06-04T08:11:50Z</time>
</trkpt>
<trkpt lat="32.027320000" lon="34.966910000">
<time>2011-06-04T08:11:55Z</time>
</trkpt>
<trkpt lat="32.027318333" lon="34.966921667">
<time>2011-06-04T08:12:00Z</time>
</trkpt>
<trkpt lat="32.027316667" lon="34.966955000">
<time>2011-06-04T08:12:05Z</time>
</trkpt>
<trkpt lat="32.027313333" lon="34.966970000">
<time>2011-06-04T08:12:10Z</time>
</trkpt>
<trkpt lat="32.027320000" lon="34.966971667">
<time>2011-06-04T08:12:15Z</time>
</trkpt>
<trkpt lat="32.027310000" lon="34.966968333">
<time>2011-06-04T08:12:25Z</time>
</trkpt>
<trkpt lat="32.027305000" lon="34.966981667">
<time>2011-06-04T08:12:30Z</time>
</trkpt>
<trkpt lat="32.027323333" lon="34.966988333">
<time>2011-06-04T08:12:35Z</time>
</trkpt>
<trkpt lat="32.027345000" lon="34.967000000">
<time>2011-06-04T08:12:40Z</time>
</trkpt>
<trkpt lat="32.027365000" lon="34.967018333">
<time>2011-06-04T08:12:45Z</time>
</trkpt>
<trkpt lat="32.027378333" lon="34.967046667">
<time>2011-06-04T08:12:50Z</time>
</trkpt>
<trkpt lat="32.027391667" lon="34.967078333">
<time>2011-06-04T08:12:55Z</time>
</trkpt>
<trkpt lat="32.027386667" lon="34.967096667">
<time>2011-06-04T08:13:00Z</time>
</trkpt>
<trkpt lat="32.027373333" lon="34.967123333">
<time>2011-06-04T08:13:05Z</time>
</trkpt>
<trkpt lat="32.027368333" lon="34.967148333">
<time>2011-06-04T08:13:10Z</time>
</trkpt>
<trkpt lat="32.027380000" lon="34.967151667">
<time>2011-06-04T08:13:15Z</time>
</trkpt>
<trkpt lat="32.027385000" lon="34.967153333">
<time>2011-06-04T08:13:20Z</time>
</trkpt>
<trkpt lat="32.027390000" lon="34.967146667">
<time>2011-06-04T08:13:25Z</time>
</trkpt>
<trkpt lat="32.027396667" lon="34.967140000">
<time>2011-06-04T08:13:30Z</time>
</trkpt>
<trkpt lat="32.027398333" lon="34.967138333">
<time>2011-06-04T08:13:35Z</time>
</trkpt>
<trkpt lat="32.027391667" lon="34.967126667">
<time>2011-06-04T08:13:40Z</time>
</trkpt>
<trkpt lat="32.027385000" lon="34.967130000">
<time>2011-06-04T08:13:45Z</time>
</trkpt>
<trkpt lat="32.027385000" lon="34.967131667">
<time>2011-06-04T08:13:50Z</time>
</trkpt>
<trkpt lat="32.027403333" lon="34.967123333">
<time>2011-06-04T08:13:55Z</time>
</trkpt>
<trkpt lat="32.027421667" lon="34.967121667">
<time>2011-06-04T08:14:00Z</time>
</trkpt>
<trkpt lat="32.027423333" lon="34.967125000">
<time>2011-06-04T08:14:05Z</time>
</trkpt>
<trkpt lat="32.027421667" lon="34.967125000">
<time>2011-06-04T08:14:10Z</time>
</trkpt>
<trkpt lat="32.027403333" lon="34.967125000">
<time>2011-06-04T08:14:15Z</time>
</trkpt>
<trkpt lat="32.027393333" lon="34.967130000">
<time>2011-06-04T08:14:20Z</time>
</trkpt>
<trkpt lat="32.027405000" lon="34.967126667">
<time>2011-06-04T08:14:25Z</time>
</trkpt>
<trkpt lat="32.027411667" lon="34.967113333">
<time>2011-06-04T08:14:30Z</time>
</trkpt>
<trkpt lat="32.027423333" lon="34.967130000">
<time>2011-06-04T08:14:35Z</time>
</trkpt>
<trkpt lat="32.027425000" lon="34.967130000">
<time>2011-06-04T08:14:40Z</time>
</trkpt>
<trkpt lat="32.027428333" lon="34.967113333">
<time>2011-06-04T08:14:45Z</time>
</trkpt>
<trkpt lat="32.027446667" lon="34.967120000">
<time>2011-06-04T08:14:50Z</time>
</trkpt>
<trkpt lat="32.027443333" lon="34.967126667">
<time>2011-06-04T08:14:55Z</time>
</trkpt>
<trkpt lat="32.027443333" lon="34.967125000">
<time>2011-06-04T08:15:00Z</time>
</trkpt>
<trkpt lat="32.027446667" lon="34.967118333">
<time>2011-06-04T08:15:05Z</time>
</trkpt>
<trkpt lat="32.027451667" lon="34.967115000">
<time>2011-06-04T08:15:10Z</time>
</trkpt>
<trkpt lat="32.027451667" lon="34.967111667">
<time>2011-06-04T08:15:15Z</time>
</trkpt>
<trkpt lat="32.027456667" lon="34.967111667">
<time>2011-06-04T08:15:20Z</time>
</trkpt>
<trkpt lat="32.027455000" lon="34.967123333">
<time>2011-06-04T08:15:25Z</time>
</trkpt>
<trkpt lat="32.027443333" lon="34.967118333">
<time>2011-06-04T08:15:35Z</time>
</trkpt>
<trkpt lat="32.027461667" lon="34.967108333">
<time>2011-06-04T08:15:40Z</time>
</trkpt>
<trkpt lat="32.027463333" lon="34.967081667">
<time>2011-06-04T08:15:45Z</time>
</trkpt>
<trkpt lat="32.027458333" lon="34.967040000">
<time>2011-06-04T08:15:50Z</time>
</trkpt>
<trkpt lat="32.027445000" lon="34.967021667">
<time>2011-06-04T08:15:55Z</time>
</trkpt>
<trkpt lat="32.027433333" lon="34.966986667">
<time>2011-06-04T08:16:00Z</time>
</trkpt>
<trkpt lat="32.027430000" lon="34.966966667">
<time>2011-06-04T08:16:05Z</time>
</trkpt>
<trkpt lat="32.027415000" lon="34.966941667">
<time>2011-06-04T08:16:10Z</time>
</trkpt>
<trkpt lat="32.027401667" lon="34.966940000">
<time>2011-06-04T08:16:15Z</time>
</trkpt>
<trkpt lat="32.027380000" lon="34.966943333">
<time>2011-06-04T08:16:20Z</time>
</trkpt>
<trkpt lat="32.027375000" lon="34.966923333">
<time>2011-06-04T08:16:25Z</time>
</trkpt>
<trkpt lat="32.027391667" lon="34.966923333">
<time>2011-06-04T08:16:30Z</time>
</trkpt>
<trkpt lat="32.027398333" lon="34.966915000">
<time>2011-06-04T08:16:35Z</time>
</trkpt>
<trkpt lat="32.027386667" lon="34.966866667">
<time>2011-06-04T08:16:40Z</time>
</trkpt>
<trkpt lat="32.027366667" lon="34.966830000">
<time>2011-06-04T08:16:45Z</time>
</trkpt>
<trkpt lat="32.027336667" lon="34.966840000">
<time>2011-06-04T08:16:50Z</time>
</trkpt>
<trkpt lat="32.027320000" lon="34.966836667">
<time>2011-06-04T08:16:55Z</time>
</trkpt>
<trkpt lat="32.027310000" lon="34.966838333">
<time>2011-06-04T08:17:00Z</time>
</trkpt>
<trkpt lat="32.027316667" lon="34.966825000">
<time>2011-06-04T08:17:05Z</time>
</trkpt>
<trkpt lat="32.027318333" lon="34.966820000">
<time>2011-06-04T08:17:10Z</time>
</trkpt>
<trkpt lat="32.027320000" lon="34.966820000">
<time>2011-06-04T08:17:15Z</time>
</trkpt>
<trkpt lat="32.027320000" lon="34.966821667">
<time>2011-06-04T08:17:20Z</time>
</trkpt>
<trkpt lat="32.027320000" lon="34.966826667">
<time>2011-06-04T08:17:25Z</time>
</trkpt>
<trkpt lat="32.027315000" lon="34.966828333">
<time>2011-06-04T08:17:30Z</time>
</trkpt>
<trkpt lat="32.027311667" lon="34.966830000">
<time>2011-06-04T08:17:35Z</time>
</trkpt>
<trkpt lat="32.027315000" lon="34.966833333">
<time>2011-06-04T08:17:40Z</time>
</trkpt>
<trkpt lat="32.027313333" lon="34.966838333">
<time>2011-06-04T08:17:45Z</time>
</trkpt>
<trkpt lat="32.027311667" lon="34.966840000">
<time>2011-06-04T08:17:50Z</time>
</trkpt>
<trkpt lat="32.027311667" lon="34.966836667">
<time>2011-06-04T08:17:55Z</time>
</trkpt>
<trkpt lat="32.027315000" lon="34.966835000">
<time>2011-06-04T08:18:05Z</time>
</trkpt>
<trkpt lat="32.027310000" lon="34.966826667">
<time>2011-06-04T08:18:10Z</time>
</trkpt>
<trkpt lat="32.027306667" lon="34.966815000">
<time>2011-06-04T08:18:15Z</time>
</trkpt>
<trkpt lat="32.027303333" lon="34.966810000">
<time>2011-06-04T08:18:20Z</time>
</trkpt>
<trkpt lat="32.027336667" lon="34.966798333">
<time>2011-06-04T08:18:25Z</time>
</trkpt>
<trkpt lat="32.027453333" lon="34.966788333">
<time>2011-06-04T08:18:30Z</time>
</trkpt>
<trkpt lat="32.027560000" lon="34.966826667">
<time>2011-06-04T08:18:35Z</time>
</trkpt>
<trkpt lat="32.027655000" lon="34.966931667">
<time>2011-06-04T08:18:40Z</time>
</trkpt>
<trkpt lat="32.027688333" lon="34.967105000">
<time>2011-06-04T08:18:45Z</time>
</trkpt>
<trkpt lat="32.027645000" lon="34.967325000">
<time>2011-06-04T08:18:50Z</time>
</trkpt>
<trkpt lat="32.027558333" lon="34.967753333">
<time>2011-06-04T08:18:55Z</time>
</trkpt>
<trkpt lat="32.027536667" lon="34.968126667">
<time>2011-06-04T08:19:00Z</time>
</trkpt>
<trkpt lat="32.027585000" lon="34.968488333">
<time>2011-06-04T08:19:05Z</time>
</trkpt>
<trkpt lat="32.027681667" lon="34.968846667">
<time>2011-06-04T08:19:10Z</time>
</trkpt>
<trkpt lat="32.027761667" lon="34.969156667">
<time>2011-06-04T08:19:15Z</time>
</trkpt>
<trkpt lat="32.027845000" lon="34.969453333">
<time>2011-06-04T08:19:20Z</time>
</trkpt>
<trkpt lat="32.027991667" lon="34.969656667">
<time>2011-06-04T08:19:25Z</time>
</trkpt>
<trkpt lat="32.028191667" lon="34.969698333">
<time>2011-06-04T08:19:30Z</time>
</trkpt>
<trkpt lat="32.028376667" lon="34.969578333">
<time>2011-06-04T08:19:35Z</time>
</trkpt>
<trkpt lat="32.028508333" lon="34.969265000">
<time>2011-06-04T08:19:40Z</time>
</trkpt>
<trkpt lat="32.028605000" lon="34.968878333">
<time>2011-06-04T08:19:45Z</time>
</trkpt>
<trkpt lat="32.028711667" lon="34.968501667">
<time>2011-06-04T08:19:50Z</time>
</trkpt>
<trkpt lat="32.028811667" lon="34.968131667">
<time>2011-06-04T08:19:55Z</time>
</trkpt>
<trkpt lat="32.028916667" lon="34.967783333">
<time>2011-06-04T08:20:00Z</time>
</trkpt>
<trkpt lat="32.029000000" lon="34.967503333">
<time>2011-06-04T08:20:05Z</time>
</trkpt>
<trkpt lat="32.029091667" lon="34.967345000">
<time>2011-06-04T08:20:10Z</time>
</trkpt>
<trkpt lat="32.029200000" lon="34.967261667">
<time>2011-06-04T08:20:15Z</time>
</trkpt>
<trkpt lat="32.029306667" lon="34.967240000">
<time>2011-06-04T08:20:20Z</time>
</trkpt>
<trkpt lat="32.029445000" lon="34.967280000">
<time>2011-06-04T08:20:25Z</time>
</trkpt>
<trkpt lat="32.029496667" lon="34.967375000">
<time>2011-06-04T08:20:30Z</time>
</trkpt>
<trkpt lat="32.029546667" lon="34.967481667">
<time>2011-06-04T08:20:35Z</time>
</trkpt>
<trkpt lat="32.029565000" lon="34.967595000">
<time>2011-06-04T08:20:40Z</time>
</trkpt>
<trkpt lat="32.029563333" lon="34.967696667">
<time>2011-06-04T08:20:45Z</time>
</trkpt>
<trkpt lat="32.029568333" lon="34.967835000">
<time>2011-06-04T08:20:50Z</time>
</trkpt>
<trkpt lat="32.029575000" lon="34.967938333">
<time>2011-06-04T08:20:55Z</time>
</trkpt>
<trkpt lat="32.029575000" lon="34.968040000">
<time>2011-06-04T08:21:00Z</time>
</trkpt>
<trkpt lat="32.029580000" lon="34.968123333">
<time>2011-06-04T08:21:05Z</time>
</trkpt>
<trkpt lat="32.029598333" lon="34.968248333">
<time>2011-06-04T08:21:10Z</time>
</trkpt>
<trkpt lat="32.029615000" lon="34.968356667">
<time>2011-06-04T08:21:15Z</time>
</trkpt>
<trkpt lat="32.029636667" lon="34.968468333">
<time>2011-06-04T08:21:20Z</time>
</trkpt>
<trkpt lat="32.029678333" lon="34.968575000">
<time>2011-06-04T08:21:25Z</time>
</trkpt>
<trkpt lat="32.029725000" lon="34.968648333">
<time>2011-06-04T08:21:30Z</time>
</trkpt>
<trkpt lat="32.029828333" lon="34.968718333">
<time>2011-06-04T08:21:35Z</time>
</trkpt>
<trkpt lat="32.029921667" lon="34.968741667">
<time>2011-06-04T08:21:40Z</time>
</trkpt>
<trkpt lat="32.030013333" lon="34.968733333">
<time>2011-06-04T08:21:45Z</time>
</trkpt>
<trkpt lat="32.030078333" lon="34.968706667">
<time>2011-06-04T08:21:50Z</time>
</trkpt>
<trkpt lat="32.030155000" lon="34.968613333">
<time>2011-06-04T08:21:55Z</time>
</trkpt>
<trkpt lat="32.030198333" lon="34.968520000">
<time>2011-06-04T08:22:00Z</time>
</trkpt>
<trkpt lat="32.030228333" lon="34.968421667">
<time>2011-06-04T08:22:05Z</time>
</trkpt>
<trkpt lat="32.030235000" lon="34.968330000">
<time>2011-06-04T08:22:10Z</time>
</trkpt>
<trkpt lat="32.030238333" lon="34.968255000">
<time>2011-06-04T08:22:15Z</time>
</trkpt>
<trkpt lat="32.030246667" lon="34.968141667">
<time>2011-06-04T08:22:20Z</time>
</trkpt>
<trkpt lat="32.030246667" lon="34.968048333">
<time>2011-06-04T08:22:25Z</time>
</trkpt>
<trkpt lat="32.030251667" lon="34.967958333">
<time>2011-06-04T08:22:30Z</time>
</trkpt>
<trkpt lat="32.030265000" lon="34.967868333">
<time>2011-06-04T08:22:35Z</time>
</trkpt>
<trkpt lat="32.030275000" lon="34.967786667">
<time>2011-06-04T08:22:40Z</time>
</trkpt>
<trkpt lat="32.030295000" lon="34.967705000">
<time>2011-06-04T08:22:45Z</time>
</trkpt>
<trkpt lat="32.030343333" lon="34.967620000">
<time>2011-06-04T08:22:50Z</time>
</trkpt>
<trkpt lat="32.030391667" lon="34.967541667">
<time>2011-06-04T08:22:55Z</time>
</trkpt>
<trkpt lat="32.030436667" lon="34.967478333">
<time>2011-06-04T08:23:00Z</time>
</trkpt>
<trkpt lat="32.030498333" lon="34.967416667">
<time>2011-06-04T08:23:05Z</time>
</trkpt>
<trkpt lat="32.030576667" lon="34.967361667">
<time>2011-06-04T08:23:10Z</time>
</trkpt>
<trkpt lat="32.030645000" lon="34.967308333">
<time>2011-06-04T08:23:15Z</time>
</trkpt>
<trkpt lat="32.030726667" lon="34.967261667">
<time>2011-06-04T08:23:20Z</time>
</trkpt>
<trkpt lat="32.030791667" lon="34.967233333">
<time>2011-06-04T08:23:25Z</time>
</trkpt>
<trkpt lat="32.030908333" lon="34.967195000">
<time>2011-06-04T08:23:30Z</time>
</trkpt>
<trkpt lat="32.030998333" lon="34.967155000">
<time>2011-06-04T08:23:35Z</time>
</trkpt>
<trkpt lat="32.031090000" lon="34.967116667">
<time>2011-06-04T08:23:40Z</time>
</trkpt>
<trkpt lat="32.031168333" lon="34.967090000">
<time>2011-06-04T08:23:45Z</time>
</trkpt>
<trkpt lat="32.031295000" lon="34.967031667">
<time>2011-06-04T08:23:50Z</time>
</trkpt>
<trkpt lat="32.031401667" lon="34.966986667">
<time>2011-06-04T08:23:55Z</time>
</trkpt>
<trkpt lat="32.031511667" lon="34.966945000">
<time>2011-06-04T08:24:00Z</time>
</trkpt>
<trkpt lat="32.031620000" lon="34.966905000">
<time>2011-06-04T08:24:05Z</time>
</trkpt>
<trkpt lat="32.031728333" lon="34.966866667">
<time>2011-06-04T08:24:10Z</time>
</trkpt>
<trkpt lat="32.031833333" lon="34.966848333">
<time>2011-06-04T08:24:15Z</time>
</trkpt>
<trkpt lat="32.031931667" lon="34.966831667">
<time>2011-06-04T08:24:20Z</time>
</trkpt>
<trkpt lat="32.032025000" lon="34.966825000">
<time>2011-06-04T08:24:25Z</time>
</trkpt>
<trkpt lat="32.032098333" lon="34.966831667">
<time>2011-06-04T08:24:30Z</time>
</trkpt>
<trkpt lat="32.032206667" lon="34.966828333">
<time>2011-06-04T08:24:35Z</time>
</trkpt>
<trkpt lat="32.032285000" lon="34.966851667">
<time>2011-06-04T08:24:40Z</time>
</trkpt>
<trkpt lat="32.032363333" lon="34.966870000">
<time>2011-06-04T08:24:45Z</time>
</trkpt>
<trkpt lat="32.032381667" lon="34.966876667">
<time>2011-06-04T08:24:50Z</time>
</trkpt>
<trkpt lat="32.032366667" lon="34.966883333">
<time>2011-06-04T08:24:55Z</time>
</trkpt>
<trkpt lat="32.032383333" lon="34.966868333">
<time>2011-06-04T08:25:00Z</time>
</trkpt>
<trkpt lat="32.032385000" lon="34.966860000">
<time>2011-06-04T08:25:05Z</time>
</trkpt>
<trkpt lat="32.032383333" lon="34.966851667">
<time>2011-06-04T08:25:10Z</time>
</trkpt>
<trkpt lat="32.032383333" lon="34.966843333">
<time>2011-06-04T08:25:15Z</time>
</trkpt>
<trkpt lat="32.032388333" lon="34.966835000">
<time>2011-06-04T08:25:20Z</time>
</trkpt>
<trkpt lat="32.032393333" lon="34.966828333">
<time>2011-06-04T08:25:25Z</time>
</trkpt>
<trkpt lat="32.032393333" lon="34.966826667">
<time>2011-06-04T08:25:30Z</time>
</trkpt>
<trkpt lat="32.032411667" lon="34.966816667">
<time>2011-06-04T08:25:35Z</time>
</trkpt>
<trkpt lat="32.032413333" lon="34.966803333">
<time>2011-06-04T08:25:40Z</time>
</trkpt>
<trkpt lat="32.032411667" lon="34.966788333">
<time>2011-06-04T08:25:45Z</time>
</trkpt>
<trkpt lat="32.032406667" lon="34.966791667">
<time>2011-06-04T08:25:50Z</time>
</trkpt>
<trkpt lat="32.032403333" lon="34.966793333">
<time>2011-06-04T08:25:55Z</time>
</trkpt>
<trkpt lat="32.032393333" lon="34.966796667">
<time>2011-06-04T08:26:00Z</time>
</trkpt>
<trkpt lat="32.032385000" lon="34.966801667">
<time>2011-06-04T08:26:05Z</time>
</trkpt>
<trkpt lat="32.032385000" lon="34.966790000">
<time>2011-06-04T08:26:10Z</time>
</trkpt>
<trkpt lat="32.032385000" lon="34.966796667">
<time>2011-06-04T08:26:15Z</time>
</trkpt>
<trkpt lat="32.032386667" lon="34.966800000">
<time>2011-06-04T08:26:20Z</time>
</trkpt>
<trkpt lat="32.032376667" lon="34.966828333">
<time>2011-06-04T08:26:25Z</time>
</trkpt>
<trkpt lat="32.032378333" lon="34.966830000">
<time>2011-06-04T08:26:30Z</time>
</trkpt>
<trkpt lat="32.032383333" lon="34.966816667">
<time>2011-06-04T08:26:35Z</time>
</trkpt>
<trkpt lat="32.032381667" lon="34.966801667">
<time>2011-06-04T08:26:40Z</time>
</trkpt>
<trkpt lat="32.032386667" lon="34.966798333">
<time>2011-06-04T08:26:50Z</time>
</trkpt>
<trkpt lat="32.032386667" lon="34.966830000">
<time>2011-06-04T08:26:55Z</time>
</trkpt>
<trkpt lat="32.032381667" lon="34.966845000">
<time>2011-06-04T08:27:00Z</time>
</trkpt>
<trkpt lat="32.032376667" lon="34.966851667">
<time>2011-06-04T08:27:05Z</time>
</trkpt>
<trkpt lat="32.032368333" lon="34.966853333">
<time>2011-06-04T08:27:10Z</time>
</trkpt>
<trkpt lat="32.032388333" lon="34.966846667">
<time>2011-06-04T08:27:15Z</time>
</trkpt>
<trkpt lat="32.032400000" lon="34.966841667">
<time>2011-06-04T08:27:20Z</time>
</trkpt>
<trkpt lat="32.032413333" lon="34.966831667">
<time>2011-06-04T08:27:25Z</time>
</trkpt>
<trkpt lat="32.032421667" lon="34.966823333">
<time>2011-06-04T08:27:30Z</time>
</trkpt>
<trkpt lat="32.032430000" lon="34.966816667">
<time>2011-06-04T08:27:35Z</time>
</trkpt>
<trkpt lat="32.032433333" lon="34.966811667">
<time>2011-06-04T08:27:40Z</time>
</trkpt>
<trkpt lat="32.032523333" lon="34.966801667">
<time>2011-06-04T08:27:45Z</time>
</trkpt>
<trkpt lat="32.032668333" lon="34.966810000">
<time>2011-06-04T08:27:50Z</time>
</trkpt>
<trkpt lat="32.032793333" lon="34.966821667">
<time>2011-06-04T08:27:55Z</time>
</trkpt>
<trkpt lat="32.033038333" lon="34.966818333">
<time>2011-06-04T08:28:00Z</time>
</trkpt>
<trkpt lat="32.033225000" lon="34.966786667">
<time>2011-06-04T08:28:05Z</time>
</trkpt>
<trkpt lat="32.033411667" lon="34.966746667">
<time>2011-06-04T08:28:10Z</time>
</trkpt>
<trkpt lat="32.033600000" lon="34.966710000">
<time>2011-06-04T08:28:15Z</time>
</trkpt>
<trkpt lat="32.033751667" lon="34.966681667">
<time>2011-06-04T08:28:20Z</time>
</trkpt>
<trkpt lat="32.034008333" lon="34.966668333">
<time>2011-06-04T08:28:25Z</time>
</trkpt>
<trkpt lat="32.034253333" lon="34.966661667">
<time>2011-06-04T08:28:30Z</time>
</trkpt>
<trkpt lat="32.034531667" lon="34.966661667">
<time>2011-06-04T08:28:35Z</time>
</trkpt>
<trkpt lat="32.034746667" lon="34.966661667">
<time>2011-06-04T08:28:40Z</time>
</trkpt>
<trkpt lat="32.035018333" lon="34.966645000">
<time>2011-06-04T08:28:45Z</time>
</trkpt>
<trkpt lat="32.035216667" lon="34.966623333">
<time>2011-06-04T08:28:50Z</time>
</trkpt>
<trkpt lat="32.035390000" lon="34.966601667">
<time>2011-06-04T08:28:55Z</time>
</trkpt>
<trkpt lat="32.035535000" lon="34.966585000">
<time>2011-06-04T08:29:00Z</time>
</trkpt>
<trkpt lat="32.035636667" lon="34.966561667">
<time>2011-06-04T08:29:05Z</time>
</trkpt>
<trkpt lat="32.035765000" lon="34.966530000">
<time>2011-06-04T08:29:10Z</time>
</trkpt>
<trkpt lat="32.035806667" lon="34.966466667">
<time>2011-06-04T08:29:15Z</time>
</trkpt>
<trkpt lat="32.035781667" lon="34.966333333">
<time>2011-06-04T08:29:20Z</time>
</trkpt>
<trkpt lat="32.035763333" lon="34.966140000">
<time>2011-06-04T08:29:25Z</time>
</trkpt>
<trkpt lat="32.035668333" lon="34.965946667">
<time>2011-06-04T08:29:30Z</time>
</trkpt>
<trkpt lat="32.035625000" lon="34.965770000">
<time>2011-06-04T08:29:35Z</time>
</trkpt>
<trkpt lat="32.035726667" lon="34.965678333">
<time>2011-06-04T08:29:40Z</time>
</trkpt>
<trkpt lat="32.035835000" lon="34.965610000">
<time>2011-06-04T08:29:45Z</time>
</trkpt>
<trkpt lat="32.035910000" lon="34.965561667">
<time>2011-06-04T08:29:50Z</time>
</trkpt>
<trkpt lat="32.036026667" lon="34.965518333">
<time>2011-06-04T08:29:55Z</time>
</trkpt>
<trkpt lat="32.036125000" lon="34.965493333">
<time>2011-06-04T08:30:00Z</time>
</trkpt>
<trkpt lat="32.036228333" lon="34.965473333">
<time>2011-06-04T08:30:05Z</time>
</trkpt>
<trkpt lat="32.036316667" lon="34.965436667">
<time>2011-06-04T08:30:10Z</time>
</trkpt>
<trkpt lat="32.036413333" lon="34.965395000">
<time>2011-06-04T08:30:15Z</time>
</trkpt>
<trkpt lat="32.036508333" lon="34.965365000">
<time>2011-06-04T08:30:20Z</time>
</trkpt>
<trkpt lat="32.036603333" lon="34.965326667">
<time>2011-06-04T08:30:25Z</time>
</trkpt>
<trkpt lat="32.036705000" lon="34.965290000">
<time>2011-06-04T08:30:30Z</time>
</trkpt>
<trkpt lat="32.036800000" lon="34.965260000">
<time>2011-06-04T08:30:35Z</time>
</trkpt>
<trkpt lat="32.036930000" lon="34.965223333">
<time>2011-06-04T08:30:40Z</time>
</trkpt>
<trkpt lat="32.037050000" lon="34.965183333">
<time>2011-06-04T08:30:45Z</time>
</trkpt>
<trkpt lat="32.037183333" lon="34.965133333">
<time>2011-06-04T08:30:50Z</time>
</trkpt>
<trkpt lat="32.037298333" lon="34.965093333">
<time>2011-06-04T08:30:55Z</time>
</trkpt>
<trkpt lat="32.037411667" lon="34.965053333">
<time>2011-06-04T08:31:00Z</time>
</trkpt>
<trkpt lat="32.037591667" lon="34.965005000">
<time>2011-06-04T08:31:05Z</time>
</trkpt>
<trkpt lat="32.037766667" lon="34.964980000">
<time>2011-06-04T08:31:10Z</time>
</trkpt>
<trkpt lat="32.037958333" lon="34.964928333">
<time>2011-06-04T08:31:15Z</time>
</trkpt>
<trkpt lat="32.038123333" lon="34.964890000">
<time>2011-06-04T08:31:20Z</time>
</trkpt>
<trkpt lat="32.038283333" lon="34.964786667">
<time>2011-06-04T08:31:25Z</time>
</trkpt>
<trkpt lat="32.038240000" lon="34.964608333">
<time>2011-06-04T08:31:30Z</time>
</trkpt>
<trkpt lat="32.038130000" lon="34.964443333">
<time>2011-06-04T08:31:35Z</time>
</trkpt>
<trkpt lat="32.038035000" lon="34.964278333">
<time>2011-06-04T08:31:40Z</time>
</trkpt>
<trkpt lat="32.037976667" lon="34.964133333">
<time>2011-06-04T08:31:45Z</time>
</trkpt>
<trkpt lat="32.037906667" lon="34.963883333">
<time>2011-06-04T08:31:50Z</time>
</trkpt>
<trkpt lat="32.037895000" lon="34.963695000">
<time>2011-06-04T08:31:55Z</time>
</trkpt>
<trkpt lat="32.037873333" lon="34.963531667">
<time>2011-06-04T08:32:00Z</time>
</trkpt>
<trkpt lat="32.037926667" lon="34.963443333">
<time>2011-06-04T08:32:05Z</time>
</trkpt>
<trkpt lat="32.037953333" lon="34.963311667">
<time>2011-06-04T08:32:10Z</time>
</trkpt>
<trkpt lat="32.037938333" lon="34.963286667">
<time>2011-06-04T08:32:15Z</time>
</trkpt>
<trkpt lat="32.037938333" lon="34.963295000">
<time>2011-06-04T08:32:20Z</time>
</trkpt>
<trkpt lat="32.037968333" lon="34.963338333">
<time>2011-06-04T08:32:25Z</time>
</trkpt>
<trkpt lat="32.037961667" lon="34.963380000">
<time>2011-06-04T08:32:30Z</time>
</trkpt>
<trkpt lat="32.037906667" lon="34.963396667">
<time>2011-06-04T08:32:35Z</time>
</trkpt>
<trkpt lat="32.037845000" lon="34.963416667">
<time>2011-06-04T08:32:40Z</time>
</trkpt>
<trkpt lat="32.037826667" lon="34.963451667">
<time>2011-06-04T08:32:45Z</time>
</trkpt>
<trkpt lat="32.037825000" lon="34.963531667">
<time>2011-06-04T08:32:50Z</time>
</trkpt>
<trkpt lat="32.037826667" lon="34.963650000">
<time>2011-06-04T08:32:55Z</time>
</trkpt>
<trkpt lat="32.037866667" lon="34.963800000">
<time>2011-06-04T08:33:00Z</time>
</trkpt>
<trkpt lat="32.037883333" lon="34.963910000">
<time>2011-06-04T08:33:05Z</time>
</trkpt>
<trkpt lat="32.037925000" lon="34.964071667">
<time>2011-06-04T08:33:10Z</time>
</trkpt>
<trkpt lat="32.037953333" lon="34.964180000">
<time>2011-06-04T08:33:15Z</time>
</trkpt>
<trkpt lat="32.038015000" lon="34.964325000">
<time>2011-06-04T08:33:20Z</time>
</trkpt>
<trkpt lat="32.038058333" lon="34.964431667">
<time>2011-06-04T08:33:25Z</time>
</trkpt>
<trkpt lat="32.038151667" lon="34.964591667">
<time>2011-06-04T08:33:30Z</time>
</trkpt>
<trkpt lat="32.038211667" lon="34.964695000">
<time>2011-06-04T08:33:35Z</time>
</trkpt>
<trkpt lat="32.038315000" lon="34.964818333">
<time>2011-06-04T08:33:40Z</time>
</trkpt>
<trkpt lat="32.038398333" lon="34.964866667">
<time>2011-06-04T08:33:45Z</time>
</trkpt>
<trkpt lat="32.038498333" lon="34.964966667">
<time>2011-06-04T08:33:50Z</time>
</trkpt>
<trkpt lat="32.038578333" lon="34.965063333">
<time>2011-06-04T08:33:55Z</time>
</trkpt>
<trkpt lat="32.038675000" lon="34.965165000">
<time>2011-06-04T08:34:00Z</time>
</trkpt>
<trkpt lat="32.038780000" lon="34.965231667">
<time>2011-06-04T08:34:05Z</time>
</trkpt>
<trkpt lat="32.038896667" lon="34.965281667">
<time>2011-06-04T08:34:10Z</time>
</trkpt>
<trkpt lat="32.038985000" lon="34.965308333">
<time>2011-06-04T08:34:15Z</time>
</trkpt>
<trkpt lat="32.039085000" lon="34.965338333">
<time>2011-06-04T08:34:20Z</time>
</trkpt>
<trkpt lat="32.039196667" lon="34.965371667">
<time>2011-06-04T08:34:25Z</time>
</trkpt>
<trkpt lat="32.039340000" lon="34.965411667">
<time>2011-06-04T08:34:30Z</time>
</trkpt>
<trkpt lat="32.039426667" lon="34.965436667">
<time>2011-06-04T08:34:35Z</time>
</trkpt>
<trkpt lat="32.039523333" lon="34.965478333">
<time>2011-06-04T08:34:40Z</time>
</trkpt>
<trkpt lat="32.039610000" lon="34.965523333">
<time>2011-06-04T08:34:45Z</time>
</trkpt>
<trkpt lat="32.039693333" lon="34.965583333">
<time>2011-06-04T08:34:50Z</time>
</trkpt>
<trkpt lat="32.039698333" lon="34.965756667">
<time>2011-06-04T08:34:55Z</time>
</trkpt>
<trkpt lat="32.039651667" lon="34.965923333">
<time>2011-06-04T08:35:00Z</time>
</trkpt>
<trkpt lat="32.039606667" lon="34.966078333">
<time>2011-06-04T08:35:05Z</time>
</trkpt>
<trkpt lat="32.039571667" lon="34.966226667">
<time>2011-06-04T08:35:10Z</time>
</trkpt>
<trkpt lat="32.039505000" lon="34.966375000">
<time>2011-06-04T08:35:15Z</time>
</trkpt>
<trkpt lat="32.039423333" lon="34.966525000">
<time>2011-06-04T08:35:20Z</time>
</trkpt>
<trkpt lat="32.039350000" lon="34.966670000">
<time>2011-06-04T08:35:25Z</time>
</trkpt>
<trkpt lat="32.039290000" lon="34.966815000">
<time>2011-06-04T08:35:30Z</time>
</trkpt>
<trkpt lat="32.039263333" lon="34.966946667">
<time>2011-06-04T08:35:35Z</time>
</trkpt>
<trkpt lat="32.039236667" lon="34.967081667">
<time>2011-06-04T08:35:40Z</time>
</trkpt>
<trkpt lat="32.039205000" lon="34.967218333">
<time>2011-06-04T08:35:45Z</time>
</trkpt>
<trkpt lat="32.039181667" lon="34.967321667">
<time>2011-06-04T08:35:50Z</time>
</trkpt>
<trkpt lat="32.039188333" lon="34.967423333">
<time>2011-06-04T08:35:55Z</time>
</trkpt>
<trkpt lat="32.039285000" lon="34.967540000">
<time>2011-06-04T08:36:00Z</time>
</trkpt>
<trkpt lat="32.039398333" lon="34.967618333">
<time>2011-06-04T08:36:05Z</time>
</trkpt>
<trkpt lat="32.039531667" lon="34.967650000">
<time>2011-06-04T08:36:10Z</time>
</trkpt>
<trkpt lat="32.039676667" lon="34.967643333">
<time>2011-06-04T08:36:15Z</time>
</trkpt>
<trkpt lat="32.039828333" lon="34.967616667">
<time>2011-06-04T08:36:20Z</time>
</trkpt>
<trkpt lat="32.040028333" lon="34.967605000">
<time>2011-06-04T08:36:25Z</time>
</trkpt>
<trkpt lat="32.040105000" lon="34.967511667">
<time>2011-06-04T08:36:30Z</time>
</trkpt>
<trkpt lat="32.040213333" lon="34.967346667">
<time>2011-06-04T08:36:35Z</time>
</trkpt>
<trkpt lat="32.040306667" lon="34.967245000">
<time>2011-06-04T08:36:40Z</time>
</trkpt>
<trkpt lat="32.040478333" lon="34.967093333">
<time>2011-06-04T08:36:45Z</time>
</trkpt>
<trkpt lat="32.040585000" lon="34.967006667">
<time>2011-06-04T08:36:50Z</time>
</trkpt>
<trkpt lat="32.040746667" lon="34.966853333">
<time>2011-06-04T08:36:55Z</time>
</trkpt>
<trkpt lat="32.040836667" lon="34.966751667">
<time>2011-06-04T08:37:00Z</time>
</trkpt>
<trkpt lat="32.040958333" lon="34.966645000">
<time>2011-06-04T08:37:05Z</time>
</trkpt>
<trkpt lat="32.041080000" lon="34.966538333">
<time>2011-06-04T08:37:10Z</time>
</trkpt>
<trkpt lat="32.041196667" lon="34.966418333">
<time>2011-06-04T08:37:15Z</time>
</trkpt>
<trkpt lat="32.041280000" lon="34.966323333">
<time>2011-06-04T08:37:20Z</time>
</trkpt>
<trkpt lat="32.041368333" lon="34.966210000">
<time>2011-06-04T08:37:25Z</time>
</trkpt>
<trkpt lat="32.041438333" lon="34.966078333">
<time>2011-06-04T08:37:30Z</time>
</trkpt>
<trkpt lat="32.041551667" lon="34.965996667">
<time>2011-06-04T08:37:35Z</time>
</trkpt>
<trkpt lat="32.041698333" lon="34.965975000">
<time>2011-06-04T08:37:40Z</time>
</trkpt>
<trkpt lat="32.041818333" lon="34.965955000">
<time>2011-06-04T08:37:45Z</time>
</trkpt>
<trkpt lat="32.041963333" lon="34.965915000">
<time>2011-06-04T08:37:50Z</time>
</trkpt>
<trkpt lat="32.042121667" lon="34.965875000">
<time>2011-06-04T08:37:55Z</time>
</trkpt>
<trkpt lat="32.042253333" lon="34.965920000">
<time>2011-06-04T08:38:00Z</time>
</trkpt>
<trkpt lat="32.042348333" lon="34.966035000">
<time>2011-06-04T08:38:05Z</time>
</trkpt>
<trkpt lat="32.042470000" lon="34.966161667">
<time>2011-06-04T08:38:10Z</time>
</trkpt>
<trkpt lat="32.042605000" lon="34.966280000">
<time>2011-06-04T08:38:15Z</time>
</trkpt>
<trkpt lat="32.042731667" lon="34.966388333">
<time>2011-06-04T08:38:20Z</time>
</trkpt>
<trkpt lat="32.042876667" lon="34.966458333">
<time>2011-06-04T08:38:25Z</time>
</trkpt>
<trkpt lat="32.043040000" lon="34.966496667">
<time>2011-06-04T08:38:30Z</time>
</trkpt>
<trkpt lat="32.043225000" lon="34.966528333">
<time>2011-06-04T08:38:35Z</time>
</trkpt>
<trkpt lat="32.043438333" lon="34.966581667">
<time>2011-06-04T08:38:40Z</time>
</trkpt>
<trkpt lat="32.043641667" lon="34.966698333">
<time>2011-06-04T08:38:45Z</time>
</trkpt>
<trkpt lat="32.043843333" lon="34.966803333">
<time>2011-06-04T08:38:50Z</time>
</trkpt>
<trkpt lat="32.044020000" lon="34.966811667">
<time>2011-06-04T08:38:55Z</time>
</trkpt>
<trkpt lat="32.044133333" lon="34.966780000">
<time>2011-06-04T08:39:00Z</time>
</trkpt>
<trkpt lat="32.044220000" lon="34.966706667">
<time>2011-06-04T08:39:05Z</time>
</trkpt>
<trkpt lat="32.044275000" lon="34.966623333">
<time>2011-06-04T08:39:10Z</time>
</trkpt>
<trkpt lat="32.044321667" lon="34.966538333">
<time>2011-06-04T08:39:15Z</time>
</trkpt>
<trkpt lat="32.044380000" lon="34.966448333">
<time>2011-06-04T08:39:20Z</time>
</trkpt>
<trkpt lat="32.044435000" lon="34.966381667">
<time>2011-06-04T08:39:25Z</time>
</trkpt>
<trkpt lat="32.044503333" lon="34.966326667">
<time>2011-06-04T08:39:30Z</time>
</trkpt>
<trkpt lat="32.044575000" lon="34.966265000">
<time>2011-06-04T08:39:35Z</time>
</trkpt>
<trkpt lat="32.044663333" lon="34.966206667">
<time>2011-06-04T08:39:40Z</time>
</trkpt>
<trkpt lat="32.044760000" lon="34.966183333">
<time>2011-06-04T08:39:45Z</time>
</trkpt>
<trkpt lat="32.044858333" lon="34.966203333">
<time>2011-06-04T08:39:50Z</time>
</trkpt>
<trkpt lat="32.044920000" lon="34.966191667">
<time>2011-06-04T08:39:55Z</time>
</trkpt>
<trkpt lat="32.045015000" lon="34.966198333">
<time>2011-06-04T08:40:00Z</time>
</trkpt>
<trkpt lat="32.045096667" lon="34.966196667">
<time>2011-06-04T08:40:05Z</time>
</trkpt>
<trkpt lat="32.045213333" lon="34.966206667">
<time>2011-06-04T08:40:10Z</time>
</trkpt>
<trkpt lat="32.045300000" lon="34.966215000">
<time>2011-06-04T08:40:15Z</time>
</trkpt>
<trkpt lat="32.045423333" lon="34.966236667">
<time>2011-06-04T08:40:20Z</time>
</trkpt>
<trkpt lat="32.045511667" lon="34.966253333">
<time>2011-06-04T08:40:25Z</time>
</trkpt>
<trkpt lat="32.045701667" lon="34.966315000">
<time>2011-06-04T08:40:30Z</time>
</trkpt>
<trkpt lat="32.045838333" lon="34.966360000">
<time>2011-06-04T08:40:35Z</time>
</trkpt>
<trkpt lat="32.045963333" lon="34.966430000">
<time>2011-06-04T08:40:40Z</time>
</trkpt>
<trkpt lat="32.046056667" lon="34.966508333">
<time>2011-06-04T08:40:45Z</time>
</trkpt>
<trkpt lat="32.046148333" lon="34.966573333">
<time>2011-06-04T08:40:50Z</time>
</trkpt>
<trkpt lat="32.046233333" lon="34.966615000">
<time>2011-06-04T08:40:55Z</time>
</trkpt>
<trkpt lat="32.046356667" lon="34.966603333">
<time>2011-06-04T08:41:00Z</time>
</trkpt>
<trkpt lat="32.046448333" lon="34.966596667">
<time>2011-06-04T08:41:05Z</time>
</trkpt>
<trkpt lat="32.046520000" lon="34.966640000">
<time>2011-06-04T08:41:10Z</time>
</trkpt>
<trkpt lat="32.046596667" lon="34.966680000">
<time>2011-06-04T08:41:15Z</time>
</trkpt>
<trkpt lat="32.046656667" lon="34.966710000">
<time>2011-06-04T08:41:20Z</time>
</trkpt>
<trkpt lat="32.046723333" lon="34.966733333">
<time>2011-06-04T08:41:25Z</time>
</trkpt>
<trkpt lat="32.046793333" lon="34.966761667">
<time>2011-06-04T08:41:30Z</time>
</trkpt>
<trkpt lat="32.046851667" lon="34.966793333">
<time>2011-06-04T08:41:35Z</time>
</trkpt>
<trkpt lat="32.046918333" lon="34.966818333">
<time>2011-06-04T08:41:40Z</time>
</trkpt>
<trkpt lat="32.046985000" lon="34.966835000">
<time>2011-06-04T08:41:45Z</time>
</trkpt>
<trkpt lat="32.047048333" lon="34.966845000">
<time>2011-06-04T08:41:50Z</time>
</trkpt>
<trkpt lat="32.047115000" lon="34.966858333">
<time>2011-06-04T08:41:55Z</time>
</trkpt>
<trkpt lat="32.047180000" lon="34.966865000">
<time>2011-06-04T08:42:00Z</time>
</trkpt>
<trkpt lat="32.047241667" lon="34.966871667">
<time>2011-06-04T08:42:05Z</time>
</trkpt>
<trkpt lat="32.047306667" lon="34.966880000">
<time>2011-06-04T08:42:10Z</time>
</trkpt>
<trkpt lat="32.047371667" lon="34.966898333">
<time>2011-06-04T08:42:15Z</time>
</trkpt>
<trkpt lat="32.047455000" lon="34.966890000">
<time>2011-06-04T08:42:20Z</time>
</trkpt>
<trkpt lat="32.047541667" lon="34.966875000">
<time>2011-06-04T08:42:25Z</time>
</trkpt>
<trkpt lat="32.047610000" lon="34.966870000">
<time>2011-06-04T08:42:30Z</time>
</trkpt>
<trkpt lat="32.047680000" lon="34.966885000">
<time>2011-06-04T08:42:35Z</time>
</trkpt>
<trkpt lat="32.047746667" lon="34.966908333">
<time>2011-06-04T08:42:40Z</time>
</trkpt>
<trkpt lat="32.047826667" lon="34.966946667">
<time>2011-06-04T08:42:45Z</time>
</trkpt>
<trkpt lat="32.047910000" lon="34.967001667">
<time>2011-06-04T08:42:50Z</time>
</trkpt>
<trkpt lat="32.047993333" lon="34.967066667">
<time>2011-06-04T08:42:55Z</time>
</trkpt>
<trkpt lat="32.048078333" lon="34.967135000">
<time>2011-06-04T08:43:00Z</time>
</trkpt>
<trkpt lat="32.048153333" lon="34.967211667">
<time>2011-06-04T08:43:05Z</time>
</trkpt>
<trkpt lat="32.048216667" lon="34.967303333">
<time>2011-06-04T08:43:10Z</time>
</trkpt>
<trkpt lat="32.048271667" lon="34.967411667">
<time>2011-06-04T08:43:15Z</time>
</trkpt>
<trkpt lat="32.048338333" lon="34.967536667">
<time>2011-06-04T08:43:20Z</time>
</trkpt>
<trkpt lat="32.048410000" lon="34.967668333">
<time>2011-06-04T08:43:25Z</time>
</trkpt>
<trkpt lat="32.048456667" lon="34.967753333">
<time>2011-06-04T08:43:30Z</time>
</trkpt>
<trkpt lat="32.048536667" lon="34.967876667">
<time>2011-06-04T08:43:35Z</time>
</trkpt>
<trkpt lat="32.048601667" lon="34.967945000">
<time>2011-06-04T08:43:40Z</time>
</trkpt>
<trkpt lat="32.048700000" lon="34.968021667">
<time>2011-06-04T08:43:45Z</time>
</trkpt>
<trkpt lat="32.048766667" lon="34.968068333">
<time>2011-06-04T08:43:50Z</time>
</trkpt>
<trkpt lat="32.048890000" lon="34.968123333">
<time>2011-06-04T08:43:55Z</time>
</trkpt>
<trkpt lat="32.048965000" lon="34.968145000">
<time>2011-06-04T08:44:00Z</time>
</trkpt>
<trkpt lat="32.049058333" lon="34.968153333">
<time>2011-06-04T08:44:05Z</time>
</trkpt>
<trkpt lat="32.049140000" lon="34.968141667">
<time>2011-06-04T08:44:10Z</time>
</trkpt>
<trkpt lat="32.049225000" lon="34.968111667">
<time>2011-06-04T08:44:15Z</time>
</trkpt>
<trkpt lat="32.049280000" lon="34.968088333">
<time>2011-06-04T08:44:20Z</time>
</trkpt>
<trkpt lat="32.049338333" lon="34.968085000">
<time>2011-06-04T08:44:25Z</time>
</trkpt>
<trkpt lat="32.049406667" lon="34.968080000">
<time>2011-06-04T08:44:30Z</time>
</trkpt>
<trkpt lat="32.049481667" lon="34.968083333">
<time>2011-06-04T08:44:35Z</time>
</trkpt>
<trkpt lat="32.049553333" lon="34.968073333">
<time>2011-06-04T08:44:40Z</time>
</trkpt>
<trkpt lat="32.049623333" lon="34.968065000">
<time>2011-06-04T08:44:45Z</time>
</trkpt>
<trkpt lat="32.049696667" lon="34.968065000">
<time>2011-06-04T08:44:50Z</time>
</trkpt>
<trkpt lat="32.049768333" lon="34.968058333">
<time>2011-06-04T08:44:55Z</time>
</trkpt>
<trkpt lat="32.049835000" lon="34.968055000">
<time>2011-06-04T08:45:00Z</time>
</trkpt>
<trkpt lat="32.049908333" lon="34.968045000">
<time>2011-06-04T08:45:05Z</time>
</trkpt>
<trkpt lat="32.049986667" lon="34.968031667">
<time>2011-06-04T08:45:10Z</time>
</trkpt>
<trkpt lat="32.050056667" lon="34.968003333">
<time>2011-06-04T08:45:15Z</time>
</trkpt>
<trkpt lat="32.050125000" lon="34.967951667">
<time>2011-06-04T08:45:20Z</time>
</trkpt>
<trkpt lat="32.050186667" lon="34.967913333">
<time>2011-06-04T08:45:25Z</time>
</trkpt>
<trkpt lat="32.050258333" lon="34.967886667">
<time>2011-06-04T08:45:30Z</time>
</trkpt>
<trkpt lat="32.050341667" lon="34.967880000">
<time>2011-06-04T08:45:35Z</time>
</trkpt>
<trkpt lat="32.050426667" lon="34.967886667">
<time>2011-06-04T08:45:40Z</time>
</trkpt>
<trkpt lat="32.050515000" lon="34.967891667">
<time>2011-06-04T08:45:45Z</time>
</trkpt>
<trkpt lat="32.050601667" lon="34.967900000">
<time>2011-06-04T08:45:50Z</time>
</trkpt>
<trkpt lat="32.050685000" lon="34.967905000">
<time>2011-06-04T08:45:55Z</time>
</trkpt>
<trkpt lat="32.050771667" lon="34.967910000">
<time>2011-06-04T08:46:00Z</time>
</trkpt>
<trkpt lat="32.050861667" lon="34.967920000">
<time>2011-06-04T08:46:05Z</time>
</trkpt>
<trkpt lat="32.050958333" lon="34.967931667">
<time>2011-06-04T08:46:10Z</time>
</trkpt>
<trkpt lat="32.051073333" lon="34.967950000">
<time>2011-06-04T08:46:15Z</time>
</trkpt>
<trkpt lat="32.051175000" lon="34.967963333">
<time>2011-06-04T08:46:20Z</time>
</trkpt>
<trkpt lat="32.051275000" lon="34.967981667">
<time>2011-06-04T08:46:25Z</time>
</trkpt>
<trkpt lat="32.051380000" lon="34.968008333">
<time>2011-06-04T08:46:30Z</time>
</trkpt>
<trkpt lat="32.051470000" lon="34.968033333">
<time>2011-06-04T08:46:35Z</time>
</trkpt>
<trkpt lat="32.051585000" lon="34.968061667">
<time>2011-06-04T08:46:40Z</time>
</trkpt>
<trkpt lat="32.051660000" lon="34.968085000">
<time>2011-06-04T08:46:45Z</time>
</trkpt>
<trkpt lat="32.051785000" lon="34.968130000">
<time>2011-06-04T08:46:50Z</time>
</trkpt>
<trkpt lat="32.051871667" lon="34.968158333">
<time>2011-06-04T08:46:55Z</time>
</trkpt>
<trkpt lat="32.052001667" lon="34.968196667">
<time>2011-06-04T08:47:00Z</time>
</trkpt>
<trkpt lat="32.052095000" lon="34.968218333">
<time>2011-06-04T08:47:05Z</time>
</trkpt>
<trkpt lat="32.052246667" lon="34.968230000">
<time>2011-06-04T08:47:10Z</time>
</trkpt>
<trkpt lat="32.052346667" lon="34.968225000">
<time>2011-06-04T08:47:15Z</time>
</trkpt>
<trkpt lat="32.052495000" lon="34.968205000">
<time>2011-06-04T08:47:20Z</time>
</trkpt>
<trkpt lat="32.052608333" lon="34.968201667">
<time>2011-06-04T08:47:25Z</time>
</trkpt>
<trkpt lat="32.052761667" lon="34.968195000">
<time>2011-06-04T08:47:30Z</time>
</trkpt>
<trkpt lat="32.052913333" lon="34.968180000">
<time>2011-06-04T08:47:35Z</time>
</trkpt>
<trkpt lat="32.053076667" lon="34.968168333">
<time>2011-06-04T08:47:40Z</time>
</trkpt>
<trkpt lat="32.053243333" lon="34.968205000">
<time>2011-06-04T08:47:45Z</time>
</trkpt>
<trkpt lat="32.053380000" lon="34.968286667">
<time>2011-06-04T08:47:50Z</time>
</trkpt>
<trkpt lat="32.053520000" lon="34.968375000">
<time>2011-06-04T08:47:55Z</time>
</trkpt>
<trkpt lat="32.053665000" lon="34.968446667">
<time>2011-06-04T08:48:00Z</time>
</trkpt>
<trkpt lat="32.053808333" lon="34.968495000">
<time>2011-06-04T08:48:05Z</time>
</trkpt>
<trkpt lat="32.053943333" lon="34.968535000">
<time>2011-06-04T08:48:10Z</time>
</trkpt>
<trkpt lat="32.054080000" lon="34.968575000">
<time>2011-06-04T08:48:15Z</time>
</trkpt>
<trkpt lat="32.054216667" lon="34.968616667">
<time>2011-06-04T08:48:20Z</time>
</trkpt>
<trkpt lat="32.054348333" lon="34.968656667">
<time>2011-06-04T08:48:25Z</time>
</trkpt>
<trkpt lat="32.054488333" lon="34.968690000">
<time>2011-06-04T08:48:30Z</time>
</trkpt>
<trkpt lat="32.054631667" lon="34.968715000">
<time>2011-06-04T08:48:35Z</time>
</trkpt>
<trkpt lat="32.054780000" lon="34.968733333">
<time>2011-06-04T08:48:40Z</time>
</trkpt>
<trkpt lat="32.054925000" lon="34.968741667">
<time>2011-06-04T08:48:45Z</time>
</trkpt>
<trkpt lat="32.055061667" lon="34.968726667">
<time>2011-06-04T08:48:50Z</time>
</trkpt>
<trkpt lat="32.055183333" lon="34.968666667">
<time>2011-06-04T08:48:55Z</time>
</trkpt>
<trkpt lat="32.055278333" lon="34.968555000">
<time>2011-06-04T08:49:00Z</time>
</trkpt>
<trkpt lat="32.055363333" lon="34.968426667">
<time>2011-06-04T08:49:05Z</time>
</trkpt>
<trkpt lat="32.055448333" lon="34.968293333">
<time>2011-06-04T08:49:10Z</time>
</trkpt>
<trkpt lat="32.055536667" lon="34.968145000">
<time>2011-06-04T08:49:15Z</time>
</trkpt>
<trkpt lat="32.055611667" lon="34.968005000">
<time>2011-06-04T08:49:20Z</time>
</trkpt>
<trkpt lat="32.055675000" lon="34.967898333">
<time>2011-06-04T08:49:25Z</time>
</trkpt>
<trkpt lat="32.055733333" lon="34.967810000">
<time>2011-06-04T08:49:30Z</time>
</trkpt>
<trkpt lat="32.055791667" lon="34.967716667">
<time>2011-06-04T08:49:35Z</time>
</trkpt>
<trkpt lat="32.055846667" lon="34.967600000">
<time>2011-06-04T08:49:40Z</time>
</trkpt>
<trkpt lat="32.055906667" lon="34.967468333">
<time>2011-06-04T08:49:45Z</time>
</trkpt>
<trkpt lat="32.055975000" lon="34.967316667">
<time>2011-06-04T08:49:50Z</time>
</trkpt>
<trkpt lat="32.056036667" lon="34.967148333">
<time>2011-06-04T08:49:55Z</time>
</trkpt>
<trkpt lat="32.056115000" lon="34.966960000">
<time>2011-06-04T08:50:00Z</time>
</trkpt>
<trkpt lat="32.056218333" lon="34.966725000">
<time>2011-06-04T08:50:05Z</time>
</trkpt>
<trkpt lat="32.056295000" lon="34.966561667">
<time>2011-06-04T08:50:10Z</time>
</trkpt>
<trkpt lat="32.056410000" lon="34.966315000">
<time>2011-06-04T08:50:15Z</time>
</trkpt>
<trkpt lat="32.056473333" lon="34.966138333">
<time>2011-06-04T08:50:20Z</time>
</trkpt>
<trkpt lat="32.056565000" lon="34.965883333">
<time>2011-06-04T08:50:25Z</time>
</trkpt>
<trkpt lat="32.056638333" lon="34.965725000">
<time>2011-06-04T08:50:30Z</time>
</trkpt>
<trkpt lat="32.056775000" lon="34.965466667">
<time>2011-06-04T08:50:35Z</time>
</trkpt>
<trkpt lat="32.056895000" lon="34.965308333">
<time>2011-06-04T08:50:40Z</time>
</trkpt>
<trkpt lat="32.057041667" lon="34.965025000">
<time>2011-06-04T08:50:45Z</time>
</trkpt>
<trkpt lat="32.057110000" lon="34.964826667">
<time>2011-06-04T08:50:50Z</time>
</trkpt>
<trkpt lat="32.057250000" lon="34.964585000">
<time>2011-06-04T08:50:55Z</time>
</trkpt>
<trkpt lat="32.057418333" lon="34.964341667">
<time>2011-06-04T08:51:00Z</time>
</trkpt>
<trkpt lat="32.057625000" lon="34.964123333">
<time>2011-06-04T08:51:05Z</time>
</trkpt>
<trkpt lat="32.057811667" lon="34.963893333">
<time>2011-06-04T08:51:10Z</time>
</trkpt>
<trkpt lat="32.058000000" lon="34.963638333">
<time>2011-06-04T08:51:15Z</time>
</trkpt>
<trkpt lat="32.058175000" lon="34.963380000">
<time>2011-06-04T08:51:20Z</time>
</trkpt>
<trkpt lat="32.058368333" lon="34.963123333">
<time>2011-06-04T08:51:25Z</time>
</trkpt>
<trkpt lat="32.058645000" lon="34.962990000">
<time>2011-06-04T08:51:30Z</time>
</trkpt>
<trkpt lat="32.058875000" lon="34.962891667">
<time>2011-06-04T08:51:35Z</time>
</trkpt>
<trkpt lat="32.059056667" lon="34.962705000">
<time>2011-06-04T08:51:40Z</time>
</trkpt>
<trkpt lat="32.059245000" lon="34.962518333">
<time>2011-06-04T08:51:45Z</time>
</trkpt>
<trkpt lat="32.059451667" lon="34.962325000">
<time>2011-06-04T08:51:50Z</time>
</trkpt>
<trkpt lat="32.059638333" lon="34.962106667">
<time>2011-06-04T08:51:55Z</time>
</trkpt>
<trkpt lat="32.059793333" lon="34.961871667">
<time>2011-06-04T08:52:00Z</time>
</trkpt>
<trkpt lat="32.059971667" lon="34.961608333">
<time>2011-06-04T08:52:05Z</time>
</trkpt>
<trkpt lat="32.060141667" lon="34.961336667">
<time>2011-06-04T08:52:10Z</time>
</trkpt>
<trkpt lat="32.060305000" lon="34.961063333">
<time>2011-06-04T08:52:15Z</time>
</trkpt>
<trkpt lat="32.060481667" lon="34.960770000">
<time>2011-06-04T08:52:20Z</time>
</trkpt>
<trkpt lat="32.060643333" lon="34.960478333">
<time>2011-06-04T08:52:25Z</time>
</trkpt>
<trkpt lat="32.060818333" lon="34.960196667">
<time>2011-06-04T08:52:30Z</time>
</trkpt>
<trkpt lat="32.060995000" lon="34.959881667">
<time>2011-06-04T08:52:35Z</time>
</trkpt>
<trkpt lat="32.061223333" lon="34.959645000">
<time>2011-06-04T08:52:40Z</time>
</trkpt>
<trkpt lat="32.061466667" lon="34.959440000">
<time>2011-06-04T08:52:45Z</time>
</trkpt>
<trkpt lat="32.061695000" lon="34.959191667">
<time>2011-06-04T08:52:50Z</time>
</trkpt>
<trkpt lat="32.061943333" lon="34.958915000">
<time>2011-06-04T08:52:55Z</time>
</trkpt>
<trkpt lat="32.062223333" lon="34.958615000">
<time>2011-06-04T08:53:00Z</time>
</trkpt>
<trkpt lat="32.062440000" lon="34.958306667">
<time>2011-06-04T08:53:05Z</time>
</trkpt>
<trkpt lat="32.062633333" lon="34.957971667">
<time>2011-06-04T08:53:10Z</time>
</trkpt>
<trkpt lat="32.062900000" lon="34.957638333">
<time>2011-06-04T08:53:15Z</time>
</trkpt>
<trkpt lat="32.063160000" lon="34.957365000">
<time>2011-06-04T08:53:20Z</time>
</trkpt>
<trkpt lat="32.063338333" lon="34.957173333">
<time>2011-06-04T08:53:25Z</time>
</trkpt>
<trkpt lat="32.063413333" lon="34.957105000">
<time>2011-06-04T08:53:30Z</time>
</trkpt>
<trkpt lat="32.063436667" lon="34.957110000">
<time>2011-06-04T08:53:35Z</time>
</trkpt>
<trkpt lat="32.063436667" lon="34.957120000">
<time>2011-06-04T08:53:40Z</time>
</trkpt>
<trkpt lat="32.063435000" lon="34.957126667">
<time>2011-06-04T08:53:45Z</time>
</trkpt>
<trkpt lat="32.063440000" lon="34.957136667">
<time>2011-06-04T08:53:50Z</time>
</trkpt>
<trkpt lat="32.063438333" lon="34.957143333">
<time>2011-06-04T08:53:55Z</time>
</trkpt>
<trkpt lat="32.063425000" lon="34.957143333">
<time>2011-06-04T08:54:00Z</time>
</trkpt>
<trkpt lat="32.063418333" lon="34.957141667">
<time>2011-06-04T08:54:05Z</time>
</trkpt>
<trkpt lat="32.063411667" lon="34.957138333">
<time>2011-06-04T08:54:10Z</time>
</trkpt>
<trkpt lat="32.063405000" lon="34.957116667">
<time>2011-06-04T08:54:15Z</time>
</trkpt>
<trkpt lat="32.063400000" lon="34.957121667">
<time>2011-06-04T08:54:20Z</time>
</trkpt>
<trkpt lat="32.063405000" lon="34.957146667">
<time>2011-06-04T08:54:25Z</time>
</trkpt>
<trkpt lat="32.063401667" lon="34.957145000">
<time>2011-06-04T08:54:30Z</time>
</trkpt>
<trkpt lat="32.063400000" lon="34.957141667">
<time>2011-06-04T08:54:35Z</time>
</trkpt>
<trkpt lat="32.063400000" lon="34.957135000">
<time>2011-06-04T08:54:40Z</time>
</trkpt>
<trkpt lat="32.063406667" lon="34.957130000">
<time>2011-06-04T08:54:45Z</time>
</trkpt>
<trkpt lat="32.063403333" lon="34.957083333">
<time>2011-06-04T08:54:50Z</time>
</trkpt>
<trkpt lat="32.063410000" lon="34.957070000">
<time>2011-06-04T08:54:55Z</time>
</trkpt>
<trkpt lat="32.063418333" lon="34.957071667">
<time>2011-06-04T08:55:00Z</time>
</trkpt>
<trkpt lat="32.063411667" lon="34.957065000">
<time>2011-06-04T08:55:05Z</time>
</trkpt>
<trkpt lat="32.063418333" lon="34.957058333">
<time>2011-06-04T08:55:20Z</time>
</trkpt>
<trkpt lat="32.063420000" lon="34.957058333">
<time>2011-06-04T08:55:25Z</time>
</trkpt>
<trkpt lat="32.063421667" lon="34.957055000">
<time>2011-06-04T08:55:30Z</time>
</trkpt>
<trkpt lat="32.063420000" lon="34.957053333">
<time>2011-06-04T08:55:35Z</time>
</trkpt>
<trkpt lat="32.063423333" lon="34.957053333">
<time>2011-06-04T08:55:40Z</time>
</trkpt>
<trkpt lat="32.063426667" lon="34.957051667">
<time>2011-06-04T08:55:45Z</time>
</trkpt>
<trkpt lat="32.063433333" lon="34.957050000">
<time>2011-06-04T08:55:50Z</time>
</trkpt>
<trkpt lat="32.063433333" lon="34.957046667">
<time>2011-06-04T08:55:55Z</time>
</trkpt>
<trkpt lat="32.063435000" lon="34.957051667">
<time>2011-06-04T08:56:00Z</time>
</trkpt>
<trkpt lat="32.063431667" lon="34.957053333">
<time>2011-06-04T08:56:05Z</time>
</trkpt>
<trkpt lat="32.063433333" lon="34.957053333">
<time>2011-06-04T08:56:10Z</time>
</trkpt>
<trkpt lat="32.063436667" lon="34.957053333">
<time>2011-06-04T08:56:15Z</time>
</trkpt>
<trkpt lat="32.063436667" lon="34.957055000">
<time>2011-06-04T08:56:20Z</time>
</trkpt>
<trkpt lat="32.063438333" lon="34.957050000">
<time>2011-06-04T08:56:25Z</time>
</trkpt>
<trkpt lat="32.063428333" lon="34.957041667">
<time>2011-06-04T08:56:30Z</time>
</trkpt>
<trkpt lat="32.063410000" lon="34.957008333">
<time>2011-06-04T08:56:35Z</time>
</trkpt>
<trkpt lat="32.063411667" lon="34.956870000">
<time>2011-06-04T08:56:40Z</time>
</trkpt>
<trkpt lat="32.063446667" lon="34.956631667">
<time>2011-06-04T08:56:45Z</time>
</trkpt>
<trkpt lat="32.063500000" lon="34.956313333">
<time>2011-06-04T08:56:50Z</time>
</trkpt>
<trkpt lat="32.063488333" lon="34.956083333">
<time>2011-06-04T08:56:55Z</time>
</trkpt>
<trkpt lat="32.063533333" lon="34.955885000">
<time>2011-06-04T08:57:00Z</time>
</trkpt>
<trkpt lat="32.063653333" lon="34.955563333">
<time>2011-06-04T08:57:05Z</time>
</trkpt>
<trkpt lat="32.063740000" lon="34.955341667">
<time>2011-06-04T08:57:10Z</time>
</trkpt>
<trkpt lat="32.063856667" lon="34.955005000">
<time>2011-06-04T08:57:15Z</time>
</trkpt>
<trkpt lat="32.063928333" lon="34.954811667">
<time>2011-06-04T08:57:20Z</time>
</trkpt>
<trkpt lat="32.064035000" lon="34.954525000">
<time>2011-06-04T08:57:25Z</time>
</trkpt>
<trkpt lat="32.064120000" lon="34.954316667">
<time>2011-06-04T08:57:30Z</time>
</trkpt>
<trkpt lat="32.064206667" lon="34.953938333">
<time>2011-06-04T08:57:35Z</time>
</trkpt>
<trkpt lat="32.064256667" lon="34.953696667">
<time>2011-06-04T08:57:40Z</time>
</trkpt>
<trkpt lat="32.064395000" lon="34.953415000">
<time>2011-06-04T08:57:45Z</time>
</trkpt>
<trkpt lat="32.064601667" lon="34.953046667">
<time>2011-06-04T08:57:50Z</time>
</trkpt>
<trkpt lat="32.064845000" lon="34.952528333">
<time>2011-06-04T08:57:55Z</time>
</trkpt>
<trkpt lat="32.064998333" lon="34.952156667">
<time>2011-06-04T08:58:00Z</time>
</trkpt>
<trkpt lat="32.065223333" lon="34.951681667">
<time>2011-06-04T08:58:05Z</time>
</trkpt>
<trkpt lat="32.065398333" lon="34.951156667">
<time>2011-06-04T08:58:10Z</time>
</trkpt>
<trkpt lat="32.065478333" lon="34.950640000">
<time>2011-06-04T08:58:15Z</time>
</trkpt>
<trkpt lat="32.065646667" lon="34.950193333">
<time>2011-06-04T08:58:20Z</time>
</trkpt>
<trkpt lat="32.065786667" lon="34.949725000">
<time>2011-06-04T08:58:25Z</time>
</trkpt>
<trkpt lat="32.065878333" lon="34.949218333">
<time>2011-06-04T08:58:30Z</time>
</trkpt>
<trkpt lat="32.066023333" lon="34.948731667">
<time>2011-06-04T08:58:35Z</time>
</trkpt>
<trkpt lat="32.066180000" lon="34.948245000">
<time>2011-06-04T08:58:40Z</time>
</trkpt>
<trkpt lat="32.066306667" lon="34.947820000">
<time>2011-06-04T08:58:45Z</time>
</trkpt>
<trkpt lat="32.066408333" lon="34.947571667">
<time>2011-06-04T08:58:50Z</time>
</trkpt>
<trkpt lat="32.066640000" lon="34.947515000">
<time>2011-06-04T08:58:55Z</time>
</trkpt>
<trkpt lat="32.066773333" lon="34.947371667">
<time>2011-06-04T08:59:00Z</time>
</trkpt>
<trkpt lat="32.066885000" lon="34.947285000">
<time>2011-06-04T08:59:05Z</time>
</trkpt>
<trkpt lat="32.067096667" lon="34.947360000">
<time>2011-06-04T08:59:10Z</time>
</trkpt>
<trkpt lat="32.067348333" lon="34.947446667">
<time>2011-06-04T08:59:15Z</time>
</trkpt>
<trkpt lat="32.067608333" lon="34.947526667">
<time>2011-06-04T08:59:20Z</time>
</trkpt>
<trkpt lat="32.067895000" lon="34.947608333">
<time>2011-06-04T08:59:25Z</time>
</trkpt>
<trkpt lat="32.068186667" lon="34.947691667">
<time>2011-06-04T08:59:30Z</time>
</trkpt>
<trkpt lat="32.068481667" lon="34.947778333">
<time>2011-06-04T08:59:35Z</time>
</trkpt>
<trkpt lat="32.068763333" lon="34.947865000">
<time>2011-06-04T08:59:40Z</time>
</trkpt>
<trkpt lat="32.069048333" lon="34.947945000">
<time>2011-06-04T08:59:45Z</time>
</trkpt>
<trkpt lat="32.069335000" lon="34.948026667">
<time>2011-06-04T08:59:50Z</time>
</trkpt>
<trkpt lat="32.069615000" lon="34.948105000">
<time>2011-06-04T08:59:55Z</time>
</trkpt>
<trkpt lat="32.069896667" lon="34.948181667">
<time>2011-06-04T09:00:00Z</time>
</trkpt>
<trkpt lat="32.070173333" lon="34.948261667">
<time>2011-06-04T09:00:05Z</time>
</trkpt>
<trkpt lat="32.070446667" lon="34.948345000">
<time>2011-06-04T09:00:10Z</time>
</trkpt>
<trkpt lat="32.070721667" lon="34.948396667">
<time>2011-06-04T09:00:15Z</time>
</trkpt>
<trkpt lat="32.071000000" lon="34.948365000">
<time>2011-06-04T09:00:20Z</time>
</trkpt>
<trkpt lat="32.071290000" lon="34.948216667">
<time>2011-06-04T09:00:25Z</time>
</trkpt>
<trkpt lat="32.071581667" lon="34.947990000">
<time>2011-06-04T09:00:30Z</time>
</trkpt>
<trkpt lat="32.071761667" lon="34.947830000">
<time>2011-06-04T09:00:35Z</time>
</trkpt>
<trkpt lat="32.072085000" lon="34.947561667">
<time>2011-06-04T09:00:40Z</time>
</trkpt>
<trkpt lat="32.072283333" lon="34.947406667">
<time>2011-06-04T09:00:45Z</time>
</trkpt>
<trkpt lat="32.072526667" lon="34.947206667">
<time>2011-06-04T09:00:50Z</time>
</trkpt>
<trkpt lat="32.072555000" lon="34.947066667">
<time>2011-06-04T09:00:55Z</time>
</trkpt>
<trkpt lat="32.072415000" lon="34.946831667">
<time>2011-06-04T09:01:00Z</time>
</trkpt>
<trkpt lat="32.072330000" lon="34.946653333">
<time>2011-06-04T09:01:05Z</time>
</trkpt>
<trkpt lat="32.072255000" lon="34.946418333">
<time>2011-06-04T09:01:10Z</time>
</trkpt>
<trkpt lat="32.072190000" lon="34.946163333">
<time>2011-06-04T09:01:15Z</time>
</trkpt>
<trkpt lat="32.072188333" lon="34.945835000">
<time>2011-06-04T09:01:20Z</time>
</trkpt>
<trkpt lat="32.072246667" lon="34.945500000">
<time>2011-06-04T09:01:25Z</time>
</trkpt>
<trkpt lat="32.072316667" lon="34.945263333">
<time>2011-06-04T09:01:30Z</time>
</trkpt>
<trkpt lat="32.072288333" lon="34.945166667">
<time>2011-06-04T09:01:35Z</time>
</trkpt>
<trkpt lat="32.072240000" lon="34.945093333">
<time>2011-06-04T09:01:40Z</time>
</trkpt>
<trkpt lat="32.072278333" lon="34.945040000">
<time>2011-06-04T09:01:45Z</time>
</trkpt>
<trkpt lat="32.072291667" lon="34.945023333">
<time>2011-06-04T09:01:50Z</time>
</trkpt>
<trkpt lat="32.072311667" lon="34.945023333">
<time>2011-06-04T09:01:55Z</time>
</trkpt>
<trkpt lat="32.072338333" lon="34.945015000">
<time>2011-06-04T09:02:00Z</time>
</trkpt>
<trkpt lat="32.072358333" lon="34.945031667">
<time>2011-06-04T09:02:05Z</time>
</trkpt>
<trkpt lat="32.072365000" lon="34.945038333">
<time>2011-06-04T09:02:10Z</time>
</trkpt>
<trkpt lat="32.072365000" lon="34.945036667">
<time>2011-06-04T09:02:15Z</time>
</trkpt>
<trkpt lat="32.072368333" lon="34.945033333">
<time>2011-06-04T09:02:20Z</time>
</trkpt>
<trkpt lat="32.072403333" lon="34.944968333">
<time>2011-06-04T09:02:25Z</time>
</trkpt>
<trkpt lat="32.072495000" lon="34.944873333">
<time>2011-06-04T09:02:30Z</time>
</trkpt>
<trkpt lat="32.072621667" lon="34.944785000">
<time>2011-06-04T09:02:35Z</time>
</trkpt>
<trkpt lat="32.072753333" lon="34.944703333">
<time>2011-06-04T09:02:40Z</time>
</trkpt>
<trkpt lat="32.072866667" lon="34.944628333">
<time>2011-06-04T09:02:45Z</time>
</trkpt>
<trkpt lat="32.072976667" lon="34.944541667">
<time>2011-06-04T09:02:50Z</time>
</trkpt>
<trkpt lat="32.073076667" lon="34.944460000">
<time>2011-06-04T09:02:55Z</time>
</trkpt>
<trkpt lat="32.073175000" lon="34.944406667">
<time>2011-06-04T09:03:00Z</time>
</trkpt>
<trkpt lat="32.073293333" lon="34.944381667">
<time>2011-06-04T09:03:05Z</time>
</trkpt>
<trkpt lat="32.073443333" lon="34.944390000">
<time>2011-06-04T09:03:10Z</time>
</trkpt>
<trkpt lat="32.073581667" lon="34.944381667">
<time>2011-06-04T09:03:15Z</time>
</trkpt>
<trkpt lat="32.073721667" lon="34.944375000">
<time>2011-06-04T09:03:20Z</time>
</trkpt>
<trkpt lat="32.073860000" lon="34.944358333">
<time>2011-06-04T09:03:25Z</time>
</trkpt>
<trkpt lat="32.074001667" lon="34.944340000">
<time>2011-06-04T09:03:30Z</time>
</trkpt>
<trkpt lat="32.074128333" lon="34.944300000">
<time>2011-06-04T09:03:35Z</time>
</trkpt>
<trkpt lat="32.074168333" lon="34.944178333">
<time>2011-06-04T09:03:40Z</time>
</trkpt>
<trkpt lat="32.074113333" lon="34.944013333">
<time>2011-06-04T09:03:45Z</time>
</trkpt>
<trkpt lat="32.074063333" lon="34.943830000">
<time>2011-06-04T09:03:50Z</time>
</trkpt>
<trkpt lat="32.073996667" lon="34.943588333">
<time>2011-06-04T09:03:55Z</time>
</trkpt>
<trkpt lat="32.073961667" lon="34.943450000">
<time>2011-06-04T09:04:00Z</time>
</trkpt>
<trkpt lat="32.073885000" lon="34.943200000">
<time>2011-06-04T09:04:05Z</time>
</trkpt>
<trkpt lat="32.073848333" lon="34.943063333">
<time>2011-06-04T09:04:10Z</time>
</trkpt>
<trkpt lat="32.073696667" lon="34.942945000">
<time>2011-06-04T09:04:15Z</time>
</trkpt>
<trkpt lat="32.073571667" lon="34.942885000">
<time>2011-06-04T09:04:20Z</time>
</trkpt>
<trkpt lat="32.073460000" lon="34.942778333">
<time>2011-06-04T09:04:25Z</time>
</trkpt>
<trkpt lat="32.073493333" lon="34.942673333">
<time>2011-06-04T09:04:30Z</time>
</trkpt>
<trkpt lat="32.073611667" lon="34.942666667">
<time>2011-06-04T09:04:35Z</time>
</trkpt>
<trkpt lat="32.073685000" lon="34.942663333">
<time>2011-06-04T09:04:40Z</time>
</trkpt>
<trkpt lat="32.073701667" lon="34.942675000">
<time>2011-06-04T09:04:45Z</time>
</trkpt>
<trkpt lat="32.073730000" lon="34.942711667">
<time>2011-06-04T09:04:50Z</time>
</trkpt>
<trkpt lat="32.073728333" lon="34.942718333">
<time>2011-06-04T09:04:55Z</time>
</trkpt>
<trkpt lat="32.073736667" lon="34.942721667">
<time>2011-06-04T09:05:00Z</time>
</trkpt>
<trkpt lat="32.073761667" lon="34.942741667">
<time>2011-06-04T09:05:05Z</time>
</trkpt>
<trkpt lat="32.073810000" lon="34.942756667">
<time>2011-06-04T09:05:10Z</time>
</trkpt>
<trkpt lat="32.073840000" lon="34.942765000">
<time>2011-06-04T09:05:15Z</time>
</trkpt>
<trkpt lat="32.073840000" lon="34.942771667">
<time>2011-06-04T09:05:20Z</time>
</trkpt>
<trkpt lat="32.073845000" lon="34.942780000">
<time>2011-06-04T09:05:25Z</time>
</trkpt>
<trkpt lat="32.073913333" lon="34.942880000">
<time>2011-06-04T09:05:30Z</time>
</trkpt>
<trkpt lat="32.074038333" lon="34.942926667">
<time>2011-06-04T09:05:35Z</time>
</trkpt>
<trkpt lat="32.074173333" lon="34.942875000">
<time>2011-06-04T09:05:40Z</time>
</trkpt>
<trkpt lat="32.074310000" lon="34.942825000">
<time>2011-06-04T09:05:45Z</time>
</trkpt>
<trkpt lat="32.074461667" lon="34.942788333">
<time>2011-06-04T09:05:50Z</time>
</trkpt>
<trkpt lat="32.074621667" lon="34.942761667">
<time>2011-06-04T09:05:55Z</time>
</trkpt>
<trkpt lat="32.074780000" lon="34.942726667">
<time>2011-06-04T09:06:00Z</time>
</trkpt>
<trkpt lat="32.074930000" lon="34.942691667">
<time>2011-06-04T09:06:05Z</time>
</trkpt>
<trkpt lat="32.075080000" lon="34.942641667">
<time>2011-06-04T09:06:10Z</time>
</trkpt>
<trkpt lat="32.075235000" lon="34.942598333">
<time>2011-06-04T09:06:15Z</time>
</trkpt>
<trkpt lat="32.075396667" lon="34.942560000">
<time>2011-06-04T09:06:20Z</time>
</trkpt>
<trkpt lat="32.075560000" lon="34.942528333">
<time>2011-06-04T09:06:25Z</time>
</trkpt>
<trkpt lat="32.075721667" lon="34.942488333">
<time>2011-06-04T09:06:30Z</time>
</trkpt>
<trkpt lat="32.075866667" lon="34.942446667">
<time>2011-06-04T09:06:35Z</time>
</trkpt>
<trkpt lat="32.075996667" lon="34.942475000">
<time>2011-06-04T09:06:40Z</time>
</trkpt>
<trkpt lat="32.076070000" lon="34.942601667">
<time>2011-06-04T09:06:45Z</time>
</trkpt>
<trkpt lat="32.076103333" lon="34.942761667">
<time>2011-06-04T09:06:50Z</time>
</trkpt>
<trkpt lat="32.076171667" lon="34.942940000">
<time>2011-06-04T09:06:55Z</time>
</trkpt>
<trkpt lat="32.076343333" lon="34.942970000">
<time>2011-06-04T09:07:00Z</time>
</trkpt>
<trkpt lat="32.076511667" lon="34.942850000">
<time>2011-06-04T09:07:05Z</time>
</trkpt>
<trkpt lat="32.076680000" lon="34.942686667">
<time>2011-06-04T09:07:10Z</time>
</trkpt>
<trkpt lat="32.076865000" lon="34.942500000">
<time>2011-06-04T09:07:15Z</time>
</trkpt>
<trkpt lat="32.077091667" lon="34.942306667">
<time>2011-06-04T09:07:20Z</time>
</trkpt>
<trkpt lat="32.077260000" lon="34.942215000">
<time>2011-06-04T09:07:25Z</time>
</trkpt>
<trkpt lat="32.077515000" lon="34.942033333">
<time>2011-06-04T09:07:30Z</time>
</trkpt>
<trkpt lat="32.077673333" lon="34.941886667">
<time>2011-06-04T09:07:35Z</time>
</trkpt>
<trkpt lat="32.077903333" lon="34.941666667">
<time>2011-06-04T09:07:40Z</time>
</trkpt>
<trkpt lat="32.078053333" lon="34.941516667">
<time>2011-06-04T09:07:45Z</time>
</trkpt>
<trkpt lat="32.078288333" lon="34.941315000">
<time>2011-06-04T09:07:50Z</time>
</trkpt>
<trkpt lat="32.078443333" lon="34.941175000">
<time>2011-06-04T09:07:55Z</time>
</trkpt>
<trkpt lat="32.078651667" lon="34.940985000">
<time>2011-06-04T09:08:00Z</time>
</trkpt>
<trkpt lat="32.078846667" lon="34.940791667">
<time>2011-06-04T09:08:05Z</time>
</trkpt>
<trkpt lat="32.079015000" lon="34.940660000">
<time>2011-06-04T09:08:10Z</time>
</trkpt>
<trkpt lat="32.079166667" lon="34.940651667">
<time>2011-06-04T09:08:15Z</time>
</trkpt>
<trkpt lat="32.079311667" lon="34.940816667">
<time>2011-06-04T09:08:20Z</time>
</trkpt>
<trkpt lat="32.079411667" lon="34.940960000">
<time>2011-06-04T09:08:25Z</time>
</trkpt>
<trkpt lat="32.079521667" lon="34.941131667">
<time>2011-06-04T09:08:30Z</time>
</trkpt>
<trkpt lat="32.079655000" lon="34.941296667">
<time>2011-06-04T09:08:35Z</time>
</trkpt>
<trkpt lat="32.079791667" lon="34.941443333">
<time>2011-06-04T09:08:40Z</time>
</trkpt>
<trkpt lat="32.079933333" lon="34.941580000">
<time>2011-06-04T09:08:45Z</time>
</trkpt>
<trkpt lat="32.080066667" lon="34.941716667">
<time>2011-06-04T09:08:50Z</time>
</trkpt>
<trkpt lat="32.080188333" lon="34.941856667">
<time>2011-06-04T09:08:55Z</time>
</trkpt>
<trkpt lat="32.080321667" lon="34.941995000">
<time>2011-06-04T09:09:00Z</time>
</trkpt>
<trkpt lat="32.080483333" lon="34.942075000">
<time>2011-06-04T09:09:05Z</time>
</trkpt>
<trkpt lat="32.080626667" lon="34.942160000">
<time>2011-06-04T09:09:10Z</time>
</trkpt>
<trkpt lat="32.080738333" lon="34.942260000">
<time>2011-06-04T09:09:15Z</time>
</trkpt>
<trkpt lat="32.080851667" lon="34.942380000">
<time>2011-06-04T09:09:20Z</time>
</trkpt>
<trkpt lat="32.080963333" lon="34.942506667">
<time>2011-06-04T09:09:25Z</time>
</trkpt>
<trkpt lat="32.081081667" lon="34.942618333">
<time>2011-06-04T09:09:30Z</time>
</trkpt>
<trkpt lat="32.081200000" lon="34.942738333">
<time>2011-06-04T09:09:35Z</time>
</trkpt>
<trkpt lat="32.081321667" lon="34.942875000">
<time>2011-06-04T09:09:40Z</time>
</trkpt>
<trkpt lat="32.081450000" lon="34.943026667">
<time>2011-06-04T09:09:45Z</time>
</trkpt>
<trkpt lat="32.081605000" lon="34.943176667">
<time>2011-06-04T09:09:50Z</time>
</trkpt>
<trkpt lat="32.081766667" lon="34.943326667">
<time>2011-06-04T09:09:55Z</time>
</trkpt>
<trkpt lat="32.081953333" lon="34.943473333">
<time>2011-06-04T09:10:00Z</time>
</trkpt>
<trkpt lat="32.082173333" lon="34.943616667">
<time>2011-06-04T09:10:05Z</time>
</trkpt>
<trkpt lat="32.082426667" lon="34.943760000">
<time>2011-06-04T09:10:10Z</time>
</trkpt>
<trkpt lat="32.082688333" lon="34.943896667">
<time>2011-06-04T09:10:15Z</time>
</trkpt>
<trkpt lat="32.082961667" lon="34.944021667">
<time>2011-06-04T09:10:20Z</time>
</trkpt>
<trkpt lat="32.083231667" lon="34.944135000">
<time>2011-06-04T09:10:25Z</time>
</trkpt>
<trkpt lat="32.083505000" lon="34.944231667">
<time>2011-06-04T09:10:30Z</time>
</trkpt>
<trkpt lat="32.083795000" lon="34.944255000">
<time>2011-06-04T09:10:35Z</time>
</trkpt>
<trkpt lat="32.083865000" lon="34.944246667">
<time>2011-06-04T09:10:40Z</time>
</trkpt>
<trkpt lat="32.083856667" lon="34.944243333">
<time>2011-06-04T09:10:45Z</time>
</trkpt>
<trkpt lat="32.083860000" lon="34.944251667">
<time>2011-06-04T09:10:50Z</time>
</trkpt>
<trkpt lat="32.083821667" lon="34.944300000">
<time>2011-06-04T09:10:55Z</time>
</trkpt>
<trkpt lat="32.083791667" lon="34.944300000">
<time>2011-06-04T09:11:00Z</time>
</trkpt>
<trkpt lat="32.083751667" lon="34.944258333">
<time>2011-06-04T09:11:05Z</time>
</trkpt>
<trkpt lat="32.083741667" lon="34.944218333">
<time>2011-06-04T09:11:10Z</time>
</trkpt>
<trkpt lat="32.083731667" lon="34.944216667">
<time>2011-06-04T09:11:15Z</time>
</trkpt>
<trkpt lat="32.083730000" lon="34.944223333">
<time>2011-06-04T09:11:20Z</time>
</trkpt>
<trkpt lat="32.083730000" lon="34.944215000">
<time>2011-06-04T09:11:25Z</time>
</trkpt>
<trkpt lat="32.083720000" lon="34.944211667">
<time>2011-06-04T09:11:30Z</time>
</trkpt>
<trkpt lat="32.083715000" lon="34.944205000">
<time>2011-06-04T09:11:35Z</time>
</trkpt>
<trkpt lat="32.083716667" lon="34.944226667">
<time>2011-06-04T09:11:40Z</time>
</trkpt>
<trkpt lat="32.083718333" lon="34.944228333">
<time>2011-06-04T09:11:45Z</time>
</trkpt>
<trkpt lat="32.083731667" lon="34.944238333">
<time>2011-06-04T09:11:50Z</time>
</trkpt>
<trkpt lat="32.083745000" lon="34.944241667">
<time>2011-06-04T09:11:55Z</time>
</trkpt>
<trkpt lat="32.083765000" lon="34.944240000">
<time>2011-06-04T09:12:00Z</time>
</trkpt>
<trkpt lat="32.083783333" lon="34.944236667">
<time>2011-06-04T09:12:05Z</time>
</trkpt>
<trkpt lat="32.083776667" lon="34.944241667">
<time>2011-06-04T09:12:10Z</time>
</trkpt>
<trkpt lat="32.083788333" lon="34.944253333">
<time>2011-06-04T09:12:15Z</time>
</trkpt>
<trkpt lat="32.083763333" lon="34.944235000">
<time>2011-06-04T09:12:20Z</time>
</trkpt>
<trkpt lat="32.083746667" lon="34.944223333">
<time>2011-06-04T09:12:25Z</time>
</trkpt>
<trkpt lat="32.083730000" lon="34.944221667">
<time>2011-06-04T09:12:30Z</time>
</trkpt>
<trkpt lat="32.083720000" lon="34.944231667">
<time>2011-06-04T09:12:35Z</time>
</trkpt>
<trkpt lat="32.083708333" lon="34.944213333">
<time>2011-06-04T09:12:40Z</time>
</trkpt>
<trkpt lat="32.083728333" lon="34.944230000">
<time>2011-06-04T09:12:45Z</time>
</trkpt>
<trkpt lat="32.083731667" lon="34.944223333">
<time>2011-06-04T09:12:50Z</time>
</trkpt>
<trkpt lat="32.083750000" lon="34.944228333">
<time>2011-06-04T09:12:55Z</time>
</trkpt>
<trkpt lat="32.083753333" lon="34.944235000">
<time>2011-06-04T09:13:00Z</time>
</trkpt>
<trkpt lat="32.083751667" lon="34.944243333">
<time>2011-06-04T09:13:05Z</time>
</trkpt>
<trkpt lat="32.083753333" lon="34.944245000">
<time>2011-06-04T09:13:10Z</time>
</trkpt>
<trkpt lat="32.083755000" lon="34.944245000">
<time>2011-06-04T09:13:15Z</time>
</trkpt>
<trkpt lat="32.083761667" lon="34.944253333">
<time>2011-06-04T09:13:20Z</time>
</trkpt>
<trkpt lat="32.083770000" lon="34.944261667">
<time>2011-06-04T09:13:25Z</time>
</trkpt>
<trkpt lat="32.083756667" lon="34.944255000">
<time>2011-06-04T09:13:30Z</time>
</trkpt>
<trkpt lat="32.083751667" lon="34.944251667">
<time>2011-06-04T09:13:35Z</time>
</trkpt>
<trkpt lat="32.083750000" lon="34.944248333">
<time>2011-06-04T09:13:40Z</time>
</trkpt>
<trkpt lat="32.083753333" lon="34.944240000">
<time>2011-06-04T09:13:45Z</time>
</trkpt>
<trkpt lat="32.083750000" lon="34.944235000">
<time>2011-06-04T09:13:50Z</time>
</trkpt>
<trkpt lat="32.083748333" lon="34.944236667">
<time>2011-06-04T09:13:55Z</time>
</trkpt>
<trkpt lat="32.083745000" lon="34.944238333">
<time>2011-06-04T09:14:00Z</time>
</trkpt>
<trkpt lat="32.083725000" lon="34.944236667">
<time>2011-06-04T09:14:05Z</time>
</trkpt>
<trkpt lat="32.083721667" lon="34.944233333">
<time>2011-06-04T09:14:10Z</time>
</trkpt>
<trkpt lat="32.083741667" lon="34.944230000">
<time>2011-06-04T09:14:15Z</time>
</trkpt>
<trkpt lat="32.083753333" lon="34.944236667">
<time>2011-06-04T09:14:20Z</time>
</trkpt>
<trkpt lat="32.083748333" lon="34.944235000">
<time>2011-06-04T09:14:25Z</time>
</trkpt>
<trkpt lat="32.083755000" lon="34.944240000">
<time>2011-06-04T09:14:30Z</time>
</trkpt>
<trkpt lat="32.083761667" lon="34.944231667">
<time>2011-06-04T09:14:35Z</time>
</trkpt>
<trkpt lat="32.083778333" lon="34.944245000">
<time>2011-06-04T09:14:40Z</time>
</trkpt>
<trkpt lat="32.083783333" lon="34.944245000">
<time>2011-06-04T09:14:45Z</time>
</trkpt>
<trkpt lat="32.083776667" lon="34.944238333">
<time>2011-06-04T09:14:50Z</time>
</trkpt>
<trkpt lat="32.083766667" lon="34.944235000">
<time>2011-06-04T09:14:55Z</time>
</trkpt>
<trkpt lat="32.083753333" lon="34.944230000">
<time>2011-06-04T09:15:00Z</time>
</trkpt>
<trkpt lat="32.083750000" lon="34.944233333">
<time>2011-06-04T09:15:05Z</time>
</trkpt>
<trkpt lat="32.083745000" lon="34.944235000">
<time>2011-06-04T09:15:10Z</time>
</trkpt>
<trkpt lat="32.083755000" lon="34.944248333">
<time>2011-06-04T09:15:15Z</time>
</trkpt>
<trkpt lat="32.083753333" lon="34.944250000">
<time>2011-06-04T09:15:20Z</time>
</trkpt>
<trkpt lat="32.083745000" lon="34.944240000">
<time>2011-06-04T09:15:25Z</time>
</trkpt>
<trkpt lat="32.083740000" lon="34.944226667">
<time>2011-06-04T09:15:30Z</time>
</trkpt>
<trkpt lat="32.083740000" lon="34.944220000">
<time>2011-06-04T09:15:35Z</time>
</trkpt>
<trkpt lat="32.083745000" lon="34.944228333">
<time>2011-06-04T09:15:40Z</time>
</trkpt>
<trkpt lat="32.083751667" lon="34.944240000">
<time>2011-06-04T09:15:45Z</time>
</trkpt>
<trkpt lat="32.083756667" lon="34.944253333">
<time>2011-06-04T09:15:50Z</time>
</trkpt>
<trkpt lat="32.083760000" lon="34.944260000">
<time>2011-06-04T09:15:55Z</time>
</trkpt>
<trkpt lat="32.083766667" lon="34.944255000">
<time>2011-06-04T09:16:00Z</time>
</trkpt>
<trkpt lat="32.083763333" lon="34.944251667">
<time>2011-06-04T09:16:05Z</time>
</trkpt>
<trkpt lat="32.083750000" lon="34.944250000">
<time>2011-06-04T09:16:10Z</time>
</trkpt>
<trkpt lat="32.083750000" lon="34.944258333">
<time>2011-06-04T09:16:15Z</time>
</trkpt>
<trkpt lat="32.083745000" lon="34.944255000">
<time>2011-06-04T09:16:20Z</time>
</trkpt>
<trkpt lat="32.083738333" lon="34.944251667">
<time>2011-06-04T09:16:25Z</time>
</trkpt>
<trkpt lat="32.083738333" lon="34.944240000">
<time>2011-06-04T09:16:30Z</time>
</trkpt>
<trkpt lat="32.083743333" lon="34.944235000">
<time>2011-06-04T09:16:35Z</time>
</trkpt>
<trkpt lat="32.083741667" lon="34.944231667">
<time>2011-06-04T09:16:40Z</time>
</trkpt>
<trkpt lat="32.083746667" lon="34.944226667">
<time>2011-06-04T09:16:50Z</time>
</trkpt>
<trkpt lat="32.083741667" lon="34.944235000">
<time>2011-06-04T09:16:55Z</time>
</trkpt>
<trkpt lat="32.083746667" lon="34.944238333">
<time>2011-06-04T09:17:00Z</time>
</trkpt>
<trkpt lat="32.083751667" lon="34.944246667">
<time>2011-06-04T09:17:05Z</time>
</trkpt>
<trkpt lat="32.083753333" lon="34.944243333">
<time>2011-06-04T09:17:10Z</time>
</trkpt>
<trkpt lat="32.083750000" lon="34.944246667">
<time>2011-06-04T09:17:15Z</time>
</trkpt>
<trkpt lat="32.083755000" lon="34.944260000">
<time>2011-06-04T09:17:20Z</time>
</trkpt>
<trkpt lat="32.083763333" lon="34.944255000">
<time>2011-06-04T09:17:25Z</time>
</trkpt>
<trkpt lat="32.083766667" lon="34.944253333">
<time>2011-06-04T09:17:30Z</time>
</trkpt>
<trkpt lat="32.083765000" lon="34.944258333">
<time>2011-06-04T09:17:35Z</time>
</trkpt>
<trkpt lat="32.083770000" lon="34.944251667">
<time>2011-06-04T09:17:40Z</time>
</trkpt>
<trkpt lat="32.083760000" lon="34.944238333">
<time>2011-06-04T09:17:45Z</time>
</trkpt>
<trkpt lat="32.083760000" lon="34.944241667">
<time>2011-06-04T09:17:50Z</time>
</trkpt>
<trkpt lat="32.083760000" lon="34.944240000">
<time>2011-06-04T09:18:05Z</time>
</trkpt>
<trkpt lat="32.083761667" lon="34.944240000">
<time>2011-06-04T09:18:10Z</time>
</trkpt>
<trkpt lat="32.083763333" lon="34.944241667">
<time>2011-06-04T09:18:15Z</time>
</trkpt>
<trkpt lat="32.083766667" lon="34.944248333">
<time>2011-06-04T09:18:25Z</time>
</trkpt>
<trkpt lat="32.083770000" lon="34.944258333">
<time>2011-06-04T09:18:30Z</time>
</trkpt>
<trkpt lat="32.083785000" lon="34.944268333">
<time>2011-06-04T09:18:35Z</time>
</trkpt>
<trkpt lat="32.083778333" lon="34.944266667">
<time>2011-06-04T09:18:40Z</time>
</trkpt>
<trkpt lat="32.083765000" lon="34.944253333">
<time>2011-06-04T09:18:45Z</time>
</trkpt>
<trkpt lat="32.083760000" lon="34.944250000">
<time>2011-06-04T09:18:50Z</time>
</trkpt>
<trkpt lat="32.083756667" lon="34.944246667">
<time>2011-06-04T09:18:55Z</time>
</trkpt>
<trkpt lat="32.083765000" lon="34.944250000">
<time>2011-06-04T09:19:05Z</time>
</trkpt>
<trkpt lat="32.083761667" lon="34.944251667">
<time>2011-06-04T09:19:20Z</time>
</trkpt>
<trkpt lat="32.083751667" lon="34.944241667">
<time>2011-06-04T09:19:25Z</time>
</trkpt>
<trkpt lat="32.083758333" lon="34.944240000">
<time>2011-06-04T09:19:30Z</time>
</trkpt>
<trkpt lat="32.083776667" lon="34.944246667">
<time>2011-06-04T09:19:35Z</time>
</trkpt>
<trkpt lat="32.083785000" lon="34.944253333">
<time>2011-06-04T09:19:40Z</time>
</trkpt>
<trkpt lat="32.083788333" lon="34.944258333">
<time>2011-06-04T09:19:45Z</time>
</trkpt>
<trkpt lat="32.083788333" lon="34.944263333">
<time>2011-06-04T09:19:50Z</time>
</trkpt>
<trkpt lat="32.083783333" lon="34.944258333">
<time>2011-06-04T09:19:55Z</time>
</trkpt>
<trkpt lat="32.083761667" lon="34.944238333">
<time>2011-06-04T09:20:05Z</time>
</trkpt>
<trkpt lat="32.083758333" lon="34.944233333">
<time>2011-06-04T09:20:10Z</time>
</trkpt>
<trkpt lat="32.083753333" lon="34.944228333">
<time>2011-06-04T09:20:15Z</time>
</trkpt>
<trkpt lat="32.083748333" lon="34.944228333">
<time>2011-06-04T09:20:20Z</time>
</trkpt>
<trkpt lat="32.083745000" lon="34.944221667">
<time>2011-06-04T09:20:25Z</time>
</trkpt>
<trkpt lat="32.083743333" lon="34.944220000">
<time>2011-06-04T09:20:30Z</time>
</trkpt>
<trkpt lat="32.083748333" lon="34.944223333">
<time>2011-06-04T09:20:35Z</time>
</trkpt>
<trkpt lat="32.083751667" lon="34.944223333">
<time>2011-06-04T09:20:40Z</time>
</trkpt>
<trkpt lat="32.083748333" lon="34.944225000">
<time>2011-06-04T09:20:45Z</time>
</trkpt>
<trkpt lat="32.083750000" lon="34.944223333">
<time>2011-06-04T09:20:50Z</time>
</trkpt>
<trkpt lat="32.083746667" lon="34.944215000">
<time>2011-06-04T09:20:55Z</time>
</trkpt>
<trkpt lat="32.083755000" lon="34.944221667">
<time>2011-06-04T09:21:00Z</time>
</trkpt>
<trkpt lat="32.083751667" lon="34.944235000">
<time>2011-06-04T09:21:05Z</time>
</trkpt>
<trkpt lat="32.083736667" lon="34.944238333">
<time>2011-06-04T09:21:15Z</time>
</trkpt>
<trkpt lat="32.083736667" lon="34.944226667">
<time>2011-06-04T09:21:20Z</time>
</trkpt>
<trkpt lat="32.083738333" lon="34.944223333">
<time>2011-06-04T09:21:25Z</time>
</trkpt>
<trkpt lat="32.083745000" lon="34.944216667">
<time>2011-06-04T09:21:30Z</time>
</trkpt>
<trkpt lat="32.083760000" lon="34.944218333">
<time>2011-06-04T09:21:40Z</time>
</trkpt>
<trkpt lat="32.083753333" lon="34.944225000">
<time>2011-06-04T09:21:45Z</time>
</trkpt>
<trkpt lat="32.083745000" lon="34.944233333">
<time>2011-06-04T09:21:55Z</time>
</trkpt>
<trkpt lat="32.083746667" lon="34.944250000">
<time>2011-06-04T09:22:05Z</time>
</trkpt>
<trkpt lat="32.083758333" lon="34.944268333">
<time>2011-06-04T09:22:10Z</time>
</trkpt>
<trkpt lat="32.083741667" lon="34.944261667">
<time>2011-06-04T09:22:15Z</time>
</trkpt>
<trkpt lat="32.083746667" lon="34.944265000">
<time>2011-06-04T09:22:20Z</time>
</trkpt>
<trkpt lat="32.083738333" lon="34.944255000">
<time>2011-06-04T09:22:25Z</time>
</trkpt>
<trkpt lat="32.083736667" lon="34.944240000">
<time>2011-06-04T09:22:30Z</time>
</trkpt>
<trkpt lat="32.083746667" lon="34.944230000">
<time>2011-06-04T09:22:35Z</time>
</trkpt>
<trkpt lat="32.083751667" lon="34.944230000">
<time>2011-06-04T09:22:50Z</time>
</trkpt>
<trkpt lat="32.083743333" lon="34.944226667">
<time>2011-06-04T09:23:00Z</time>
</trkpt>
<trkpt lat="32.083738333" lon="34.944206667">
<time>2011-06-04T09:23:05Z</time>
</trkpt>
<trkpt lat="32.083731667" lon="34.944196667">
<time>2011-06-04T09:23:10Z</time>
</trkpt>
<trkpt lat="32.083743333" lon="34.944225000">
<time>2011-06-04T09:23:15Z</time>
</trkpt>
<trkpt lat="32.083745000" lon="34.944230000">
<time>2011-06-04T09:23:20Z</time>
</trkpt>
<trkpt lat="32.083758333" lon="34.944235000">
<time>2011-06-04T09:23:30Z</time>
</trkpt>
<trkpt lat="32.083761667" lon="34.944241667">
<time>2011-06-04T09:23:35Z</time>
</trkpt>
<trkpt lat="32.083760000" lon="34.944248333">
<time>2011-06-04T09:23:45Z</time>
</trkpt>
<trkpt lat="32.083760000" lon="34.944243333">
<time>2011-06-04T09:23:50Z</time>
</trkpt>
<trkpt lat="32.083756667" lon="34.944243333">
<time>2011-06-04T09:23:55Z</time>
</trkpt>
<trkpt lat="32.083765000" lon="34.944245000">
<time>2011-06-04T09:24:00Z</time>
</trkpt>
<trkpt lat="32.083770000" lon="34.944250000">
<time>2011-06-04T09:24:05Z</time>
</trkpt>
<trkpt lat="32.083770000" lon="34.944246667">
<time>2011-06-04T09:24:10Z</time>
</trkpt>
<trkpt lat="32.083773333" lon="34.944263333">
<time>2011-06-04T09:24:15Z</time>
</trkpt>
<trkpt lat="32.083771667" lon="34.944268333">
<time>2011-06-04T09:24:20Z</time>
</trkpt>
<trkpt lat="32.083775000" lon="34.944265000">
<time>2011-06-04T09:24:25Z</time>
</trkpt>
<trkpt lat="32.083775000" lon="34.944260000">
<time>2011-06-04T09:24:30Z</time>
</trkpt>
<trkpt lat="32.083766667" lon="34.944265000">
<time>2011-06-04T09:24:35Z</time>
</trkpt>
<trkpt lat="32.083765000" lon="34.944268333">
<time>2011-06-04T09:24:40Z</time>
</trkpt>
<trkpt lat="32.083768333" lon="34.944265000">
<time>2011-06-04T09:24:45Z</time>
</trkpt>
<trkpt lat="32.083770000" lon="34.944268333">
<time>2011-06-04T09:24:50Z</time>
</trkpt>
<trkpt lat="32.083770000" lon="34.944273333">
<time>2011-06-04T09:24:55Z</time>
</trkpt>
<trkpt lat="32.083771667" lon="34.944276667">
<time>2011-06-04T09:25:00Z</time>
</trkpt>
<trkpt lat="32.083776667" lon="34.944276667">
<time>2011-06-04T09:25:05Z</time>
</trkpt>
<trkpt lat="32.083770000" lon="34.944271667">
<time>2011-06-04T09:25:10Z</time>
</trkpt>
<trkpt lat="32.083771667" lon="34.944263333">
<time>2011-06-04T09:25:15Z</time>
</trkpt>
<trkpt lat="32.083775000" lon="34.944261667">
<time>2011-06-04T09:25:20Z</time>
</trkpt>
<trkpt lat="32.083771667" lon="34.944271667">
<time>2011-06-04T09:25:25Z</time>
</trkpt>
<trkpt lat="32.083776667" lon="34.944261667">
<time>2011-06-04T09:25:30Z</time>
</trkpt>
<trkpt lat="32.083780000" lon="34.944266667">
<time>2011-06-04T09:25:35Z</time>
</trkpt>
<trkpt lat="32.083775000" lon="34.944270000">
<time>2011-06-04T09:25:40Z</time>
</trkpt>
<trkpt lat="32.083770000" lon="34.944281667">
<time>2011-06-04T09:25:50Z</time>
</trkpt>
<trkpt lat="32.083771667" lon="34.944288333">
<time>2011-06-04T09:25:55Z</time>
</trkpt>
<trkpt lat="32.083760000" lon="34.944280000">
<time>2011-06-04T09:26:00Z</time>
</trkpt>
<trkpt lat="32.083761667" lon="34.944283333">
<time>2011-06-04T09:26:05Z</time>
</trkpt>
<trkpt lat="32.083756667" lon="34.944283333">
<time>2011-06-04T09:26:10Z</time>
</trkpt>
<trkpt lat="32.083753333" lon="34.944285000">
<time>2011-06-04T09:26:15Z</time>
</trkpt>
<trkpt lat="32.084206667" lon="34.943711667">
<time>2011-06-04T09:26:45Z</time>
</trkpt>
<trkpt lat="32.084236667" lon="34.943570000">
<time>2011-06-04T09:29:55Z</time>
</trkpt>
<trkpt lat="32.084286667" lon="34.943396667">
<time>2011-06-04T09:30:00Z</time>
</trkpt>
<trkpt lat="32.084341667" lon="34.943203333">
<time>2011-06-04T09:30:05Z</time>
</trkpt>
<trkpt lat="32.084410000" lon="34.942996667">
<time>2011-06-04T09:30:10Z</time>
</trkpt>
<trkpt lat="32.084485000" lon="34.942790000">
<time>2011-06-04T09:30:15Z</time>
</trkpt>
<trkpt lat="32.084563333" lon="34.942600000">
<time>2011-06-04T09:30:20Z</time>
</trkpt>
<trkpt lat="32.084645000" lon="34.942403333">
<time>2011-06-04T09:30:25Z</time>
</trkpt>
<trkpt lat="32.084750000" lon="34.942185000">
<time>2011-06-04T09:30:30Z</time>
</trkpt>
<trkpt lat="32.084850000" lon="34.941946667">
<time>2011-06-04T09:30:35Z</time>
</trkpt>
<trkpt lat="32.084988333" lon="34.941731667">
<time>2011-06-04T09:30:40Z</time>
</trkpt>
<trkpt lat="32.085073333" lon="34.941490000">
<time>2011-06-04T09:30:45Z</time>
</trkpt>
<trkpt lat="32.085008333" lon="34.941225000">
<time>2011-06-04T09:30:50Z</time>
</trkpt>
<trkpt lat="32.085025000" lon="34.940941667">
<time>2011-06-04T09:30:55Z</time>
</trkpt>
<trkpt lat="32.085063333" lon="34.940661667">
<time>2011-06-04T09:31:00Z</time>
</trkpt>
<trkpt lat="32.085095000" lon="34.940365000">
<time>2011-06-04T09:31:05Z</time>
</trkpt>
<trkpt lat="32.085153333" lon="34.940060000">
<time>2011-06-04T09:31:10Z</time>
</trkpt>
<trkpt lat="32.085263333" lon="34.939750000">
<time>2011-06-04T09:31:15Z</time>
</trkpt>
<trkpt lat="32.085418333" lon="34.939460000">
<time>2011-06-04T09:31:20Z</time>
</trkpt>
<trkpt lat="32.085520000" lon="34.939123333">
<time>2011-06-04T09:31:25Z</time>
</trkpt>
<trkpt lat="32.085553333" lon="34.938736667">
<time>2011-06-04T09:31:30Z</time>
</trkpt>
<trkpt lat="32.085636667" lon="34.938380000">
<time>2011-06-04T09:31:35Z</time>
</trkpt>
<trkpt lat="32.085780000" lon="34.938113333">
<time>2011-06-04T09:31:40Z</time>
</trkpt>
<trkpt lat="32.085923333" lon="34.937876667">
<time>2011-06-04T09:31:45Z</time>
</trkpt>
<trkpt lat="32.086023333" lon="34.937603333">
<time>2011-06-04T09:31:50Z</time>
</trkpt>
<trkpt lat="32.086193333" lon="34.937266667">
<time>2011-06-04T09:31:55Z</time>
</trkpt>
<trkpt lat="32.086230000" lon="34.936935000">
<time>2011-06-04T09:32:00Z</time>
</trkpt>
<trkpt lat="32.086145000" lon="34.936676667">
<time>2011-06-04T09:32:05Z</time>
</trkpt>
<trkpt lat="32.085981667" lon="34.936401667">
<time>2011-06-04T09:32:10Z</time>
</trkpt>
<trkpt lat="32.085853333" lon="34.936128333">
<time>2011-06-04T09:32:15Z</time>
</trkpt>
<trkpt lat="32.085828333" lon="34.935886667">
<time>2011-06-04T09:32:20Z</time>
</trkpt>
<trkpt lat="32.085820000" lon="34.935671667">
<time>2011-06-04T09:32:25Z</time>
</trkpt>
<trkpt lat="32.085833333" lon="34.935443333">
<time>2011-06-04T09:32:30Z</time>
</trkpt>
<trkpt lat="32.085836667" lon="34.935196667">
<time>2011-06-04T09:32:35Z</time>
</trkpt>
<trkpt lat="32.085820000" lon="34.934943333">
<time>2011-06-04T09:32:40Z</time>
</trkpt>
<trkpt lat="32.085813333" lon="34.934691667">
<time>2011-06-04T09:32:45Z</time>
</trkpt>
<trkpt lat="32.085828333" lon="34.934470000">
<time>2011-06-04T09:32:50Z</time>
</trkpt>
<trkpt lat="32.085860000" lon="34.934295000">
<time>2011-06-04T09:32:55Z</time>
</trkpt>
<trkpt lat="32.085888333" lon="34.934191667">
<time>2011-06-04T09:33:00Z</time>
</trkpt>
<trkpt lat="32.085900000" lon="34.934128333">
<time>2011-06-04T09:33:05Z</time>
</trkpt>
<trkpt lat="32.085900000" lon="34.934100000">
<time>2011-06-04T09:33:10Z</time>
</trkpt>
<trkpt lat="32.085915000" lon="34.934075000">
<time>2011-06-04T09:33:15Z</time>
</trkpt>
<trkpt lat="32.085920000" lon="34.934065000">
<time>2011-06-04T09:33:20Z</time>
</trkpt>
<trkpt lat="32.085916667" lon="34.934040000">
<time>2011-06-04T09:33:25Z</time>
</trkpt>
<trkpt lat="32.085926667" lon="34.933883333">
<time>2011-06-04T09:33:30Z</time>
</trkpt>
<trkpt lat="32.085963333" lon="34.933683333">
<time>2011-06-04T09:33:35Z</time>
</trkpt>
<trkpt lat="32.085988333" lon="34.933460000">
<time>2011-06-04T09:33:40Z</time>
</trkpt>
<trkpt lat="32.086016667" lon="34.933216667">
<time>2011-06-04T09:33:45Z</time>
</trkpt>
<trkpt lat="32.086036667" lon="34.932998333">
<time>2011-06-04T09:33:50Z</time>
</trkpt>
<trkpt lat="32.086061667" lon="34.932780000">
<time>2011-06-04T09:33:55Z</time>
</trkpt>
<trkpt lat="32.086073333" lon="34.932546667">
<time>2011-06-04T09:34:00Z</time>
</trkpt>
<trkpt lat="32.086013333" lon="34.932276667">
<time>2011-06-04T09:34:05Z</time>
</trkpt>
<trkpt lat="32.085788333" lon="34.932021667">
<time>2011-06-04T09:34:10Z</time>
</trkpt>
<trkpt lat="32.085528333" lon="34.931726667">
<time>2011-06-04T09:34:15Z</time>
</trkpt>
<trkpt lat="32.085381667" lon="34.931365000">
<time>2011-06-04T09:34:20Z</time>
</trkpt>
<trkpt lat="32.085388333" lon="34.930885000">
<time>2011-06-04T09:34:25Z</time>
</trkpt>
<trkpt lat="32.085476667" lon="34.930465000">
<time>2011-06-04T09:34:30Z</time>
</trkpt>
<trkpt lat="32.085541667" lon="34.929981667">
<time>2011-06-04T09:34:35Z</time>
</trkpt>
<trkpt lat="32.085596667" lon="34.929598333">
<time>2011-06-04T09:34:40Z</time>
</trkpt>
<trkpt lat="32.085643333" lon="34.929283333">
<time>2011-06-04T09:34:45Z</time>
</trkpt>
<trkpt lat="32.085795000" lon="34.928961667">
<time>2011-06-04T09:34:50Z</time>
</trkpt>
<trkpt lat="32.085986667" lon="34.928751667">
<time>2011-06-04T09:34:55Z</time>
</trkpt>
<trkpt lat="32.086181667" lon="34.928548333">
<time>2011-06-04T09:35:00Z</time>
</trkpt>
<trkpt lat="32.086380000" lon="34.928343333">
<time>2011-06-04T09:35:05Z</time>
</trkpt>
<trkpt lat="32.086560000" lon="34.928115000">
<time>2011-06-04T09:35:10Z</time>
</trkpt>
<trkpt lat="32.086728333" lon="34.927863333">
<time>2011-06-04T09:35:15Z</time>
</trkpt>
<trkpt lat="32.086911667" lon="34.927608333">
<time>2011-06-04T09:35:20Z</time>
</trkpt>
<trkpt lat="32.087120000" lon="34.927405000">
<time>2011-06-04T09:35:25Z</time>
</trkpt>
<trkpt lat="32.087315000" lon="34.927213333">
<time>2011-06-04T09:35:30Z</time>
</trkpt>
<trkpt lat="32.087510000" lon="34.926996667">
<time>2011-06-04T09:35:35Z</time>
</trkpt>
<trkpt lat="32.087696667" lon="34.926768333">
<time>2011-06-04T09:35:40Z</time>
</trkpt>
<trkpt lat="32.087883333" lon="34.926540000">
<time>2011-06-04T09:35:45Z</time>
</trkpt>
<trkpt lat="32.088116667" lon="34.926285000">
<time>2011-06-04T09:35:50Z</time>
</trkpt>
<trkpt lat="32.088276667" lon="34.926153333">
<time>2011-06-04T09:35:55Z</time>
</trkpt>
<trkpt lat="32.088491667" lon="34.926026667">
<time>2011-06-04T09:36:00Z</time>
</trkpt>
<trkpt lat="32.088686667" lon="34.925885000">
<time>2011-06-04T09:36:05Z</time>
</trkpt>
<trkpt lat="32.088718333" lon="34.925708333">
<time>2011-06-04T09:36:10Z</time>
</trkpt>
<trkpt lat="32.088745000" lon="34.925496667">
<time>2011-06-04T09:36:15Z</time>
</trkpt>
<trkpt lat="32.088833333" lon="34.925261667">
<time>2011-06-04T09:36:20Z</time>
</trkpt>
<trkpt lat="32.088920000" lon="34.925006667">
<time>2011-06-04T09:36:25Z</time>
</trkpt>
<trkpt lat="32.089008333" lon="34.924730000">
<time>2011-06-04T09:36:30Z</time>
</trkpt>
<trkpt lat="32.089103333" lon="34.924430000">
<time>2011-06-04T09:36:35Z</time>
</trkpt>
<trkpt lat="32.089195000" lon="34.924128333">
<time>2011-06-04T09:36:40Z</time>
</trkpt>
<trkpt lat="32.089175000" lon="34.923836667">
<time>2011-06-04T09:36:45Z</time>
</trkpt>
<trkpt lat="32.089033333" lon="34.923570000">
<time>2011-06-04T09:36:50Z</time>
</trkpt>
<trkpt lat="32.088958333" lon="34.923256667">
<time>2011-06-04T09:36:55Z</time>
</trkpt>
<trkpt lat="32.088908333" lon="34.922886667">
<time>2011-06-04T09:37:00Z</time>
</trkpt>
<trkpt lat="32.088890000" lon="34.922643333">
<time>2011-06-04T09:37:05Z</time>
</trkpt>
<trkpt lat="32.089003333" lon="34.922355000">
<time>2011-06-04T09:37:10Z</time>
</trkpt>
<trkpt lat="32.089201667" lon="34.922296667">
<time>2011-06-04T09:37:15Z</time>
</trkpt>
<trkpt lat="32.089468333" lon="34.922308333">
<time>2011-06-04T09:37:20Z</time>
</trkpt>
<trkpt lat="32.089740000" lon="34.922380000">
<time>2011-06-04T09:37:25Z</time>
</trkpt>
<trkpt lat="32.089991667" lon="34.922448333">
<time>2011-06-04T09:37:30Z</time>
</trkpt>
<trkpt lat="32.090230000" lon="34.922343333">
<time>2011-06-04T09:37:35Z</time>
</trkpt>
<trkpt lat="32.090493333" lon="34.922316667">
<time>2011-06-04T09:37:40Z</time>
</trkpt>
<trkpt lat="32.090736667" lon="34.922290000">
<time>2011-06-04T09:37:45Z</time>
</trkpt>
<trkpt lat="32.090946667" lon="34.922205000">
<time>2011-06-04T09:37:50Z</time>
</trkpt>
<trkpt lat="32.091155000" lon="34.922166667">
<time>2011-06-04T09:37:55Z</time>
</trkpt>
<trkpt lat="32.091393333" lon="34.922221667">
<time>2011-06-04T09:38:00Z</time>
</trkpt>
<trkpt lat="32.091638333" lon="34.922276667">
<time>2011-06-04T09:38:05Z</time>
</trkpt>
<trkpt lat="32.091881667" lon="34.922320000">
<time>2011-06-04T09:38:10Z</time>
</trkpt>
<trkpt lat="32.092028333" lon="34.922203333">
<time>2011-06-04T09:38:15Z</time>
</trkpt>
<trkpt lat="32.092098333" lon="34.921953333">
<time>2011-06-04T09:38:20Z</time>
</trkpt>
<trkpt lat="32.092165000" lon="34.921666667">
<time>2011-06-04T09:38:25Z</time>
</trkpt>
<trkpt lat="32.092220000" lon="34.921441667">
<time>2011-06-04T09:38:30Z</time>
</trkpt>
<trkpt lat="32.092273333" lon="34.921241667">
<time>2011-06-04T09:38:35Z</time>
</trkpt>
<trkpt lat="32.092323333" lon="34.921091667">
<time>2011-06-04T09:38:40Z</time>
</trkpt>
<trkpt lat="32.092403333" lon="34.920886667">
<time>2011-06-04T09:38:45Z</time>
</trkpt>
<trkpt lat="32.092460000" lon="34.920668333">
<time>2011-06-04T09:38:50Z</time>
</trkpt>
<trkpt lat="32.092503333" lon="34.920476667">
<time>2011-06-04T09:38:55Z</time>
</trkpt>
<trkpt lat="32.092506667" lon="34.920375000">
<time>2011-06-04T09:39:00Z</time>
</trkpt>
<trkpt lat="32.092578333" lon="34.920235000">
<time>2011-06-04T09:39:05Z</time>
</trkpt>
<trkpt lat="32.092688333" lon="34.920103333">
<time>2011-06-04T09:39:10Z</time>
</trkpt>
<trkpt lat="32.092803333" lon="34.919971667">
<time>2011-06-04T09:39:15Z</time>
</trkpt>
<trkpt lat="32.092903333" lon="34.919825000">
<time>2011-06-04T09:39:20Z</time>
</trkpt>
<trkpt lat="32.093006667" lon="34.919663333">
<time>2011-06-04T09:39:25Z</time>
</trkpt>
<trkpt lat="32.093143333" lon="34.919501667">
<time>2011-06-04T09:39:30Z</time>
</trkpt>
<trkpt lat="32.093280000" lon="34.919346667">
<time>2011-06-04T09:39:35Z</time>
</trkpt>
<trkpt lat="32.093425000" lon="34.919198333">
<time>2011-06-04T09:39:40Z</time>
</trkpt>
<trkpt lat="32.093600000" lon="34.919173333">
<time>2011-06-04T09:39:45Z</time>
</trkpt>
<trkpt lat="32.093765000" lon="34.919318333">
<time>2011-06-04T09:39:50Z</time>
</trkpt>
<trkpt lat="32.093891667" lon="34.919323333">
<time>2011-06-04T09:39:55Z</time>
</trkpt>
<trkpt lat="32.094030000" lon="34.919190000">
<time>2011-06-04T09:40:00Z</time>
</trkpt>
<trkpt lat="32.094138333" lon="34.919015000">
<time>2011-06-04T09:40:05Z</time>
</trkpt>
<trkpt lat="32.094251667" lon="34.918826667">
<time>2011-06-04T09:40:10Z</time>
</trkpt>
<trkpt lat="32.094420000" lon="34.918708333">
<time>2011-06-04T09:40:15Z</time>
</trkpt>
<trkpt lat="32.094596667" lon="34.918591667">
<time>2011-06-04T09:40:20Z</time>
</trkpt>
<trkpt lat="32.094731667" lon="34.918433333">
<time>2011-06-04T09:40:25Z</time>
</trkpt>
<trkpt lat="32.094881667" lon="34.918386667">
<time>2011-06-04T09:40:30Z</time>
</trkpt>
<trkpt lat="32.094971667" lon="34.918306667">
<time>2011-06-04T09:40:35Z</time>
</trkpt>
<trkpt lat="32.094946667" lon="34.918173333">
<time>2011-06-04T09:40:40Z</time>
</trkpt>
<trkpt lat="32.094875000" lon="34.918065000">
<time>2011-06-04T09:40:45Z</time>
</trkpt>
<trkpt lat="32.094833333" lon="34.917905000">
<time>2011-06-04T09:40:50Z</time>
</trkpt>
<trkpt lat="32.094826667" lon="34.917728333">
<time>2011-06-04T09:40:55Z</time>
</trkpt>
<trkpt lat="32.094870000" lon="34.917556667">
<time>2011-06-04T09:41:00Z</time>
</trkpt>
<trkpt lat="32.094956667" lon="34.917396667">
<time>2011-06-04T09:41:05Z</time>
</trkpt>
<trkpt lat="32.094986667" lon="34.917230000">
<time>2011-06-04T09:41:10Z</time>
</trkpt>
<trkpt lat="32.095025000" lon="34.917060000">
<time>2011-06-04T09:41:15Z</time>
</trkpt>
<trkpt lat="32.095081667" lon="34.916876667">
<time>2011-06-04T09:41:20Z</time>
</trkpt>
<trkpt lat="32.095161667" lon="34.916691667">
<time>2011-06-04T09:41:25Z</time>
</trkpt>
<trkpt lat="32.095265000" lon="34.916496667">
<time>2011-06-04T09:41:30Z</time>
</trkpt>
<trkpt lat="32.095363333" lon="34.916301667">
<time>2011-06-04T09:41:35Z</time>
</trkpt>
<trkpt lat="32.095465000" lon="34.916108333">
<time>2011-06-04T09:41:40Z</time>
</trkpt>
<trkpt lat="32.095573333" lon="34.915916667">
<time>2011-06-04T09:41:45Z</time>
</trkpt>
<trkpt lat="32.095685000" lon="34.915723333">
<time>2011-06-04T09:41:50Z</time>
</trkpt>
<trkpt lat="32.095798333" lon="34.915536667">
<time>2011-06-04T09:41:55Z</time>
</trkpt>
<trkpt lat="32.095883333" lon="34.915378333">
<time>2011-06-04T09:42:00Z</time>
</trkpt>
<trkpt lat="32.095956667" lon="34.915210000">
<time>2011-06-04T09:42:05Z</time>
</trkpt>
<trkpt lat="32.096018333" lon="34.915040000">
<time>2011-06-04T09:42:10Z</time>
</trkpt>
<trkpt lat="32.096060000" lon="34.914858333">
<time>2011-06-04T09:42:15Z</time>
</trkpt>
<trkpt lat="32.096110000" lon="34.914631667">
<time>2011-06-04T09:42:20Z</time>
</trkpt>
<trkpt lat="32.096135000" lon="34.914478333">
<time>2011-06-04T09:42:25Z</time>
</trkpt>
<trkpt lat="32.096158333" lon="34.914306667">
<time>2011-06-04T09:42:30Z</time>
</trkpt>
<trkpt lat="32.096173333" lon="34.914121667">
<time>2011-06-04T09:42:35Z</time>
</trkpt>
<trkpt lat="32.096180000" lon="34.913928333">
<time>2011-06-04T09:42:40Z</time>
</trkpt>
<trkpt lat="32.096171667" lon="34.913726667">
<time>2011-06-04T09:42:45Z</time>
</trkpt>
<trkpt lat="32.096165000" lon="34.913516667">
<time>2011-06-04T09:42:50Z</time>
</trkpt>
<trkpt lat="32.096141667" lon="34.913306667">
<time>2011-06-04T09:42:55Z</time>
</trkpt>
<trkpt lat="32.096105000" lon="34.913096667">
<time>2011-06-04T09:43:00Z</time>
</trkpt>
<trkpt lat="32.096095000" lon="34.912870000">
<time>2011-06-04T09:43:05Z</time>
</trkpt>
<trkpt lat="32.096106667" lon="34.912646667">
<time>2011-06-04T09:43:10Z</time>
</trkpt>
<trkpt lat="32.096190000" lon="34.912440000">
<time>2011-06-04T09:43:15Z</time>
</trkpt>
<trkpt lat="32.096305000" lon="34.912235000">
<time>2011-06-04T09:43:20Z</time>
</trkpt>
<trkpt lat="32.096458333" lon="34.912051667">
<time>2011-06-04T09:43:25Z</time>
</trkpt>
<trkpt lat="32.096623333" lon="34.911885000">
<time>2011-06-04T09:43:30Z</time>
</trkpt>
<trkpt lat="32.096768333" lon="34.911716667">
<time>2011-06-04T09:43:35Z</time>
</trkpt>
<trkpt lat="32.096838333" lon="34.911563333">
<time>2011-06-04T09:43:40Z</time>
</trkpt>
<trkpt lat="32.096798333" lon="34.911361667">
<time>2011-06-04T09:43:45Z</time>
</trkpt>
<trkpt lat="32.096733333" lon="34.911258333">
<time>2011-06-04T09:43:50Z</time>
</trkpt>
<trkpt lat="32.096605000" lon="34.911171667">
<time>2011-06-04T09:43:55Z</time>
</trkpt>
<trkpt lat="32.096488333" lon="34.911135000">
<time>2011-06-04T09:44:00Z</time>
</trkpt>
<trkpt lat="32.096426667" lon="34.911086667">
<time>2011-06-04T09:44:05Z</time>
</trkpt>
<trkpt lat="32.096460000" lon="34.910983333">
<time>2011-06-04T09:44:10Z</time>
</trkpt>
<trkpt lat="32.096561667" lon="34.910900000">
<time>2011-06-04T09:44:15Z</time>
</trkpt>
<trkpt lat="32.096658333" lon="34.910806667">
<time>2011-06-04T09:44:20Z</time>
</trkpt>
<trkpt lat="32.096658333" lon="34.910703333">
<time>2011-06-04T09:44:25Z</time>
</trkpt>
<trkpt lat="32.096633333" lon="34.910590000">
<time>2011-06-04T09:44:30Z</time>
</trkpt>
<trkpt lat="32.096626667" lon="34.910481667">
<time>2011-06-04T09:44:35Z</time>
</trkpt>
<trkpt lat="32.096600000" lon="34.910331667">
<time>2011-06-04T09:44:40Z</time>
</trkpt>
<trkpt lat="32.096586667" lon="34.910175000">
<time>2011-06-04T09:44:45Z</time>
</trkpt>
<trkpt lat="32.096573333" lon="34.910018333">
<time>2011-06-04T09:44:50Z</time>
</trkpt>
<trkpt lat="32.096558333" lon="34.909845000">
<time>2011-06-04T09:44:55Z</time>
</trkpt>
<trkpt lat="32.096543333" lon="34.909676667">
<time>2011-06-04T09:45:00Z</time>
</trkpt>
<trkpt lat="32.096523333" lon="34.909516667">
<time>2011-06-04T09:45:05Z</time>
</trkpt>
<trkpt lat="32.096511667" lon="34.909301667">
<time>2011-06-04T09:45:10Z</time>
</trkpt>
<trkpt lat="32.096508333" lon="34.909115000">
<time>2011-06-04T09:45:15Z</time>
</trkpt>
<trkpt lat="32.096510000" lon="34.908910000">
<time>2011-06-04T09:45:20Z</time>
</trkpt>
<trkpt lat="32.096505000" lon="34.908683333">
<time>2011-06-04T09:45:25Z</time>
</trkpt>
<trkpt lat="32.096515000" lon="34.908431667">
<time>2011-06-04T09:45:30Z</time>
</trkpt>
<trkpt lat="32.096513333" lon="34.908171667">
<time>2011-06-04T09:45:35Z</time>
</trkpt>
<trkpt lat="32.096501667" lon="34.907918333">
<time>2011-06-04T09:45:40Z</time>
</trkpt>
<trkpt lat="32.096503333" lon="34.907680000">
<time>2011-06-04T09:45:45Z</time>
</trkpt>
<trkpt lat="32.096520000" lon="34.907443333">
<time>2011-06-04T09:45:50Z</time>
</trkpt>
<trkpt lat="32.096521667" lon="34.907208333">
<time>2011-06-04T09:45:55Z</time>
</trkpt>
<trkpt lat="32.096518333" lon="34.906971667">
<time>2011-06-04T09:46:00Z</time>
</trkpt>
<trkpt lat="32.096435000" lon="34.906858333">
<time>2011-06-04T09:46:05Z</time>
</trkpt>
<trkpt lat="32.096256667" lon="34.906960000">
<time>2011-06-04T09:46:10Z</time>
</trkpt>
<trkpt lat="32.096090000" lon="34.907073333">
<time>2011-06-04T09:46:15Z</time>
</trkpt>
<trkpt lat="32.095950000" lon="34.907175000">
<time>2011-06-04T09:46:20Z</time>
</trkpt>
<trkpt lat="32.095773333" lon="34.907313333">
<time>2011-06-04T09:46:25Z</time>
</trkpt>
<trkpt lat="32.095580000" lon="34.907461667">
<time>2011-06-04T09:46:30Z</time>
</trkpt>
<trkpt lat="32.095391667" lon="34.907593333">
<time>2011-06-04T09:46:35Z</time>
</trkpt>
<trkpt lat="32.095205000" lon="34.907733333">
<time>2011-06-04T09:46:40Z</time>
</trkpt>
<trkpt lat="32.095011667" lon="34.907878333">
<time>2011-06-04T09:46:45Z</time>
</trkpt>
<trkpt lat="32.094806667" lon="34.908033333">
<time>2011-06-04T09:46:50Z</time>
</trkpt>
<trkpt lat="32.094586667" lon="34.908146667">
<time>2011-06-04T09:46:55Z</time>
</trkpt>
<trkpt lat="32.094341667" lon="34.908183333">
<time>2011-06-04T09:47:00Z</time>
</trkpt>
<trkpt lat="32.094101667" lon="34.908165000">
<time>2011-06-04T09:47:05Z</time>
</trkpt>
<trkpt lat="32.093870000" lon="34.908136667">
<time>2011-06-04T09:47:10Z</time>
</trkpt>
<trkpt lat="32.093655000" lon="34.908108333">
<time>2011-06-04T09:47:15Z</time>
</trkpt>
<trkpt lat="32.093438333" lon="34.908083333">
<time>2011-06-04T09:47:20Z</time>
</trkpt>
<trkpt lat="32.093225000" lon="34.908055000">
<time>2011-06-04T09:47:25Z</time>
</trkpt>
<trkpt lat="32.093020000" lon="34.908011667">
<time>2011-06-04T09:47:30Z</time>
</trkpt>
<trkpt lat="32.092786667" lon="34.907971667">
<time>2011-06-04T09:47:35Z</time>
</trkpt>
<trkpt lat="32.092636667" lon="34.907940000">
<time>2011-06-04T09:47:40Z</time>
</trkpt>
<trkpt lat="32.092423333" lon="34.907871667">
<time>2011-06-04T09:47:45Z</time>
</trkpt>
<trkpt lat="32.092211667" lon="34.907813333">
<time>2011-06-04T09:47:50Z</time>
</trkpt>
<trkpt lat="32.092013333" lon="34.907773333">
<time>2011-06-04T09:47:55Z</time>
</trkpt>
<trkpt lat="32.091808333" lon="34.907726667">
<time>2011-06-04T09:48:00Z</time>
</trkpt>
<trkpt lat="32.091581667" lon="34.907718333">
<time>2011-06-04T09:48:05Z</time>
</trkpt>
<trkpt lat="32.091363333" lon="34.907723333">
<time>2011-06-04T09:48:10Z</time>
</trkpt>
<trkpt lat="32.091156667" lon="34.907763333">
<time>2011-06-04T09:48:15Z</time>
</trkpt>
<trkpt lat="32.090945000" lon="34.907801667">
<time>2011-06-04T09:48:20Z</time>
</trkpt>
<trkpt lat="32.090726667" lon="34.907830000">
<time>2011-06-04T09:48:25Z</time>
</trkpt>
<trkpt lat="32.090518333" lon="34.907828333">
<time>2011-06-04T09:48:30Z</time>
</trkpt>
<trkpt lat="32.090315000" lon="34.907831667">
<time>2011-06-04T09:48:35Z</time>
</trkpt>
<trkpt lat="32.090111667" lon="34.907818333">
<time>2011-06-04T09:48:40Z</time>
</trkpt>
<trkpt lat="32.089900000" lon="34.907815000">
<time>2011-06-04T09:48:45Z</time>
</trkpt>
<trkpt lat="32.089688333" lon="34.907798333">
<time>2011-06-04T09:48:50Z</time>
</trkpt>
<trkpt lat="32.089486667" lon="34.907791667">
<time>2011-06-04T09:48:55Z</time>
</trkpt>
<trkpt lat="32.089281667" lon="34.907798333">
<time>2011-06-04T09:49:00Z</time>
</trkpt>
<trkpt lat="32.089086667" lon="34.907773333">
<time>2011-06-04T09:49:05Z</time>
</trkpt>
<trkpt lat="32.088901667" lon="34.907706667">
<time>2011-06-04T09:49:10Z</time>
</trkpt>
<trkpt lat="32.088721667" lon="34.907626667">
<time>2011-06-04T09:49:15Z</time>
</trkpt>
<trkpt lat="32.088523333" lon="34.907528333">
<time>2011-06-04T09:49:20Z</time>
</trkpt>
<trkpt lat="32.088321667" lon="34.907436667">
<time>2011-06-04T09:49:25Z</time>
</trkpt>
<trkpt lat="32.088125000" lon="34.907366667">
<time>2011-06-04T09:49:30Z</time>
</trkpt>
<trkpt lat="32.087926667" lon="34.907315000">
<time>2011-06-04T09:49:35Z</time>
</trkpt>
<trkpt lat="32.087738333" lon="34.907293333">
<time>2011-06-04T09:49:40Z</time>
</trkpt>
<trkpt lat="32.087556667" lon="34.907343333">
<time>2011-06-04T09:49:45Z</time>
</trkpt>
<trkpt lat="32.087365000" lon="34.907388333">
<time>2011-06-04T09:49:50Z</time>
</trkpt>
<trkpt lat="32.087150000" lon="34.907428333">
<time>2011-06-04T09:49:55Z</time>
</trkpt>
<trkpt lat="32.086938333" lon="34.907500000">
<time>2011-06-04T09:50:00Z</time>
</trkpt>
<trkpt lat="32.086695000" lon="34.907565000">
<time>2011-06-04T09:50:05Z</time>
</trkpt>
<trkpt lat="32.086531667" lon="34.907598333">
<time>2011-06-04T09:50:10Z</time>
</trkpt>
<trkpt lat="32.086323333" lon="34.907610000">
<time>2011-06-04T09:50:15Z</time>
</trkpt>
<trkpt lat="32.086118333" lon="34.907611667">
<time>2011-06-04T09:50:20Z</time>
</trkpt>
<trkpt lat="32.085916667" lon="34.907591667">
<time>2011-06-04T09:50:25Z</time>
</trkpt>
<trkpt lat="32.085713333" lon="34.907535000">
<time>2011-06-04T09:50:30Z</time>
</trkpt>
<trkpt lat="32.085510000" lon="34.907466667">
<time>2011-06-04T09:50:35Z</time>
</trkpt>
<trkpt lat="32.085313333" lon="34.907396667">
<time>2011-06-04T09:50:40Z</time>
</trkpt>
<trkpt lat="32.085123333" lon="34.907331667">
<time>2011-06-04T09:50:45Z</time>
</trkpt>
<trkpt lat="32.084943333" lon="34.907270000">
<time>2011-06-04T09:50:50Z</time>
</trkpt>
<trkpt lat="32.084778333" lon="34.907220000">
<time>2011-06-04T09:50:55Z</time>
</trkpt>
<trkpt lat="32.084631667" lon="34.907176667">
<time>2011-06-04T09:51:00Z</time>
</trkpt>
<trkpt lat="32.084491667" lon="34.907123333">
<time>2011-06-04T09:51:05Z</time>
</trkpt>
<trkpt lat="32.084353333" lon="34.907068333">
<time>2011-06-04T09:51:10Z</time>
</trkpt>
<trkpt lat="32.084223333" lon="34.907020000">
<time>2011-06-04T09:51:15Z</time>
</trkpt>
<trkpt lat="32.084081667" lon="34.906976667">
<time>2011-06-04T09:51:20Z</time>
</trkpt>
<trkpt lat="32.083926667" lon="34.906933333">
<time>2011-06-04T09:51:25Z</time>
</trkpt>
<trkpt lat="32.083741667" lon="34.906881667">
<time>2011-06-04T09:51:30Z</time>
</trkpt>
<trkpt lat="32.083615000" lon="34.906840000">
<time>2011-06-04T09:51:35Z</time>
</trkpt>
<trkpt lat="32.083448333" lon="34.906790000">
<time>2011-06-04T09:51:40Z</time>
</trkpt>
<trkpt lat="32.083280000" lon="34.906733333">
<time>2011-06-04T09:51:45Z</time>
</trkpt>
<trkpt lat="32.083111667" lon="34.906668333">
<time>2011-06-04T09:51:50Z</time>
</trkpt>
<trkpt lat="32.082945000" lon="34.906588333">
<time>2011-06-04T09:51:55Z</time>
</trkpt>
<trkpt lat="32.082783333" lon="34.906496667">
<time>2011-06-04T09:52:00Z</time>
</trkpt>
<trkpt lat="32.082610000" lon="34.906408333">
<time>2011-06-04T09:52:05Z</time>
</trkpt>
<trkpt lat="32.082435000" lon="34.906335000">
<time>2011-06-04T09:52:10Z</time>
</trkpt>
<trkpt lat="32.082263333" lon="34.906256667">
<time>2011-06-04T09:52:15Z</time>
</trkpt>
<trkpt lat="32.082101667" lon="34.906190000">
<time>2011-06-04T09:52:20Z</time>
</trkpt>
<trkpt lat="32.081945000" lon="34.906168333">
<time>2011-06-04T09:52:25Z</time>
</trkpt>
<trkpt lat="32.081858333" lon="34.906156667">
<time>2011-06-04T09:52:30Z</time>
</trkpt>
<trkpt lat="32.081805000" lon="34.906041667">
<time>2011-06-04T09:52:35Z</time>
</trkpt>
<trkpt lat="32.081670000" lon="34.905996667">
<time>2011-06-04T09:52:40Z</time>
</trkpt>
<trkpt lat="32.081693333" lon="34.905873333">
<time>2011-06-04T09:52:45Z</time>
</trkpt>
<trkpt lat="32.081776667" lon="34.905668333">
<time>2011-06-04T09:52:50Z</time>
</trkpt>
<trkpt lat="32.081870000" lon="34.905450000">
<time>2011-06-04T09:52:55Z</time>
</trkpt>
<trkpt lat="32.081956667" lon="34.905231667">
<time>2011-06-04T09:53:00Z</time>
</trkpt>
<trkpt lat="32.082041667" lon="34.905031667">
<time>2011-06-04T09:53:05Z</time>
</trkpt>
<trkpt lat="32.082120000" lon="34.904833333">
<time>2011-06-04T09:53:10Z</time>
</trkpt>
<trkpt lat="32.082196667" lon="34.904630000">
<time>2011-06-04T09:53:15Z</time>
</trkpt>
<trkpt lat="32.082273333" lon="34.904423333">
<time>2011-06-04T09:53:20Z</time>
</trkpt>
<trkpt lat="32.082355000" lon="34.904218333">
<time>2011-06-04T09:53:25Z</time>
</trkpt>
<trkpt lat="32.082431667" lon="34.904036667">
<time>2011-06-04T09:53:30Z</time>
</trkpt>
<trkpt lat="32.082501667" lon="34.903880000">
<time>2011-06-04T09:53:35Z</time>
</trkpt>
<trkpt lat="32.082555000" lon="34.903738333">
<time>2011-06-04T09:53:40Z</time>
</trkpt>
<trkpt lat="32.082615000" lon="34.903631667">
<time>2011-06-04T09:53:45Z</time>
</trkpt>
<trkpt lat="32.082653333" lon="34.903520000">
<time>2011-06-04T09:53:50Z</time>
</trkpt>
<trkpt lat="32.082710000" lon="34.903360000">
<time>2011-06-04T09:53:55Z</time>
</trkpt>
<trkpt lat="32.082768333" lon="34.903190000">
<time>2011-06-04T09:54:00Z</time>
</trkpt>
<trkpt lat="32.082798333" lon="34.903018333">
<time>2011-06-04T09:54:05Z</time>
</trkpt>
<trkpt lat="32.082798333" lon="34.902873333">
<time>2011-06-04T09:54:10Z</time>
</trkpt>
<trkpt lat="32.082786667" lon="34.902736667">
<time>2011-06-04T09:54:15Z</time>
</trkpt>
<trkpt lat="32.082793333" lon="34.902618333">
<time>2011-06-04T09:54:20Z</time>
</trkpt>
<trkpt lat="32.082758333" lon="34.902518333">
<time>2011-06-04T09:54:25Z</time>
</trkpt>
<trkpt lat="32.082658333" lon="34.902506667">
<time>2011-06-04T09:54:30Z</time>
</trkpt>
<trkpt lat="32.082588333" lon="34.902525000">
<time>2011-06-04T09:54:35Z</time>
</trkpt>
<trkpt lat="32.082588333" lon="34.902521667">
<time>2011-06-04T09:54:40Z</time>
</trkpt>
<trkpt lat="32.082586667" lon="34.902520000">
<time>2011-06-04T09:54:45Z</time>
</trkpt>
<trkpt lat="32.082588333" lon="34.902520000">
<time>2011-06-04T09:54:50Z</time>
</trkpt>
<trkpt lat="32.082551667" lon="34.902523333">
<time>2011-06-04T09:54:55Z</time>
</trkpt>
<trkpt lat="32.082465000" lon="34.902445000">
<time>2011-06-04T09:55:00Z</time>
</trkpt>
<trkpt lat="32.082436667" lon="34.902383333">
<time>2011-06-04T09:55:05Z</time>
</trkpt>
<trkpt lat="32.082435000" lon="34.902380000">
<time>2011-06-04T09:55:10Z</time>
</trkpt>
<trkpt lat="32.082436667" lon="34.902378333">
<time>2011-06-04T09:55:15Z</time>
</trkpt>
<trkpt lat="32.082436667" lon="34.902376667">
<time>2011-06-04T09:55:20Z</time>
</trkpt>
<trkpt lat="32.082438333" lon="34.902371667">
<time>2011-06-04T09:55:25Z</time>
</trkpt>
<trkpt lat="32.082438333" lon="34.902368333">
<time>2011-06-04T09:55:30Z</time>
</trkpt>
<trkpt lat="32.082440000" lon="34.902355000">
<time>2011-06-04T09:55:35Z</time>
</trkpt>
<trkpt lat="32.082396667" lon="34.902223333">
<time>2011-06-04T09:55:40Z</time>
</trkpt>
<trkpt lat="32.082291667" lon="34.902146667">
<time>2011-06-04T09:55:45Z</time>
</trkpt>
<trkpt lat="32.082198333" lon="34.902218333">
<time>2011-06-04T09:55:50Z</time>
</trkpt>
<trkpt lat="32.082045000" lon="34.902331667">
<time>2011-06-04T09:55:55Z</time>
</trkpt>
<trkpt lat="32.081885000" lon="34.902391667">
<time>2011-06-04T09:56:00Z</time>
</trkpt>
<trkpt lat="32.081758333" lon="34.902395000">
<time>2011-06-04T09:56:05Z</time>
</trkpt>
<trkpt lat="32.081571667" lon="34.902346667">
<time>2011-06-04T09:56:10Z</time>
</trkpt>
<trkpt lat="32.081436667" lon="34.902301667">
<time>2011-06-04T09:56:15Z</time>
</trkpt>
<trkpt lat="32.081348333" lon="34.902168333">
<time>2011-06-04T09:56:20Z</time>
</trkpt>
<trkpt lat="32.081270000" lon="34.902015000">
<time>2011-06-04T09:56:25Z</time>
</trkpt>
<trkpt lat="32.081165000" lon="34.901901667">
<time>2011-06-04T09:56:30Z</time>
</trkpt>
<trkpt lat="32.081023333" lon="34.901831667">
<time>2011-06-04T09:56:35Z</time>
</trkpt>
<trkpt lat="32.080898333" lon="34.901781667">
<time>2011-06-04T09:56:40Z</time>
</trkpt>
<trkpt lat="32.080815000" lon="34.901863333">
<time>2011-06-04T09:56:45Z</time>
</trkpt>
<trkpt lat="32.080861667" lon="34.902070000">
<time>2011-06-04T09:56:50Z</time>
</trkpt>
<trkpt lat="32.080913333" lon="34.902266667">
<time>2011-06-04T09:56:55Z</time>
</trkpt>
<trkpt lat="32.080855000" lon="34.902365000">
<time>2011-06-04T09:57:00Z</time>
</trkpt>
</trkseg>
</trk>
</gpx>
